[[{"header":{"parameterUnit":"m.s-1","parameterCategory":1,"la1":31.0,"la2":29.5877,"lo1":-88.7671,"lo2":-86.6584,"dy":0.0162,"dx":0.0185,"nx":115,"ny":88,"refTime":"2023-09-29T12:00:00:Z","depth":0,"parameterNumber":2,"parameterNumberName":"U-component_of_WINDS"},"data":[0.0,0.0,0.0,0.0,0.0,0.0,0.0,0.0,0.0,0.0,0.0,0.0,0.0,0.0,0.0,0.0,0.0,0.0,0.0,0.0,0.0,0.0,0.0,0.0,0.0,0.0,0.0,0.0,0.0,0.0,0.0,0.0,0.0,0.0,0.0,0.0,0.0,0.0,0.0,0.0,0.0,0.0,0.0,0.0,0.0,0.0,0.0,0.0,0.0,0.0,0.0,0.0,0.0,0.0,0.0,0.0,0.0,0.0,0.0,0.0,0.0,0.0,0.0,0.0,0.0,0.0,0.0,0.0,0.0,0.0,0.0,0.0,0.0,0.0,0.0,0.0,0.0,0.0,0.0,0.0,0.0,0.0,0.0,0.0,0.0,0.0,0.0,0.0,0.0,0.0,0.0,0.0,0.0,0.0,0.0,0.0,0.0,0.0,0.0,0.0,0.0,0.0,0.0,0.0,0.0,0.0,0.0,0.0,0.0,0.0,0.0,0.0,0.0,0.0,0.0,0.0,0.0,0.0,0.0,0.0,0.0,0.0,0.0,0.0,0.0,0.0,0.0,0.0,0.0,0.0,0.0,0.0,0.0,0.0,0.0,0.0,0.0,0.0,0.0,0.0,0.0,0.0,0.0,0.0,0.0,0.0,0.0,0.0,0.0,0.0,0.0,0.0,0.0,0.0,0.0,0.0,0.0,0.0,0.0,0.0,0.0,0.0,0.0,0.0,0.0,0.0,0.0,0.0,0.0,0.0,0.0,0.0,0.0,0.0,0.0,0.0,0.0,0.0,0.0,0.0,0.0,0.0,0.0,0.0,0.0,0.0,0.0,0.0,0.0,0.0,0.0,0.0,0.0,0.0,0.0,0.0,0.0,0.0,0.0,0.0,0.0,0.0,0.0,0.0,0.0,0.0,0.0,0.0,0.0,0.0,0.0,0.0,0.0,0.0,0.0,0.0,0.0,0.0,0.0,0.0,0.0,0.0,0.0,0.0,0.0,0.0,0.0,0.0,0.0,0.0,0.0,0.0,0.0,0.0,0.0,0.0,0.0,0.0,0.0,0.0,0.0,0.0,0.0,0.0,0.0,0.0,0.0,0.0,0.0,0.0,0.0,0.0,0.0,0.0,0.0,0.0,0.0,0.0,0.0,0.0,0.0,0.0,0.0,0.0,0.0,0.0,0.0,0.0,0.0,0.0,0.0,0.0,0.0,0.0,0.0,0.0,0.0,0.0,0.0,0.0,0.0,0.0,0.0,0.0,0.0,0.0,0.0,0.0,0.0,0.0,0.0,0.0,0.0,0.0,0.0,0.0,0.0,0.0,0.0,0.0,0.0,0.0,0.0,0.0,0.0,0.0,0.0,0.0,0.0,0.0,0.0,0.0,0.0,0.0,0.0,0.0,0.0,0.0,0.0,0.0,0.0,0.0,0.0,0.0,0.0,0.0,0.0,0.0,0.0,0.0,0.0,0.0,0.0,0.0,0.0,0.0,0.0,0.0,0.0,0.0,0.0,0.0,0.0,0.0,0.0,0.0,0.0,0.0,0.0,0.0,0.0,0.0,0.0,0.0,0.0,0.0,0.0,0.0,0.0,0.0,0.0,0.0,0.0,0.0,0.0,0.0,0.0,0.0,0.0,0.0,0.0,0.0,0.0,0.0,0.0,0.0,0.0,0.0,0.0,0.0,0.0,0.0,0.0,0.0,0.0,0.0,0.0,0.0,0.0,0.0,0.0,0.0,0.0,0.0,0.0,0.0,0.0,0.0,0.0,0.0,0.0,0.0,0.0,0.0,0.0,0.0,0.0,0.0,0.0,0.0,0.0,0.0,0.0,0.0,0.0,0.0,0.0,0.0,0.0,0.0,0.0,0.0,0.0,0.0,0.0,0.0,0.0,0.0,0.0,0.0,0.0,0.0,0.0,0.0,0.0,0.0,0.0,0.0,0.0,0.0,0.0,0.0,0.0,0.0,0.0,0.0,0.0,0.0,0.0,0.0,0.0,0.0,0.0,0.0,0.0,0.0,0.0,0.0,0.0,0.0,0.0,0.0,0.0,0.0,0.0,0.0,0.0,0.0,0.0,0.0,0.0,0.0,0.0,0.0,0.0,0.0,0.0,0.0,0.0,0.0,0.0,0.0,0.0,0.0,0.0,0.0,0.0,0.0,0.0,0.0,0.0,0.0,0.0,0.0,0.0,0.0,0.0,0.0,0.0,0.0,0.0,0.0,0.0,0.0,0.0,0.0,0.0,0.0,0.0,0.0,0.0,0.0,0.0,0.0,0.0,0.0,0.0,0.0,0.0,0.0,0.0,0.0,0.0,0.0,0.0,0.0,0.0,0.0,0.0,0.0,0.0,0.0,0.0,0.0,0.0,0.0,0.0,0.0,0.0,0.0,0.0,0.0,0.0,0.0,0.0,0.0,0.0,0.0,0.0,0.0,0.0,0.0,0.0,0.0,0.0,0.0,0.0,0.0,0.0,0.0,0.0,0.0,0.0,0.0,0.0,0.0,0.0,0.0,0.0,0.0,0.0,0.0,0.0,0.0,0.0,0.0,0.0,0.0,0.0,0.0,0.0,0.0,0.0,0.0,0.0,0.0,0.0,0.0,0.0,0.0,0.0,0.0,0.0,0.0,0.0,0.0,0.0,0.0,0.0,0.0,0.0,0.0,0.0,0.0,0.0,0.0,0.0,0.0,0.0,0.0,0.0,0.0,0.0,0.0,0.0,0.0,0.0,0.0,0.0,0.0,0.0,0.0,0.0,0.0,0.0,0.0,0.0,0.0,0.0,0.0,0.0,0.0,0.0,0.0,0.0,0.0,0.0,0.0,0.0,0.0,0.0,0.0,0.0,0.0,0.0,0.0,0.0,0.0,0.0,0.0,0.0,0.0,0.0,0.0,0.0,0.0,0.0,0.0,0.0,0.0,0.0,0.0,0.0,0.0,0.0,0.0,0.0,0.0,0.0,0.0,0.0,0.0,0.0,0.0,0.0,0.0,0.0,0.0,0.0,0.0,0.0,0.0,0.0,0.0,0.0,0.0,0.0,0.0,0.0,0.0,0.0,0.0,0.0,0.0,0.0,0.0,0.0,0.0,0.0,0.0,0.0,0.0,0.0,0.0,0.0,0.0,0.0,0.0,0.0,0.0,0.0,0.0,0.0,0.0,0.0,0.0,0.0,0.0,0.0,0.0,0.0,0.0,0.0,0.0,0.0,0.0,0.0,0.0,0.0,0.0,0.0,0.0,0.0,0.0,0.0,0.0,0.0,0.0,0.0,0.0,0.0,0.0,0.0,0.0,0.0,0.0,0.0,0.0,0.0,0.0,0.0,0.0,0.0,0.0,0.0,0.0,0.0,0.0,0.0,0.0,0.0,0.0,0.0,0.0,0.0,0.0,0.0,0.0,0.0,0.0,0.0,0.0,0.0,0.0,0.0,0.0,0.0,0.0,0.0,0.0,0.0,0.0,0.0,0.0,0.0,0.0,0.0,0.0,0.0,0.0,0.0,0.0,0.0,0.0,0.0,0.0,0.0,0.0,0.0,0.0,0.0,0.0,0.0,0.0,0.0,0.0,0.0,0.0,0.0,0.0,0.0,0.0,0.0,0.0,0.0,0.0,0.0,0.0,0.0,0.0,0.0,0.0,0.0,0.0,0.0,0.0,0.0,0.0,0.0,0.0,0.0,0.0,0.0,0.0,0.0,0.0,0.0,0.0,0.0,0.0,0.0,0.0,0.0,0.0,0.0,0.0,0.0,0.0,0.0,0.0,0.0,0.0,0.0,0.0,0.0,0.0,0.0,0.0,0.0,0.0,0.0,0.0,0.0,0.0,0.0,0.0,0.0,0.0,0.0,0.0,0.0,0.0,0.0,0.0,0.0,0.0,0.0,0.0,0.0,0.0,0.0,0.0,0.0,0.0,0.0,0.0,0.0,0.0,0.0,0.0,0.0,0.0,0.0,0.0,0.0,0.0,0.0,0.0,0.0,0.0,0.0,0.0,0.0,0.0,0.0,0.0,0.0,0.0,0.0,0.0,0.0,0.0,0.0,0.0,0.0,0.0,0.0,0.0,0.0,0.0,0.0,0.0,0.0,0.0,0.0,0.0,0.0,0.0,0.0,0.0,0.0,0.0,0.0,0.0,0.0,0.0,0.0,0.0,0.0,0.0,0.0,0.0,0.0,0.0,0.0,0.0,0.0,0.0,0.0,0.0,0.0,0.0,0.0,0.0,0.0,0.0,0.0,0.0,0.0,0.0,0.0,0.0,0.0,0.0,0.0,0.0,0.474,0.0,0.0,0.0,0.0,0.0,0.0,0.0,0.0,0.0,0.0,0.0,0.0,0.0,0.0,0.0,0.0,0.0,0.0,0.0,0.0,0.0,0.0,0.0,0.0,0.0,0.0,0.0,0.0,0.0,0.0,0.0,0.0,0.0,0.0,0.0,0.0,0.0,0.0,0.0,0.0,0.0,0.0,0.0,0.0,0.0,0.0,0.0,0.0,0.0,0.0,0.0,0.0,0.0,0.0,0.0,0.0,0.0,0.0,0.0,0.0,0.0,0.0,0.0,0.0,0.0,0.0,0.0,0.0,0.0,0.0,0.0,0.0,0.0,0.0,0.0,0.0,0.0,0.0,0.0,0.0,0.0,0.0,0.0,0.0,0.0,0.0,0.0,0.0,0.0,0.0,0.0,0.0,0.0,0.0,0.0,0.0,0.0,0.0,0.0,0.0,0.0,0.0,0.0,0.0,0.0,0.0,0.0,0.0,0.0,0.0,0.4527,0.429,0.4858,0.4969,0.4592,0.0,0.0,0.0,0.0,0.0,0.0,0.0,0.0,0.0,0.0,0.0,0.0,0.0,0.0,0.0,0.0,0.0,0.0,0.0,0.0,0.0,0.0,0.0,0.0,0.0,0.0,0.0,0.0,0.0,0.0,0.0,0.0,0.0,0.0,0.0,0.0,0.0,0.0,0.0,0.0,0.0,0.0,0.0,0.0,0.0,0.0,0.0,0.0,0.0,0.0,0.0,0.0,0.0,0.0,0.0,0.0,0.0,0.0,0.0,0.0,0.0,0.0,0.0,0.0,0.0,0.0,0.0,0.0,0.0,0.0,0.0,0.0,0.0,0.0,0.0,0.0,0.0,0.0,0.0,0.0,0.0,0.0,0.0,0.0,0.0,0.0,0.0,0.0,0.0,0.0,0.0,0.0,0.0,0.0,0.0,0.0,0.0,0.0,0.0,0.0,0.0,0.0,0.0,0.0,0.0,0.0,0.0,0.0,0.0,0.0,0.0,0.0,0.3937,0.4381,0.4486,0.0,0.0,0.0,0.0,0.0,0.0,0.0,0.0,0.0,0.0,0.0,0.0,0.0,0.0,0.0,0.0,0.0,0.0,0.0,0.0,0.0,0.0,0.0,0.0,0.0,0.0,0.0,0.0,0.0,0.0,0.0,0.0,0.0,0.0,0.0,0.0,0.0,0.0,0.0,0.0,0.0,0.0,0.0,0.0,0.0,0.0,0.0,0.0,0.0,0.0,0.0,0.0,0.0,0.0,0.0,0.0,0.0,0.0,0.0,0.0,0.0,0.0,0.0,0.0,0.0,0.0,0.0,0.0,0.0,0.0,0.0,0.0,0.0,0.0,0.0,0.0,0.0,0.0,0.0,0.0,0.0,0.0,0.0,0.0,0.0,0.0,0.0,0.0,0.0,0.0,0.0,0.0,0.0,0.0,0.0,0.0,0.0,0.0,0.0,0.0,0.0,0.0,0.0,0.0,0.0,0.0,0.0,0.0,0.0,0.0,0.2229,0.1993,0.2799,0.0,0.4376,0.0,0.0,0.0,0.0,0.0,0.0,0.0,0.0,0.0,0.0,0.0,0.0,0.0,0.0,0.0,0.0,0.0,0.0,0.0,0.0,0.0,0.0,0.0,0.0,0.0,0.0,0.0,0.0,0.0,0.0,0.0,0.0,0.0,0.0,0.0,0.0,0.0,0.0,0.0,0.0,0.0,0.0,0.0,0.0,0.0,0.0,0.0,0.0,0.0,0.0,0.0,0.0,0.0,0.0,0.0,0.0,0.0,0.0,0.0,0.0,0.0,0.0,0.0,0.0,0.0,0.0,0.0,0.0,0.0,0.0,0.0,0.0,0.0,0.0,0.0,0.0,0.0,0.0,0.0,0.0,0.0,0.0,0.0,0.0,0.0,0.0,0.0,0.0,0.0,0.0,0.0,0.0,0.0,0.0,0.0,0.0,0.0,0.0,0.0,0.0,0.0,0.0,0.0,0.0,0.0,0.0,0.0,0.0,0.0,0.0,0.1044,0.0871,0.177,0.2729,0.0,0.0,0.0,0.0,0.0,0.0,0.0,0.0,0.0,0.0,0.0,0.0,0.0,0.0,0.0,0.0,0.0,0.0,0.0,0.0,0.0,0.0,0.0,0.0,0.0,0.0,0.0,0.0,0.0,0.0,0.0,0.0,0.0,0.0,0.0,0.0,0.0,0.0,0.0,0.0,0.0,0.0,0.0,0.0,0.0,0.0,0.0,0.0,0.0,0.0,0.0,0.0,0.0,0.0,0.0,0.0,0.0,0.0,0.0,0.0,0.0,0.0,0.0,0.0,0.0,0.0,0.0,0.0,0.0,0.0,0.0,0.0,0.0,0.0,0.0,0.0,0.0,0.0,0.0,0.0,0.0,0.0,0.0,0.0,0.0,0.0,0.0,0.0,0.0,0.0,0.0,0.0,0.0,0.0,0.0,0.0,0.0,0.0,0.0,0.0,0.0,0.0,0.0,0.0,0.0,0.0,0.0,0.0,0.0,0.0,-0.0077,0.0033,0.0163,0.0771,0.1698,0.2871,0.0,0.0,0.0,0.0,0.0,0.0,0.0,0.0,0.0,0.0,0.0,0.0,0.0,0.0,0.0,0.0,0.0,0.0,0.0,0.0,0.0,0.0,0.0,0.0,0.0,0.0,0.0,0.0,0.0,0.0,0.0,0.0,0.0,0.0,0.0,0.0,0.0,0.0,0.0,0.0,0.0,0.0,0.0,0.0,0.0,0.0,0.0,0.0,0.0,0.0,0.0,0.0,0.0,0.0,0.0,0.0,0.0,0.0,0.0,0.0,0.0,0.0,0.0,0.0,0.0,0.0,0.0,0.0,0.0,0.0,0.0,0.0,0.0,0.0,0.0,0.0,0.0,0.0,0.0,0.0,0.0,0.0,0.0,0.0,0.0,0.0,0.0,0.0,0.0,0.0,0.0,0.0,0.0,0.0,0.0,0.0,0.0,0.0,0.0,0.0,0.0,0.0,0.0,0.0,0.0,0.0,0.0,0.0,-0.1573,-0.1211,-0.0695,-0.004,-0.0194,0.0408,0.0,0.0,0.0,0.0,0.0,0.0,0.0,0.0,0.0,0.0,0.0,0.0,0.0,0.0,0.0,0.0,0.0,0.0,0.0,0.0,0.0,0.0,0.0,0.0,0.0,0.0,0.0,0.0,0.0,0.0,0.0,0.0,0.0,0.0,0.0,0.0,0.0,0.0,0.0,0.0,0.0,0.0,0.0,0.0,0.0,0.0,0.0,0.0,0.0,0.0,0.0,0.0,0.0,0.0,0.0,0.0,0.0,0.0,0.0,0.0,0.0,0.0,0.0,0.0,0.0,0.0,0.0,0.0,0.0,0.0,0.0,0.0,0.0,0.0,0.0,0.0,0.0,0.0,0.0,0.0,0.0,0.0,0.0,0.0,0.0,0.0,0.0,0.0,0.0,0.0,0.0,0.0,0.0,0.0,0.0,0.0,0.0,0.0,0.0,0.0,0.0,0.0,0.0,0.0,0.0,0.0,0.0,0.0,0.0,-0.1766,-0.1785,-0.146,-0.0757,-0.101,-0.0746,0.0,0.0,0.0,0.0,0.0,0.0,0.0,0.0,0.0,0.0,0.0,0.0,0.0,0.0,0.0,0.0,0.0,0.0,0.0,0.0,0.0,0.0,0.0,0.0,0.0,0.0,0.0,0.0,0.0,0.0,0.0,0.0,0.0,0.0,0.0,0.0,0.0,0.0,0.0,0.0,0.0,0.0,0.0,0.0,0.0,0.0,0.0,0.0,0.0,0.0,0.0,0.0,0.0,0.0,0.0,0.0,0.0,0.0,0.0,0.0,0.0,0.0,0.0,0.0,0.0,0.0,0.0,0.0,0.0,0.0,0.0,0.0,0.0,0.0,0.0,0.0,0.0,0.0,0.0,0.0,0.0,0.0,0.0,0.0,0.0,0.0,0.0,0.0,0.0,0.0,0.0,0.0,0.0,0.0,0.0,0.0,0.0,0.0,0.0,0.0,0.0,0.0,0.0,0.0,0.0,0.0,0.0,0.0,0.0,-0.22,0.0,-0.244,-0.1402,-0.1951,-0.1782,0.0,0.0,0.0,0.0,0.0,0.0,0.0,0.0,0.0,0.0,0.0,0.0,0.0,0.0,0.0,0.0,0.0,0.0,0.0,0.0,0.0,0.0,0.0,0.0,0.0,0.0,0.0,0.0,0.0,0.0,0.0,0.0,0.0,0.0,0.0,0.0,0.0,0.0,0.0,0.0,0.0,0.0,0.0,0.0,0.0,0.0,0.0,0.0,0.0,0.0,0.0,0.0,0.0,0.0,0.0,0.0,0.0,0.0,0.0,0.0,0.0,0.0,0.0,0.0,0.0,0.0,0.0,0.0,0.0,0.0,0.0,0.0,0.0,0.0,0.0,0.0,0.0,0.0,0.0,0.0,0.0,0.0,0.0,0.0,0.0,0.0,0.0,0.0,0.0,0.0,0.0,0.0,0.0,0.0,0.0,0.0,0.0,0.0,0.0,0.0,0.0,0.0,0.0,0.0,0.0,0.0,0.0,0.0,-0.2686,-0.3008,-0.3999,-0.362,-0.1918,-0.2961,-0.2629,0.0,0.0,0.0,0.0,0.0,0.0,0.0,0.0,0.0,0.0,0.0,0.0,0.0,0.0,0.0,0.0,0.0,0.0,0.0,0.0,0.0,0.0,0.0,0.0,0.0,0.0,0.0,0.0,0.0,0.0,0.0,0.0,0.0,0.0,0.0,0.0,0.0,0.0,0.0,0.0,0.0,0.0,0.0,0.0,0.0,0.0,0.0,0.0,0.0,0.0,0.0,0.0,0.0,0.0,0.0,0.0,0.0,0.0,0.0,0.0,0.0,0.0,0.0,0.0,0.0,0.0,0.0,0.0,0.0,0.0,0.0,0.0,0.0,0.0,0.0,0.0,0.0,0.0,0.0,0.0,0.0,0.0,0.0,0.0,0.0,0.0,0.0,0.0,0.0,0.0,0.0,0.0,0.0,0.0,0.0,0.0,0.0,0.0,0.0,0.0,0.0,0.0,0.0,0.0,0.0,0.0,0.0,0.0,0.0,-0.2642,-0.3452,-0.3552,-0.2797,-0.2699,-0.2454,0.0,0.0,0.0,0.0,0.0,0.0,0.0,0.0,0.0,0.0,0.0,0.0,0.0,0.0,0.0,0.0,0.0,0.0,0.0,0.0,0.0,0.0,0.0,0.0,0.0,0.0,0.0,0.0,0.0,0.0,0.0,0.0,0.0,0.0,0.0,0.0,0.0,0.0,0.0,0.0,0.0,0.0,0.0,0.0,0.0,0.0,0.0,0.0,0.0,0.0,0.0,0.0,0.0,0.0,0.0,0.0,0.0,0.0,0.0,0.0,0.0,0.0,0.0,0.0,0.0,0.0,0.0,0.0,0.0,0.0,0.0,0.0,0.0,0.0,0.0,0.0,0.0,0.0,0.0,0.0,0.0,0.0,0.0,0.0,0.0,0.0,0.0,0.0,0.0,0.0,0.0,0.0,0.0,0.0,0.0,0.0,0.0,0.0,0.0,0.0,0.0,0.0,0.0,0.0,0.0,0.0,0.0,0.0,0.0,-0.402,-0.4383,-0.4231,-0.3482,-0.2982,-0.2517,-0.207,0.0,0.0,0.0,0.0,0.0,0.0,0.0,0.0,0.0,0.0,0.0,0.0,0.0,0.0,0.0,0.0,0.0,0.0,0.0,0.0,0.0,0.0,0.0,0.0,0.0,0.0,0.0,0.0,0.0,0.0,0.0,0.0,0.0,0.0,0.0,0.0,0.0,0.0,0.0,0.0,0.0,0.0,0.0,0.0,0.0,0.0,0.0,0.0,0.0,0.0,0.0,0.0,0.0,0.0,0.0,0.0,0.0,0.0,0.0,0.0,0.0,0.0,0.0,0.0,0.0,0.0,0.0,0.0,0.0,0.0,0.0,0.0,0.0,0.0,0.0,0.0,0.0,0.0,0.0,0.0,0.0,0.0,0.0,0.0,0.0,0.0,0.0,0.0,0.0,0.0,0.0,0.0,0.0,0.0,0.0,0.0,0.0,0.0,0.0,0.0,0.0,0.0,0.0,0.0,0.0,0.0,0.0,0.0,-0.6694,-0.6467,-0.5621,-0.4112,-0.372,-0.2759,0.0,0.0,0.0,0.0,0.0,0.0,0.0,0.0,0.0,0.0,0.0,0.0,0.0,0.0,0.0,0.0,0.0,0.0,0.0,0.0,0.0,0.0,0.0,0.0,0.0,0.0,0.0,0.0,0.0,0.0,0.0,0.0,0.0,0.0,0.0,0.0,0.0,0.0,0.0,0.0,0.0,0.0,0.0,0.0,0.0,0.0,0.0,0.0,0.0,0.0,0.0,0.0,0.0,0.0,0.0,0.0,0.0,0.0,0.0,0.0,0.0,0.0,0.0,0.0,0.0,0.0,0.0,0.0,0.0,0.0,0.0,0.0,0.0,0.0,0.0,0.0,0.0,0.0,0.0,0.0,0.0,0.0,0.0,0.0,0.0,0.0,0.0,0.0,0.0,0.0,0.0,0.0,0.0,0.0,0.0,0.0,0.0,0.0,0.0,0.0,0.0,0.0,0.0,0.0,0.0,0.0,0.0,0.0,0.0,-0.7671,-0.7293,-0.659,-0.5605,-0.3785,-0.2574,0.0,0.0,0.0,0.0,0.0,0.0,0.0,0.0,0.0,0.0,0.0,0.0,0.0,0.0,0.0,0.0,0.0,0.0,0.0,0.0,0.0,0.0,0.0,0.0,0.0,0.0,0.0,0.0,0.0,0.0,0.0,0.0,0.0,0.0,0.0,0.0,0.0,0.0,0.0,0.0,0.0,0.0,0.0,0.0,0.0,0.0,0.0,0.0,0.0,0.0,0.0,0.0,0.0,0.0,0.0,0.0,0.0,0.0,0.0,0.0,0.0,0.0,0.0,0.0,0.0,0.0,0.0,0.0,0.0,0.0,0.0,0.0,0.0,0.0,0.0,0.0,0.0,0.0,0.0,0.0,0.0,0.0,0.0,0.0,0.0,0.0,0.0,0.0,0.0,0.0,0.0,0.0,0.0,0.0,0.0,0.0,0.0,0.0,0.0,0.0,0.0,0.0,0.0,0.0,0.0,0.0,0.0,0.0,-0.6722,-0.8202,-0.7955,-0.7576,-0.7171,-0.4858,-0.3227,0.0,0.0,0.0,0.0,0.0,0.0,0.0,0.0,0.0,0.0,0.0,0.0,0.0,0.0,0.0,0.0,0.0,0.0,0.0,0.0,0.0,0.0,0.0,0.0,0.0,0.0,0.0,0.0,0.0,0.0,0.0,0.0,0.0,0.0,0.0,0.0,0.0,0.0,0.0,0.0,0.0,0.0,0.0,0.0,0.0,0.0,0.0,0.0,0.0,0.0,0.0,0.0,0.0,0.0,0.0,0.0,0.0,0.0,0.0,0.0,0.0,0.0,0.0,0.0,0.0,0.0,0.0,0.0,0.0,0.0,0.0,0.0,0.0,0.0,0.0,0.0,0.0,0.0,0.0,0.0,0.0,0.0,0.0,0.0,0.0,0.0,0.0,0.0,0.0,0.0,0.0,0.0,0.0,0.0,0.0,0.0,0.0,0.0,0.0,0.0,0.0,0.0,0.0,0.0,0.0,0.0,0.0,0.0,-0.7559,-0.8321,-0.8517,-0.8562,-0.8497,-0.6337,-0.4337,0.0,0.0,0.0,0.0,0.0,0.0,0.0,0.0,0.0,0.0,0.0,0.0,0.0,0.0,0.0,0.0,0.0,0.0,0.0,0.0,0.0,0.0,0.0,0.0,0.0,0.0,0.0,0.0,0.0,0.0,0.0,0.0,0.0,0.0,0.0,0.0,0.0,0.0,0.0,0.0,0.0,0.0,0.0,0.0,0.0,0.0,0.0,0.0,0.0,0.0,0.0,0.0,0.0,0.0,0.0,0.0,0.0,0.0,0.0,0.0,0.0,0.0,0.0,0.0,0.0,0.0,0.0,0.0,0.0,0.0,0.0,0.0,0.0,0.0,0.0,0.0,0.0,0.0,0.0,0.0,0.0,0.0,0.0,0.0,0.0,0.0,0.0,0.0,0.0,0.0,0.0,0.0,0.0,0.0,0.0,0.0,0.0,0.0,0.0,0.0,0.0,0.0,0.0,0.0,0.0,0.0,0.0,0.0,-0.7907,-0.8587,-0.8962,-0.9022,-0.88,-0.675,-0.4986,0.0,0.0,0.0,0.0,0.0,0.0,0.0,0.0,0.0,0.0,0.0,0.0,0.0,0.0,0.0,0.0,0.0,0.0,0.0,0.0,0.0,0.0,0.0,0.0,0.0,0.0,0.0,0.0,0.0,0.0,0.0,0.0,0.0,0.0,0.0,0.0,0.0,0.0,0.0,0.0,0.0,0.0,0.0,0.0,0.0,0.0,0.0,0.0,0.6814,0.0,0.0,0.0,0.0,0.0,0.0,0.0,0.0,0.0,0.0,0.0,0.0,0.0,0.0,0.0,0.0,0.0,0.0,0.0,0.0,0.0,0.0,0.0,0.0,0.0,0.0,0.0,0.0,0.0,0.0,0.0,0.0,0.0,0.0,0.0,0.0,0.0,0.0,0.0,0.0,0.0,0.0,0.0,0.0,0.0,0.0,0.0,0.0,0.0,0.0,0.0,0.0,0.0,0.0,0.0,0.0,0.0,0.0,0.0,-0.842,-0.8555,-0.8925,-0.9101,-0.9064,-0.7626,-0.5941,0.0,0.0,0.0,0.0,0.0,0.0,0.0,0.0,0.0,0.0,0.0,0.0,0.0,0.0,0.0,0.0,0.0,0.0,0.0,0.0,0.0,0.0,0.0,0.0,0.0,0.0,0.0,0.0,0.0,0.0,0.0,0.0,0.0,0.0,0.0,0.0,0.0,0.0,0.0,0.0,0.0,0.0,0.0,0.0,0.0,0.0,0.0,0.0,0.0,0.0,0.0,0.0,0.0,0.0,0.0,0.0,0.0,0.0,0.0,0.0,0.0,0.0,0.0,0.0,0.0,0.0,0.0,0.0,0.0,0.0,0.0,0.0,0.0,0.0,0.0,0.0,0.0,0.0,0.0,0.0,0.0,0.0,0.0,0.0,0.0,0.0,0.0,0.0,0.0,0.0,0.0,0.0,0.0,0.0,0.0,0.0,0.0,0.0,0.0,0.0,0.0,0.0,0.0,0.0,0.0,0.0,0.0,-0.812,-0.8809,-0.8486,-0.8837,-0.9158,-0.9386,-0.8512,-0.6868,-0.4351,0.0,0.0,0.0,0.0,0.0,0.0,0.0,0.0,0.0,0.0,0.0,0.0,0.0,0.0,0.0,0.0,0.0,0.0,0.0,0.0,0.0,0.0,0.0,0.0,0.0,0.0,0.0,0.0,0.0,0.0,0.0,0.0,0.0,0.0,0.0,0.0,0.0,0.0,-0.0396,-0.0093,0.0,0.0,0.0,0.0,0.0,0.0,0.0,0.0,0.571,0.0,0.0,0.0,0.0,0.0,0.0,0.0,0.0,0.0,0.0,0.0,0.0,0.0,0.0,0.0,0.0,0.0,0.0,0.0,0.0,0.0,0.0,0.0,0.0,0.0,0.0,0.0,0.0,0.0,0.0,0.0,0.0,0.0,0.0,0.0,0.0,0.0,0.0,0.0,0.0,0.0,0.0,0.0,0.0,0.0,0.0,0.0,0.0,0.0,0.0,0.0,0.0,0.0,0.0,0.0,0.0,-0.6887,-0.7975,-0.8574,-0.8657,-0.9359,-0.9631,-0.9398,-0.8662,-0.7052,-0.4559,0.0,0.0,0.0,0.0,0.0,0.0,0.0,0.0,0.0,0.0,0.0,0.0,0.0,0.0,0.0,0.0,0.0,0.0,0.0,0.0,0.0,0.0,0.0,0.0,0.0,0.0,0.0,0.0,0.0,0.0,0.0,0.0,0.0,0.0,0.0,0.0,0.0,0.0,0.0,-0.1129,-0.0188,0.0,0.0,0.0,0.0,0.0,0.0,0.0,0.0,0.4617,0.0,0.0,0.0,0.0,0.0,0.0,0.0,0.0,0.0,0.0,0.0,0.0,0.0,0.0,0.0,0.0,0.0,0.0,0.0,0.0,0.0,0.0,0.0,0.0,0.0,0.0,0.0,0.0,0.0,0.0,0.0,0.0,0.0,0.0,0.0,0.0,0.0,0.0,0.0,0.0,0.0,0.0,0.0,0.0,0.0,0.0,0.0,0.0,0.0,0.0,0.0,0.0,0.0,0.0,0.0,-0.7549,-0.8243,-0.8618,-0.8608,-0.8982,-0.9037,-0.8723,-0.8038,-0.6569,0.0,0.0,0.0,0.0,0.0,0.0,0.0,0.0,0.0,0.0,0.0,0.0,0.0,0.0,0.0,0.0,0.0,0.0,0.0,0.0,0.0,0.0,0.0,0.0,0.0,0.0,0.0,0.0,0.0,0.0,0.0,0.0,0.0,0.0,0.0,0.0,0.0,0.0,0.0,0.0,-0.146,-0.0964,0.0781,0.0,0.0,0.0,0.0,0.0,0.0,0.3691,0.356,0.0,0.0,0.0,0.0,0.0,0.0,0.0,0.0,0.0,0.0,0.0,0.0,0.0,0.0,0.0,0.0,0.0,0.0,0.0,0.0,0.0,0.0,0.0,0.0,0.0,0.0,0.0,0.0,0.0,0.0,0.0,0.0,0.0,0.0,0.0,0.0,0.0,0.0,0.0,0.0,0.0,0.0,0.0,0.0,0.0,0.0,0.0,0.0,0.0,0.0,0.0,0.0,0.0,0.0,0.0,-0.7918,-0.8195,-0.8357,-0.8347,-0.8354,-0.8197,-0.7871,-0.719,-0.5817,0.0,0.0,0.0,0.0,0.0,0.0,0.0,0.0,0.0,0.0,0.0,0.0,0.0,0.0,0.0,0.0,0.0,0.0,0.0,0.0,0.0,0.0,0.0,0.0,0.0,0.0,0.0,0.0,0.0,0.0,0.0,0.0,0.0,0.0,0.0,0.0,0.0,0.0,0.0,0.0,0.0,-0.1281,0.0702,0.0149,0.0,0.0,0.0,0.0,0.3272,0.2859,0.0,0.0,0.0,0.0,0.0,0.0,0.0,0.0,0.0,0.0,0.0,0.0,0.0,0.0,0.0,0.0,0.0,0.0,0.0,0.0,0.0,0.0,0.0,0.0,0.0,0.0,0.0,0.0,0.0,0.0,0.0,0.0,0.0,0.0,0.0,0.0,0.0,0.0,0.0,0.0,0.0,0.0,0.0,0.0,0.0,0.0,0.0,0.0,0.0,0.0,0.0,0.0,0.0,0.0,0.0,0.0,-0.7605,-0.714,-0.7147,-0.7765,-0.7809,-0.756,-0.7039,-0.6287,-0.5022,0.0,0.0,0.0,0.0,0.0,0.0,0.0,0.0,0.0,0.0,0.0,0.0,0.0,0.0,0.0,0.0,0.0,0.0,0.0,0.0,0.0,0.0,0.0,0.0,0.0,0.0,0.0,0.0,0.0,0.0,0.0,0.0,0.0,0.0,0.0,0.0,0.0,0.0,0.0,0.0,0.0,-0.0816,-0.0128,-0.0243,0.0198,0.0,0.0,0.1054,0.34,0.3143,0.0,0.0,0.0,0.0,0.0,0.0,0.0,0.0,0.0,0.0,0.0,0.0,0.0,0.0,0.0,0.0,0.0,0.0,0.0,0.0,0.0,0.0,0.0,0.0,0.0,0.0,0.0,0.0,0.0,0.0,0.0,0.0,0.0,0.0,0.0,0.0,0.0,0.0,0.0,0.0,0.0,0.0,0.0,0.0,0.0,0.0,0.0,0.0,0.0,0.0,0.0,0.0,0.0,0.0,0.0,-0.6688,-0.7325,-0.6908,-0.6843,-0.7223,-0.7242,-0.699,-0.6459,-0.5829,-0.4633,0.0,0.0,0.0,0.0,0.0,0.0,0.0,0.0,0.0,0.0,0.0,0.0,0.0,0.0,0.0,0.0,0.0,0.0,0.0,0.0,0.0,0.0,0.0,0.0,0.0,0.0,0.0,0.0,0.0,0.0,0.0,0.0,0.0,0.0,0.0,0.0,0.0,0.0,0.0,0.0,0.0,0.0,0.0281,0.012,0.0,0.0,0.0,0.2041,0.3371,0.0,0.0,0.0,0.0,0.0,0.0,0.0,0.0,0.0,0.0,0.0,0.0,0.0,0.0,0.0,0.0,0.0,0.0,0.0,0.0,0.0,0.0,0.0,0.0,0.0,0.0,0.0,0.0,0.0,0.0,0.0,0.0,0.0,0.0,0.0,0.0,0.0,0.0,0.0,0.0,0.0,0.0,0.0,0.0,0.0,0.0,0.0,0.0,0.0,0.0,0.0,0.0,0.0,0.0,0.0,0.0,0.0,-0.7082,-0.6692,-0.6519,-0.6602,-0.6579,-0.6332,-0.58,-0.5351,0.0,0.0,0.0,0.0,0.0,0.0,0.0,0.0,0.0,0.0,0.0,0.0,0.0,0.0,0.0,0.0,0.0,0.0,0.0,0.0,0.0,0.0,0.0,0.0,0.0,0.0,0.0,0.0043,0.0,0.0,0.0,0.0,0.0,0.0,0.0,0.0,0.0,0.0,0.0,0.0,0.0,0.0,-0.0146,0.0246,0.038,0.1007,0.0,0.0,0.2857,0.3438,0.4109,0.4669,0.0,0.0,0.0,0.0,0.0,0.0,0.0,0.0,0.0,0.0,0.0,0.0,0.0,0.0,0.0,0.0,0.0,0.0,0.0,0.0,0.0,0.0,0.0,0.0,0.0,0.0,0.0,0.0,0.0,0.0,0.0,0.0,0.0,0.0,0.0,0.0,0.0,0.0,0.0,0.0,0.0,0.0,0.0,0.0,0.0,0.0,0.0,0.0,0.0,0.0,0.0,0.0,0.0,0.0,-0.6354,-0.6786,-0.6257,-0.5912,-0.579,-0.5771,-0.549,-0.4908,-0.474,-0.3797,0.0,0.0,0.0,0.0,0.0,0.0,0.0,0.0,0.0,0.0,0.0,0.0,0.0,0.0,0.0,0.0,0.0,0.0,0.0,0.0,0.0,0.0,0.0,0.0,0.0,0.0,0.0,0.0,0.0,0.0,0.0,0.0,0.0,0.0,0.0,0.0,0.0,0.0,0.0,0.0,0.0,-0.0213,-0.0954,0.0198,0.1154,0.0,0.0,0.2821,0.3729,0.4687,0.5376,0.5422,0.0,0.0,0.0,0.0,0.0,0.0,0.0,0.0,0.0,0.0,0.0,0.0,0.0,0.0,0.0,0.0,0.0,0.0,0.0,0.0,0.0,0.0,0.0,0.0,0.0,0.0,0.0,0.0,0.0,0.0,0.0,0.0,0.0,0.0,0.0,0.0,0.0,0.0,0.0,0.0,0.0,0.0,0.0,0.0,0.0,0.0,0.0,0.0,0.0,0.0,0.0,0.0,0.0,-0.6249,-0.6535,-0.6035,-0.5709,-0.5542,-0.5524,-0.5277,-0.4741,-0.4004,-0.3042,0.0,0.0,0.0,0.0,0.0,0.0,0.0,0.0,0.0,0.0,0.0,0.0,0.0,0.0,0.0,0.0,0.0,0.0,0.0,0.0,0.0,0.0,0.0,0.0,0.0,0.0,0.0,0.0,0.1842,0.2384,0.3087,0.0,0.0,0.0,0.0,0.0,0.0,0.0,0.0,0.0,0.0,0.1254,0.0664,0.1635,0.0,0.0,0.277,0.3283,0.371,0.434,0.4823,0.4988,0.4435,0.0,0.0,0.0,0.0,0.0,0.0,0.0,0.0,0.0,0.0,0.0,0.0,0.0,0.0,0.0,0.0,0.0,0.0,0.0,0.0,0.0,0.0,0.0,0.0,0.0,0.0,0.0,0.0,0.0,0.0,0.0,0.0,0.0,0.0,0.0,0.0,0.0,0.0,0.0,0.0,0.0,0.0,0.0,0.0,0.0,0.0,0.0,0.0,0.0,0.0,0.0,0.0,-0.5988,-0.6308,-0.5856,-0.5508,-0.528,-0.5183,-0.4837,-0.417,-0.3424,-0.2486,0.0,0.0,0.0,0.0,0.0,0.0,0.0,0.0,0.0,0.0,0.0,0.0,0.0,0.0,0.0,0.0,0.0,0.0,0.0,0.0,0.0,0.0,0.0,0.0,0.0,0.0,0.0,0.0,0.2175,0.2551,0.2636,0.0,0.0,0.0,0.0,0.0,0.0,0.0,0.0,0.0,0.0,0.191,0.1236,0.229,0.3026,0.2688,0.3255,0.3792,0.3987,0.4362,0.4644,0.469,0.0,0.0,0.0,0.0,0.0,0.0,0.0,0.0,0.0,0.0,0.0,0.0,0.0,0.0,0.0,0.0,0.0,0.0,0.0,0.0,0.0,0.0,0.0,0.0,0.0,0.0,0.0,0.0,0.0,0.0,-0.9064,0.0,0.0,0.0,0.0,0.0,0.0,0.0,0.0,0.0,0.0,0.0,0.0,0.0,0.0,0.0,0.0,0.0,0.0,0.0,0.0,0.0,0.0,-0.5524,-0.609,-0.5671,-0.528,-0.5026,-0.4695,-0.4039,-0.3039,-0.3036,-0.2288,-0.0568,0.0,0.0,0.0,0.0,0.0,0.0,0.0,0.0,0.0,0.0,0.0,0.0,0.0,0.0,0.0,0.0,0.0,0.0,0.0,0.0,0.0,0.0,0.0,0.0,0.0,0.0,0.1452,0.2385,0.2646,0.0,0.0,0.0,0.0,0.0,0.0,0.0,0.0,0.0,0.0,0.1504,0.14,0.0123,0.1676,0.2682,0.1715,0.3098,0.4325,0.4549,0.4901,0.5071,0.0,0.0,0.0,0.0,0.0,0.0,0.0,0.0,0.0,0.0,0.0,0.0,0.0,0.0,0.0,0.0,0.0,0.0,0.0,0.0,0.0,0.0,0.0,0.0,0.0,0.0,0.0,-0.9319,-0.8698,0.0,0.0,0.0,0.0,0.0,0.0,0.0,0.0,0.0,0.0,0.0,-0.7414,-0.6853,0.0,0.0,0.0,0.0,0.0,0.0,0.0,0.0,0.0,0.0,0.0,0.0,-0.5913,-0.6129,-0.5788,-0.5449,-0.5148,-0.5026,-0.4415,-0.3249,-0.2674,-0.1594,0.0039,0.0,0.0,0.0,0.0,0.0,0.0,0.0,0.0,0.0,0.0,0.0,0.0,0.0,0.0,0.0,0.0,0.0,0.0,0.0,0.0,0.0,0.0,0.0,0.0,0.0,0.0865,0.0,0.0,0.0,0.0,0.0,0.0,0.0,0.0,0.0,0.0,0.0,0.0196,0.1242,0.2067,0.2424,0.2037,0.2485,0.2699,0.0,0.0,0.0,0.0,0.0,0.0,0.0,0.0,0.0,0.0,0.0,0.0,0.0,0.0,0.5083,0.5194,0.5411,0.5467,0.5137,0.0,0.0,0.0,0.0,0.0,0.0,0.0,0.0,0.0,0.0,0.0,0.0,0.0,0.0,-0.9151,0.0,-0.8311,0.0,0.0,0.0,0.0,0.0,0.0,0.0,0.0,-0.8011,-0.7758,-0.7505,-0.6977,-0.6637,0.0,-0.5936,-0.5244,0.0,0.0,0.0,0.0,0.0,0.0,0.0,0.0,-0.5696,-0.5836,-0.56,-0.5372,-0.5201,-0.4763,-0.4055,-0.3001,-0.1888,-0.0849,0.0081,0.0058,0.0037,0.0,0.0,0.0,0.0,0.0,0.0,0.0,0.0,0.0,0.0,0.0,0.0,0.0,0.0,0.0,0.0,0.0,0.0,0.0,0.0,0.0,0.0,0.0,0.1278,0.0,0.0,0.0,0.0,0.0,0.0,0.0,0.0,0.0,-0.0467,-0.0077,0.0655,0.164,0.2393,0.2826,0.2795,0.0,0.0,0.0,0.0,0.0,0.0,0.0,0.2867,0.3323,0.3025,0.3031,0.3942,0.415,0.4185,0.4185,0.0,0.0,0.4838,0.5092,0.5173,0.4828,0.4614,0.4496,0.4548,0.4744,0.5273,0.0,0.0,0.0,0.0,0.0,0.0,0.0,0.0,-0.9862,-0.92,0.0,-0.8781,0.0,0.0,0.0,0.0,0.0,-0.9574,0.0,0.0,-0.8948,-0.888,-0.7685,-0.7442,-0.7269,-0.7096,-0.6526,-0.6095,-0.5755,-0.4871,0.0,0.0,0.0,0.0,0.0,0.0,-0.4876,-0.5218,-0.5062,-0.503,-0.5116,-0.3944,-0.2951,-0.2172,-0.0776,-0.0147,-0.0379,-0.0577,-0.0504,-0.0138,0.0472,0.0,0.0,0.0,0.0,0.0,0.0,0.0,0.0,0.0,0.0,0.0,0.0,0.0,0.0,0.0,0.0,0.0,0.0,0.0,0.0,0.169,0.0,0.0,0.0,0.0,0.0,0.0,0.0,0.0,0.0,0.0,0.0209,0.0625,0.127,0.2012,0.0,0.0,0.0,0.0,0.2361,0.2397,0.2814,0.3204,0.3518,0.3425,0.3416,0.3735,0.0,0.0,0.3472,0.3715,0.3867,0.3864,0.4108,0.4336,0.4658,0.5056,0.5363,0.545,0.5039,0.4748,0.4734,0.4444,0.4506,-1.5234,0.0,0.0,0.0,0.0,-1.1304,-1.0741,-1.0775,-1.0052,-0.9291,-0.8557,-0.812,0.0,0.0,0.0,0.0,0.0,0.0,-0.876,-0.8344,-0.8418,-0.8374,-0.826,-0.8285,-0.8104,-0.7724,-0.7142,-0.6637,-0.6207,-0.561,-0.4983,-0.4337,0.0,0.0,0.0,0.0,-0.5119,-0.5479,-0.4768,-0.4378,-0.4421,-0.3395,-0.2442,-0.156,-0.0724,-0.0337,-0.04,-0.0582,-0.0639,-0.0505,0.0331,0.0,0.0,0.0,0.0,0.0,0.0,0.0,0.0,0.0,0.0,0.0,0.0,0.0,0.0,0.0,0.0,0.0,0.0,0.0,0.256,0.2635,0.2412,0.0,0.0,0.0,0.0,0.0,0.0,0.0,0.0,0.0,0.1548,0.112,0.1242,0.0,0.0,0.2603,0.2517,0.2598,0.2695,0.2754,0.3068,0.0,0.3502,0.3582,0.3684,0.3774,0.3837,0.3932,0.4164,0.4445,0.4667,0.4696,0.479,0.4887,0.499,0.4874,0.4778,0.4785,0.4702,0.4625,0.4619,0.4564,0.4825,-1.6373,-1.4805,-1.3284,-1.2725,-1.2747,-1.1265,-1.0792,-1.098,-1.0147,-0.9412,-0.8781,-0.8401,-0.8165,-0.8047,-0.7915,0.0,0.0,0.0,-0.8387,-0.8368,-0.8061,-0.806,-0.8287,-0.8398,-0.8232,-0.7816,-0.7339,-0.688,-0.6501,-0.5907,-0.5383,-0.4917,0.0,0.0,-0.4786,-0.4975,-0.5033,-0.494,-0.4431,-0.4005,-0.365,-0.2879,-0.1983,-0.0969,-0.0747,-0.0655,-0.0683,-0.0859,-0.0947,-0.0848,-0.0289,0.0332,0.0,0.0,0.0,0.0,0.0,0.0,0.0,0.0,0.0,0.0,0.0,0.1136,0.0955,0.0,0.0,0.0,0.2722,0.3258,0.3861,0.3182,0.0,0.0,0.0,0.0,0.0,0.0,0.0,0.2005,0.2753,0.3091,0.2535,0.1905,0.1619,0.1917,0.2142,0.227,0.2251,0.0,0.2477,0.271,0.2944,0.3144,0.3323,0.3444,0.362,0.3919,0.4199,0.4491,0.4698,0.4916,0.5043,0.5069,0.511,0.5151,0.518,0.5013,0.4875,0.4847,0.4884,0.4917,0.4921,0.4961,0.5205,-1.636,-1.5534,-1.3055,-1.219,-1.2324,-1.1009,-1.0852,-1.1415,-1.0178,-0.9578,-0.9458,-0.9274,-0.8886,-0.8315,-0.8369,0.0,-0.7654,-0.8163,-0.8259,-0.8011,-0.7884,-0.7898,-0.7986,-0.7992,-0.7859,-0.7557,-0.7263,-0.6936,-0.6651,-0.5924,-0.5551,-0.5502,-0.5399,-0.5241,-0.5024,-0.504,-0.4624,-0.3741,-0.3939,-0.3656,-0.2833,-0.227,-0.1493,-0.0463,-0.0801,-0.1045,-0.1109,-0.1287,-0.1323,-0.1142,-0.1102,-0.0614,0.0384,0.0,0.0,0.0,0.0,0.0,0.0,0.0,0.0,0.0,0.0,0.0,0.0,0.0,0.0,0.0,0.3766,0.0,0.4986,0.3323,0.0,0.0,0.0,0.0449,0.0588,0.168,0.2319,0.2018,0.0,0.0,0.3125,0.2696,0.2143,0.147,0.1644,0.1815,0.1768,0.181,0.1982,0.2469,0.2578,0.2771,0.314,0.3239,0.3486,0.4138,0.4442,0.4732,0.5028,0.5106,0.5132,0.5169,0.5218,0.5267,0.5267,0.5396,0.5493,0.5465,0.5437,0.5386,0.5386,0.5422,0.5506,-1.4841,-1.4397,-1.2142,-1.1823,-1.2709,-1.1251,-1.0727,-1.0869,-1.0355,-1.0063,-0.99,-0.9526,-0.8982,-0.8384,-0.831,-0.8181,-0.8056,-0.819,-0.8204,-0.8152,-0.8029,-0.7962,-0.7992,-0.7992,-0.7792,-0.7442,-0.722,-0.6876,-0.6481,-0.6217,-0.5886,-0.5486,-0.5079,-0.4613,-0.4129,-0.4045,-0.3646,-0.2968,-0.2491,-0.1926,-0.126,-0.1094,-0.0884,-0.0653,-0.0921,-0.1082,-0.111,-0.1287,-0.1391,-0.1323,-0.1194,-0.0793,-0.0061,-0.0271,0.0,0.0,0.0,0.0,0.0,0.0,0.0,0.0,0.0,0.093,0.1704,0.0,0.2617,0.0,0.307,0.3336,0.3486,0.272,0.0,0.0,0.1038,0.0697,0.1409,0.1646,0.201,0.2741,0.285,0.2788,0.262,0.2474,0.2097,0.1306,0.1659,0.2024,0.2081,0.2089,0.2222,0.2477,0.2637,0.2922,0.3356,0.3717,0.3994,0.4504,0.4624,0.4836,0.5233,0.5316,0.5357,0.5451,0.5674,0.5795,0.581,0.5952,0.6079,0.6051,0.5717,0.5465,0.5656,0.5712,0.5796,-1.3161,-1.2774,-1.1446,-1.1305,-1.1922,-1.1043,-1.0717,-1.0697,-1.0473,-1.0226,-0.9933,-0.9416,-0.8922,-0.8488,-0.8419,-0.8302,-0.8199,-0.8079,-0.7992,-0.7933,-0.7744,-0.7626,-0.7654,-0.7654,-0.7451,-0.7134,-0.6974,-0.6712,-0.6355,-0.6253,-0.5823,-0.5065,-0.4754,-0.3976,-0.2782,-0.3117,-0.2953,-0.2274,-0.1656,-0.1127,-0.0713,-0.0901,-0.0957,-0.0843,-0.1077,-0.1177,-0.1187,-0.1306,-0.1341,-0.1354,-0.1247,-0.0993,-0.0549,-0.0624,-0.0513,0.0,0.0,0.0,0.0,0.0,0.0,0.0,0.0,0.0,0.0,0.0,0.2715,0.2902,0.2992,0.3019,0.3001,0.2414,0.2053,0.2093,0.1373,0.1136,0.179,0.1829,0.1957,0.2344,0.2366,0.2272,0.2039,0.1901,0.1725,0.1395,0.1588,0.1698,0.157,0.1542,0.1661,0.1934,0.2031,0.2222,0.266,0.3101,0.3563,0.4046,0.4387,0.4781,0.5436,0.5577,0.5667,0.5842,0.6028,0.6134,0.6129,0.6205,0.6274,0.6274,0.6135,0.6023,0.6019,0.6019,0.6102,-1.1678,-1.1213,-1.0948,-1.0766,-1.0645,-1.0598,-1.0565,-1.0584,-1.0383,-1.0068,-0.9633,-0.9069,-0.8727,-0.8588,-0.8522,-0.836,-0.8133,-0.7881,-0.7692,-0.7549,-0.7304,-0.721,-0.721,-0.721,-0.7068,-0.6828,-0.6719,-0.6475,-0.6161,-0.6029,-0.5398,-0.43,-0.4183,-0.3219,-0.1472,-0.2137,-0.2199,-0.153,-0.1152,-0.0888,-0.0761,-0.1183,-0.1266,-0.1053,-0.1195,-0.1287,-0.1272,-0.1295,-0.1288,-0.1249,-0.1255,-0.1138,-0.0878,-0.0768,-0.0641,0.0,-0.0334,0.0,0.0,0.0,0.0,0.0,0.0,0.0,0.0,0.1815,0.2494,0.3043,0.3092,0.3052,0.2926,0.2302,0.2108,0.252,0.1949,0.159,0.184,0.1951,0.1871,0.1511,0.1639,0.166,0.1576,0.1302,0.131,0.1541,0.1463,0.1211,0.0852,0.093,0.1117,0.1225,0.1292,0.1619,0.1892,0.2297,0.2904,0.3548,0.4112,0.4742,0.5661,0.5818,0.5906,0.6233,0.6355,0.6387,0.6405,0.6456,0.6497,0.6609,0.6743,0.6771,0.652,0.6497,0.6469,-1.1562,-1.1286,-1.0742,-1.0481,-1.0415,-1.0071,-0.9926,-0.9922,-0.9418,-0.9105,-0.889,-0.8617,-0.8477,-0.8423,-0.8143,-0.7944,-0.7775,-0.7617,-0.7473,-0.7358,-0.7254,-0.721,-0.721,-0.721,-0.7111,-0.698,-0.6926,-0.6361,-0.5252,-0.5338,-0.4582,-0.3062,-0.2553,-0.1923,-0.1178,0.0,0.0,0.0,-0.073,-0.085,-0.1029,-0.121,-0.1311,-0.1242,-0.1277,0.0,-0.1224,-0.1282,-0.1189,-0.0981,-0.1018,0.0,0.0,0.0,0.0,0.0,0.0,0.0,0.0,0.0,0.0,0.0,0.035,0.0553,0.087,0.1562,0.2144,0.2512,0.2502,0.2469,0.2424,0.25,0.2576,0.2644,0.198,0.1535,0.162,0.1317,0.1132,0.1311,0.1366,0.1447,0.1615,0.1616,0.1521,0.141,0.1333,0.1173,0.0906,0.1238,0.1512,0.1618,0.1705,0.201,0.2362,0.2694,0.3256,0.408,0.4376,0.4851,0.5738,0.5991,0.6084,0.6426,0.6599,0.6819,0.7069,0.7225,0.7382,0.7632,0.7709,0.7604,0.7127,0.7188,0.741,-1.1087,0.0,-1.0355,-1.0046,0.0,-0.9489,-0.9278,-0.9239,-0.9136,-0.8878,-0.8545,-0.8276,-0.8152,-0.8147,-0.7903,-0.7725,-0.7606,-0.7481,-0.737,-0.73,-0.7237,-0.7215,-0.7241,-0.7209,-0.6814,-0.6112,-0.6135,-0.5428,-0.4166,-0.4171,-0.3491,-0.2183,-0.185,-0.1315,-0.0563,-0.0182,-0.0065,-0.0203,-0.049,-0.0688,-0.076,-0.1055,-0.1208,-0.1173,-0.1277,0.0,0.0,0.0,0.0,0.0,0.0,0.0,0.0,-0.0551,0.0,-0.0456,-0.0328,-0.0144,0.0063,0.0105,0.0258,0.0567,0.0598,0.075,0.1177,0.1542,0.192,0.2308,0.2313,0.2285,0.2305,0.245,0.2571,0.2571,0.2244,0.2009,0.2044,0.1753,0.1483,0.148,0.1377,0.1327,0.1311,0.1284,0.1315,0.1299,0.1301,0.136,0.1481,0.1383,0.1312,0.1311,0.1531,0.1755,0.1989,0.2658,0.3299,0.394,0.4536,0.5226,0.6003,0.6407,0.6676,0.6982,0.7228,0.7444,0.7606,0.7728,0.7854,0.7992,0.8235,0.8374,0.8069,0.7931,0.7826,-1.0547,-1.0329,-0.9866,-0.9552,-0.9326,-0.8999,-0.8756,-0.8646,0.0,0.0,0.0,-0.8014,-0.7903,-0.7897,-0.7804,-0.7665,-0.7516,-0.7419,-0.7359,-0.7338,-0.7263,-0.7145,-0.6987,-0.6942,-0.6195,-0.4959,-0.4916,-0.4252,-0.3002,-0.2966,-0.2381,-0.1408,-0.1324,-0.0872,0.0,0.0,0.0,0.0,-0.0373,-0.0499,-0.0404,-0.0795,-0.0983,-0.0938,-0.1158,-0.1141,-0.0846,-0.0822,-0.0734,-0.0556,-0.0537,-0.052,-0.0483,-0.033,-0.0263,-0.0239,-0.0087,0.011,0.0386,0.0388,0.0537,0.0836,0.0901,0.1105,0.1513,0.1604,0.186,0.2282,0.2404,0.2461,0.2472,0.2529,0.2591,0.2633,0.2559,0.2527,0.2553,0.2306,0.1975,0.1808,0.162,0.1379,0.1229,0.126,0.1262,0.143,0.1567,0.171,0.2076,0.1737,0.1397,0.1397,0.1702,0.1735,0.1878,0.2604,0.339,0.4002,0.4815,0.5624,0.6325,0.6882,0.7299,0.7566,0.7881,0.7992,0.8076,0.8159,0.818,0.8214,0.8678,0.9037,0.9009,0.8678,0.8374,-1.0168,-1.0078,-0.9474,-0.9189,-0.9127,-0.8795,-0.8503,-0.8295,-0.8285,-0.8102,-0.7791,-0.7889,-0.7903,-0.7903,-0.7886,-0.7785,-0.7676,-0.766,-0.7565,-0.7462,-0.7446,-0.6839,-0.5761,-0.5739,-0.5079,-0.3885,-0.3844,-0.319,-0.2112,-0.1998,-0.1402,-0.0372,-0.0235,0.0,0.0,0.0,0.0,0.0,-0.0213,-0.0355,-0.0405,-0.0561,-0.0659,-0.0657,-0.0707,-0.0676,-0.0557,-0.055,-0.0457,-0.0259,-0.0305,-0.0276,-0.0091,0.0,-0.0047,-0.0048,0.0,0.0121,0.0363,0.0388,0.0613,0.1103,0.1337,0.1448,0.129,0.1685,0.207,0.2375,0.2803,0.31,0.3148,0.3135,0.314,0.3158,0.2821,0.2567,0.2568,0.2188,0.2003,0.2148,0.2096,0.2096,0.2045,0.2216,0.23,0.2188,0.2272,0.2552,0.2608,0.2552,0.2468,0.2468,0.269,0.297,0.3138,0.3561,0.4173,0.5007,0.5258,0.5875,0.6849,0.7154,0.746,0.7875,0.8048,0.818,0.8401,0.8623,0.8844,0.9071,0.9396,0.9651,0.9678,0.9596,0.9541,-0.9947,-0.9841,-0.9308,-0.9041,-0.8912,-0.8717,-0.8454,-0.8204,-0.8176,-0.8013,-0.7837,-0.7881,-0.7903,-0.7897,-0.7837,-0.7657,-0.7424,-0.7366,-0.6837,-0.6004,-0.5923,-0.5254,-0.4109,-0.3957,-0.3363,-0.2411,-0.2349,-0.1833,-0.0896,-0.0834,-0.0549,0.0,0.0,0.0,0.0,0.0,0.0,0.0,-0.0076,-0.015,-0.0175,-0.0392,-0.0506,-0.0473,-0.0626,-0.0612,-0.044,-0.0449,-0.0342,-0.0115,-0.0116,-0.0096,0.0,0.0,0.0076,0.0205,0.0206,0.0409,0.0861,0.1012,0.1194,0.1461,0.1579,0.1685,0.1748,0.2075,0.2449,0.2838,0.314,0.3341,0.3342,0.3371,0.3384,0.3414,0.3198,0.3089,0.3071,0.2745,0.2634,0.2886,0.2802,0.2748,0.2945,0.2917,0.2889,0.2748,0.2973,0.3225,0.3365,0.3561,0.3474,0.3085,0.3281,0.3617,0.3841,0.4369,0.4899,0.5369,0.5954,0.6543,0.7182,0.7515,0.8014,0.8401,0.8602,0.8878,0.9154,0.9285,0.9451,0.9568,0.9871,1.0064,1.0257,1.0531,1.0669,-0.9679,-0.9523,-0.9212,-0.8935,-0.8798,-0.8638,-0.8235,-0.7664,-0.7627,-0.7307,-0.687,-0.7174,-0.7347,-0.7307,-0.714,-0.692,-0.6695,-0.657,-0.5707,-0.4373,-0.4237,-0.3577,-0.2487,-0.2293,-0.1742,-0.0894,-0.0798,-0.0481,0.0056,0.0113,0.0056,0.0,0.0,0.0,0.0,0.0,0.0,0.0,0.0,0.0,0.0,-0.0207,-0.0308,-0.033,-0.0526,-0.0521,-0.0322,-0.0301,-0.0204,0.0,0.0,0.0026,0.0106,0.0106,0.0212,0.0451,0.0504,0.071,0.1242,0.1535,0.1721,0.1715,0.1714,0.1864,0.2234,0.2429,0.27,0.3166,0.3326,0.3414,0.3428,0.3404,0.345,0.3493,0.351,0.3529,0.3617,0.3438,0.3446,0.3698,0.3586,0.3502,0.3614,0.353,0.3446,0.3474,0.3642,0.3896,0.4176,0.448,0.4369,0.4033,0.4061,0.4316,0.4372,0.5011,0.5596,0.5759,0.6538,0.7154,0.7543,0.8152,0.865,0.8927,0.9258,0.9458,0.9734,0.9844,0.9926,1.0009,1.0284,1.0559,1.0861,1.1272,1.1482,-0.9185,-0.9117,-0.8995,-0.8859,-0.873,-0.8605,-0.7545,-0.6027,-0.5929,-0.4933,-0.3664,-0.4947,-0.5594,-0.5594,-0.5307,-0.5147,-0.5116,-0.5082,-0.4346,-0.3156,-0.3123,-0.2433,-0.1205,-0.1124,-0.0452,0.0619,0.0674,0.0522,0.0402,0.0373,0.0229,0.0,0.0,0.0,0.0,0.0,0.0,0.0,0.0,0.0,0.0,-0.0027,-0.0027,-0.0052,0.0,-0.0077,0.0,-0.0025,0.0,0.0,0.0,0.0103,0.0318,0.0342,0.0495,0.0756,0.0756,0.0904,0.1196,0.1515,0.1717,0.1719,0.1717,0.1975,0.251,0.2592,0.2702,0.3022,0.3278,0.3415,0.348,0.3488,0.3521,0.3559,0.3573,0.3672,0.3859,0.3916,0.4064,0.4369,0.4313,0.4285,0.4092,0.4173,0.4341,0.4313,0.4369,0.4536,0.4847,0.5122,0.5401,0.5401,0.5429,0.529,0.5346,0.5796,0.6353,0.6849,0.7099,0.7571,0.8152,0.8595,0.8982,0.9375,0.9568,0.9789,0.9926,1.0036,1.0366,1.0586,1.0825,1.1126,1.1436,1.1764,1.1837,-0.9302,-0.9231,-0.9182,-0.8409,-0.7367,-0.6871,-0.5727,-0.4217,-0.4182,-0.3254,-0.1927,-0.2312,-0.3042,-0.3965,-0.3843,-0.3689,-0.3507,-0.3477,-0.2645,-0.1293,-0.1231,-0.0522,0.0672,0.073,0.0967,0.1254,0.1243,0.0939,0.0525,0.0263,0.0117,0.0,0.0,0.0,0.0,0.0,0.0,0.0,0.0,0.0,0.0,0.0,0.0,0.0,0.0,0.0,0.0,0.0,0.0,0.0,0.016,0.0295,0.0384,0.0573,0.0816,0.1086,0.1292,0.1441,0.1537,0.1691,0.1834,0.1983,0.1986,0.2251,0.2827,0.2902,0.3015,0.3301,0.346,0.3526,0.3545,0.3578,0.3634,0.3775,0.3826,0.394,0.4221,0.4269,0.4424,0.4676,0.4735,0.4791,0.4791,0.4763,0.4843,0.4955,0.5039,0.5178,0.5629,0.5852,0.6047,0.6297,0.6376,0.6348,0.6265,0.6515,0.6988,0.7382,0.7875,0.8429,0.865,0.9147,0.9541,0.9871,1.0009,1.0257,1.0578,1.0661,1.0852,1.1162,1.1455,1.17,1.2001,1.231,1.2473,-0.8972,-0.8466,-0.7935,-0.6823,-0.5504,-0.5018,-0.3879,-0.2477,-0.2376,-0.1537,-0.0187,0.0094,-0.0434,-0.157,-0.1999,-0.2031,-0.1816,-0.1816,-0.0955,0.0432,0.0555,0.108,0.1943,0.1955,0.1823,0.1636,0.1464,0.1097,0.0504,0.0148,0.0,0.0,0.0,0.0,0.0,0.0,0.0,0.0,0.0,0.0,0.0,0.0,0.0,0.0,0.0,0.0,0.0,0.0,0.0027,0.0,0.0302,0.0468,0.0639,0.0887,0.1134,0.1381,0.1641,0.1765,0.1764,0.1854,0.1996,0.2164,0.2194,0.2466,0.297,0.311,0.3278,0.3667,0.3785,0.3835,0.3729,0.3785,0.3921,0.412,0.4148,0.426,0.4564,0.4592,0.4707,0.4987,0.5126,0.5266,0.5521,0.5465,0.5405,0.5601,0.5652,0.5875,0.6381,0.6548,0.6659,0.6993,0.7265,0.7271,0.7049,0.7188,0.7515,0.7959,0.8512,0.8837,0.912,0.9616,1.0009,1.0229,1.0394,1.0633,1.1017,1.1208,1.1373,1.1728,1.2028,1.23,1.2599,1.2908,1.3207,-0.7984,-0.634,-0.4493,-0.3748,-0.3521,-0.3327,-0.2278,-0.0601,-0.0602,0.033,0.1703,0.1862,0.1869,0.1514,0.0308,-0.0154,-0.0123,-0.0123,0.0555,0.1698,0.1822,0.1915,0.2008,0.2005,0.2005,0.1907,0.1579,0.1054,0.0421,0.0,0.0,0.0,0.0,0.0,0.0,0.0,0.0,0.0,0.0,0.0,0.0,0.0,0.0,0.0,0.0,0.0,0.0,0.0,0.014,0.0364,0.0442,0.0658,0.1177,0.1269,0.1395,0.1633,0.1712,0.171,0.1742,0.1982,0.2191,0.2222,0.2279,0.2494,0.311,0.3222,0.3474,0.3924,0.4288,0.4341,0.412,0.4229,0.4397,0.4452,0.448,0.4592,0.4875,0.4931,0.5043,0.5354,0.5601,0.5824,0.6163,0.6246,0.6191,0.6219,0.6274,0.6464,0.6993,0.7154,0.7382,0.7727,0.7921,0.7881,0.7665,0.7798,0.8208,0.8623,0.8899,0.914,0.9588,1.0036,1.0339,1.0641,1.0852,1.1126,1.1427,1.1673,1.1891,1.2191,1.2572,1.2881,1.3098,1.3423,1.3721,-0.6108,-0.4459,-0.3458,-0.2501,-0.1639,-0.1303,-0.027,0.1095,0.1161,0.147,0.1945,0.2035,0.2014,0.1977,0.1513,0.1296,0.1265,0.1296,0.1543,0.2008,0.2008,0.2008,0.2008,0.2008,0.2008,0.1945,0.1628,0.1133,0.049,0.0152,0.0,0.0,0.0,0.0,0.0,0.0,0.0,0.0,0.0,0.0091,0.0303,0.0334,0.0422,0.0593,0.0378,0.0259,0.0318,0.0482,0.062,0.0741,0.087,0.1084,0.1278,0.1492,0.1653,0.1735,0.1763,0.1763,0.1792,0.2021,0.2307,0.2531,0.2905,0.3227,0.3614,0.3866,0.4089,0.4344,0.4787,0.4955,0.4871,0.4676,0.4564,0.4735,0.4791,0.4955,0.5346,0.5485,0.5601,0.5907,0.6079,0.6158,0.6274,0.6302,0.6442,0.6798,0.6877,0.7132,0.7549,0.7709,0.7884,0.8292,0.8458,0.8602,0.9104,0.8721,0.8761,0.9147,0.9478,0.9789,1.0174,1.0496,1.0825,1.0998,1.1236,1.1537,1.181,1.2255,1.2436,1.2627,1.3017,1.3261,1.3505,1.3802,1.4099,-0.3582,-0.2361,-0.147,-0.0603,0.0246,0.0588,0.1257,0.2106,0.2128,0.2095,0.2054,0.2048,0.2031,0.2039,0.2035,0.203,0.202,0.2013,0.2008,0.2008,0.2008,0.2008,0.2008,0.2008,0.2008,0.1946,0.1668,0.1143,0.0556,0.0278,0.0123,0.0,0.0,0.0,0.0,0.0,0.0031,0.0123,0.0154,0.0309,0.0617,0.0648,0.0737,0.094,0.0829,0.0703,0.0677,0.0836,0.0974,0.1069,0.1233,0.1397,0.1511,0.171,0.1824,0.1824,0.1824,0.1824,0.1881,0.2194,0.2536,0.288,0.3364,0.3845,0.43,0.458,0.4807,0.5059,0.5398,0.5723,0.5663,0.5338,0.5154,0.5322,0.535,0.5517,0.5907,0.5963,0.6102,0.6325,0.6414,0.6497,0.6664,0.6748,0.6965,0.7404,0.746,0.7665,0.8097,0.8255,0.8411,0.8821,0.8911,0.9173,0.9544,0.9454,0.9469,0.9818,0.9961,1.0299,1.0602,1.0924,1.1208,1.1373,1.1591,1.1891,1.2273,1.2718,1.2962,1.3125,1.3315,1.3559,1.3856,1.418,1.4477,-0.0401,0.0109,0.1618,0.2004,0.2029,0.2019,0.2133,0.2189,0.2197,0.2164,0.2099,0.2104,0.2083,0.2095,0.2085,0.2044,0.2019,0.2028,0.2013,0.2008,0.2008,0.2008,0.2008,0.2008,0.1977,0.1946,0.1668,0.1174,0.0556,0.0494,0.037,0.0,0.0,0.0,0.0,0.0,0.0216,0.0432,0.0525,0.0679,0.0957,0.0988,0.105,0.1108,0.1275,0.1287,0.1064,0.103,0.1204,0.1354,0.1411,0.156,0.1789,0.1877,0.1881,0.1877,0.1881,0.1883,0.1969,0.2405,0.284,0.3337,0.364,0.4331,0.514,0.5348,0.5606,0.6074,0.6312,0.6436,0.6412,0.635,0.6246,0.6274,0.6135,0.6191,0.6274,0.633,0.6442,0.6692,0.6781,0.6971,0.7388,0.7493,0.761,0.7899,0.7989,0.8177,0.8593,0.8704,0.8911,0.9247,0.9446,0.9619,0.9895,1.0127,1.0326,1.0498,1.0534,1.0675,1.0924,1.1232,1.1545,1.1755,1.211,1.2382,1.2654,1.3098,1.3396,1.3559,1.3721,1.3937,1.4288,1.4611,1.488,0.1457,0.1639,0.2069,0.2272,0.2288,0.2248,0.2185,0.2198,0.2201,0.2171,0.2113,0.2109,0.2093,0.2102,0.2096,0.2091,0.2081,0.2071,0.2048,0.2015,0.2009,0.2009,0.2009,0.2009,0.1853,0.1668,0.1544,0.1266,0.0927,0.0834,0.0772,0.071,0.068,0.071,0.0649,0.0679,0.0772,0.0833,0.0833,0.1019,0.1297,0.1359,0.1452,0.1667,0.1782,0.1773,0.1673,0.164,0.1659,0.1736,0.1748,0.1797,0.1885,0.1885,0.1885,0.1885,0.1885,0.1885,0.1915,0.227,0.2918,0.3798,0.4444,0.535,0.6399,0.6725,0.687,0.7075,0.7236,0.7335,0.7281,0.741,0.7137,0.6386,0.6302,0.6442,0.6642,0.7029,0.7292,0.7354,0.7595,0.7837,0.785,0.7881,0.8035,0.8389,0.8458,0.865,0.9036,0.9162,0.9367,0.9768,0.9877,1.0096,1.0473,1.0739,1.0854,1.0988,1.1041,1.1045,1.1257,1.1543,1.1855,1.2246,1.2599,1.2898,1.3179,1.3478,1.3802,1.4008,1.4196,1.4477,1.4799,1.5041,1.524,0.2296,0.2296,0.2296,0.2287,0.2304,0.2238,0.221,0.2215,0.2185,0.2189,0.2131,0.216,0.2149,0.2134,0.2129,0.2124,0.2114,0.2113,0.2087,0.2046,0.2041,0.2039,0.2041,0.2039,0.1947,0.1758,0.1726,0.1538,0.1224,0.1224,0.1161,0.1067,0.1031,0.0997,0.0995,0.1022,0.1052,0.115,0.1214,0.1338,0.1618,0.1681,0.1801,0.1979,0.2008,0.2008,0.2005,0.1969,0.1928,0.1941,0.1929,0.1951,0.1919,0.1951,0.1919,0.1919,0.1919,0.1949,0.1949,0.2222,0.2996,0.4279,0.4996,0.5979,0.7228,0.7816,0.7865,0.7991,0.8055,0.8083,0.7942,0.8005,0.7718,0.7049,0.6965,0.6993,0.7226,0.7584,0.7797,0.7812,0.8023,0.8192,0.8202,0.8242,0.8426,0.8769,0.8874,0.8988,0.9388,0.958,0.9846,1.0108,1.0271,1.0621,1.1117,1.132,1.1425,1.15,1.1578,1.1509,1.1565,1.189,1.2228,1.2762,1.3197,1.3494,1.3765,1.4089,1.4396,1.4546,1.4654,1.4853,1.5095,1.5267,1.5482,0.2299,0.2296,0.2296,0.2296,0.2291,0.23,0.2273,0.221,0.2211,0.2184,0.2199,0.2188,0.2188,0.2189,0.2181,0.2165,0.2116,0.2112,0.2131,0.2109,0.21,0.2098,0.2088,0.2085,0.2053,0.2056,0.2057,0.1898,0.1604,0.1605,0.1483,0.1252,0.1207,0.1075,0.1167,0.1092,0.128,0.1513,0.1547,0.1705,0.1957,0.1989,0.2011,0.2019,0.2019,0.202,0.202,0.201,0.2005,0.2006,0.2001,0.1998,0.2005,0.2008,0.2001,0.1999,0.1975,0.2002,0.2066,0.2486,0.3342,0.4807,0.5544,0.6368,0.8132,0.8545,0.8624,0.8811,0.8791,0.8656,0.8514,0.8472,0.8298,0.8131,0.7929,0.789,0.7995,0.8075,0.8152,0.8139,0.8239,0.8401,0.8581,0.868,0.888,0.9097,0.9232,0.9367,0.9648,0.99,1.0135,1.0395,1.0673,1.0967,1.1398,1.1488,1.1607,1.1801,1.1929,1.1957,1.2066,1.2441,1.2799,1.3332,1.3765,1.4089,1.4331,1.4573,1.4799,1.4934,1.5068,1.5214,1.5374,1.5589,1.5776,0.2353,0.2297,0.2296,0.2296,0.2292,0.2303,0.2288,0.2273,0.2222,0.221,0.2208,0.2207,0.2204,0.2185,0.2199,0.2183,0.2178,0.2175,0.2174,0.2165,0.2164,0.2135,0.2105,0.2098,0.21,0.2102,0.2109,0.2032,0.1967,0.1944,0.1909,0.1837,0.1771,0.1797,0.1826,0.1789,0.1852,0.1922,0.1957,0.1957,0.2053,0.2085,0.2081,0.2074,0.2071,0.2071,0.207,0.2019,0.2027,0.2009,0.2008,0.2008,0.2008,0.2008,0.2008,0.2008,0.2008,0.2038,0.2222,0.2927,0.4152,0.5533,0.6547,0.7861,0.9238,0.9427,0.9405,0.943,0.938,0.9285,0.9182,0.9109,0.9056,0.8972,0.8581,0.8294,0.8403,0.8688,0.8836,0.8759,0.8981,0.9113,0.912,0.9171,0.9267,0.9435,0.9535,0.9641,1.0002,1.0222,1.0462,1.0868,1.1171,1.136,1.1557,1.1647,1.1804,1.2017,1.219,1.2345,1.2711,1.3262,1.3614,1.4008,1.4396,1.4719,1.4773,1.4907,1.5095,1.5363,1.5428,1.5535,1.5764,1.5951,1.6084,0.2379,0.2352,0.2352,0.2345,0.2295,0.2279,0.2301,0.2286,0.2256,0.2238,0.2202,0.221,0.2203,0.2214,0.2188,0.2208,0.2206,0.2193,0.2188,0.2188,0.2186,0.2174,0.2157,0.2154,0.2127,0.214,0.2139,0.2142,0.2143,0.214,0.214,0.2138,0.2147,0.2136,0.2102,0.2121,0.2124,0.2135,0.2145,0.2149,0.2136,0.2135,0.2116,0.2105,0.2096,0.2096,0.2093,0.2046,0.2019,0.2019,0.2008,0.2008,0.2008,0.2008,0.2008,0.2008,0.2008,0.2191,0.2806,0.3541,0.4763,0.6385,0.7551,0.8471,0.9451,0.9792,0.9744,0.9697,0.97,0.9625,0.9503,0.9422,0.9415,0.939,0.9081,0.8868,0.8887,0.9114,0.9199,0.9208,0.9386,0.9551,0.9408,0.9464,0.9598,0.9749,0.9815,1.0084,1.0409,1.0589,1.0785,1.1148,1.1428,1.1587,1.1647,1.1738,1.193,1.2171,1.2752,1.2861,1.3141,1.3744,1.4125,1.4439,1.4907,1.5229,1.5256,1.5363,1.5577,1.5764,1.5803,1.5924,1.6164,1.6324,1.6457,0.2406,0.2415,0.2375,0.2357,0.2299,0.2296,0.2281,0.2298,0.2288,0.2275,0.2224,0.2214,0.2206,0.2213,0.2219,0.2204,0.2203,0.2184,0.2207,0.2206,0.2208,0.218,0.2203,0.2187,0.22,0.2187,0.2208,0.2201,0.219,0.2197,0.2204,0.2185,0.2183,0.22,0.2161,0.214,0.2142,0.2163,0.2184,0.2183,0.2168,0.2197,0.2144,0.2178,0.2521,0.254,0.2593,0.2646,0.2746,0.2546,0.2323,0.2228,0.2196,0.21,0.2376,0.25,0.2683,0.3204,0.3937,0.4456,0.5345,0.7337,0.7947,0.8532,0.9548,0.9852,0.9906,0.9886,0.9883,0.9891,0.9742,0.9605,0.9553,0.9605,0.9589,0.9528,0.9469,0.9458,0.9429,0.9429,0.9535,0.9544,0.951,0.9553,0.9701,0.9838,0.9958,1.0218,1.0575,1.0868,1.1088,1.1367,1.1587,1.1776,1.1806,1.1806,1.2033,1.2328,1.3192,1.3547,1.3445,1.3909,1.4375,1.4815,1.5363,1.5684,1.5764,1.5897,1.6084,1.6164,1.6217,1.6404,1.6604,1.6696,1.6802,0.2406,0.2413,0.2353,0.2303,0.2297,0.2296,0.2292,0.2285,0.23,0.23,0.2264,0.2196,0.2226,0.2244,0.2321,0.2201,0.2234,0.219,0.2191,0.2191,0.2191,0.2244,0.2253,0.2228,0.2186,0.2208,0.2212,0.2212,0.2213,0.2217,0.2212,0.2209,0.2201,0.219,0.2187,0.2181,0.2183,0.2191,0.2198,0.2199,0.2191,0.2223,0.225,0.2365,0.3297,0.3811,0.4076,0.491,0.5415,0.511,0.429,0.3378,0.2824,0.3948,0.4346,0.3915,0.4462,0.5104,0.5559,0.6324,0.721,0.7886,0.8775,0.9511,0.97,1.0035,1.0156,1.0247,1.0429,1.0317,1.0153,1.0102,0.9961,0.9831,0.9791,0.9754,0.9697,0.9713,0.967,0.9683,0.9734,0.9761,0.9713,0.9685,0.9792,0.9884,1.0118,1.0352,1.0733,1.1171,1.1367,1.1587,1.1677,1.1806,1.1837,1.1894,1.2205,1.2625,1.3461,1.4322,1.4228,1.4358,1.4949,1.5443,1.5897,1.6084,1.6164,1.6338,1.6471,1.6551,1.663,1.6736,1.6842,1.6987,1.7093,0.2427,0.2397,0.2367,0.231,0.2297,0.2296,0.2296,0.2293,0.2281,0.2283,0.2288,0.2261,0.226,0.2379,0.2954,0.3042,0.2332,0.2216,0.221,0.2209,0.221,0.2226,0.2282,0.2266,0.2258,0.2246,0.2252,0.225,0.225,0.225,0.2255,0.2248,0.2238,0.223,0.2232,0.2233,0.2264,0.2234,0.2244,0.2245,0.2233,0.2232,0.2748,0.3435,0.4687,0.5512,0.5543,0.6068,0.6357,0.6324,0.6154,0.5457,0.4376,0.524,0.5528,0.5277,0.5421,0.6298,0.6844,0.749,0.8136,0.8745,0.9451,0.967,0.9822,0.9974,1.0035,1.0088,1.0186,1.0277,1.0308,1.0301,1.0186,1.0088,1.0035,0.9974,0.9852,0.9792,0.9792,0.9852,0.993,1.0021,1.0023,0.9984,1.0268,1.056,1.065,1.0891,1.1184,1.1557,1.1587,1.1708,1.1776,1.1806,1.1828,1.2003,1.2403,1.2956,1.3736,1.4651,1.5186,1.5386,1.5684,1.6057,1.635,1.6418,1.6524,1.671,1.6842,1.6895,1.6961,1.7001,1.7107,1.7265,1.7358,0.2454,0.2428,0.2398,0.2517,0.2677,0.2708,0.2784,0.2787,0.2953,0.3207,0.2811,0.2844,0.3484,0.3375,0.403,0.3691,0.2646,0.2277,0.2304,0.2834,0.2375,0.2566,0.2692,0.2556,0.2313,0.2338,0.2337,0.2337,0.2301,0.2307,0.2311,0.2305,0.2326,0.2316,0.2308,0.2311,0.2309,0.2303,0.2719,0.2575,0.2661,0.2868,0.3987,0.4929,0.6345,0.7096,0.7146,0.7455,0.7535,0.7275,0.8202,0.8073,0.7426,0.6846,0.6526,0.6522,0.674,0.7382,0.8038,0.8359,0.8781,0.9775,0.9792,0.9852,0.9883,1.0035,1.0156,1.0149,1.0277,1.0308,1.0368,1.0338,1.0277,1.021,1.0217,1.0156,0.9974,0.9913,1.0004,0.9943,1.0095,1.0217,1.0377,1.0477,1.0846,1.1171,1.1253,1.1382,1.1609,1.1806,1.1776,1.1776,1.1806,1.2341,1.2483,1.2374,1.2721,1.3644,1.4346,1.5032,1.5928,1.6295,1.6444,1.6457,1.6669,1.6763,1.6869,1.7028,1.7133,1.7226,1.7252,1.7265,1.7397,1.7582,1.7582,0.2505,0.2459,0.2428,0.3163,0.4309,0.4347,0.4275,0.4668,0.554,0.5451,0.4538,0.5587,0.6,0.592,0.4939,0.3882,0.3186,0.2998,0.3289,0.383,0.3255,0.2978,0.3748,0.2862,0.2438,0.2406,0.252,0.2596,0.2378,0.2356,0.2397,0.2366,0.2397,0.2384,0.2372,0.2383,0.2367,0.2485,0.3233,0.3302,0.3241,0.4882,0.6191,0.6831,0.8131,0.8734,0.9007,0.9808,1.0575,1.0763,1.0596,1.049,1.0206,0.9741,0.8971,0.8372,0.8781,0.9312,0.9503,0.962,0.9654,0.9802,0.9852,1.0004,1.021,1.0422,1.0573,1.0815,1.0876,1.0906,1.0694,1.055,1.0217,1.0088,1.0179,1.0301,1.0301,1.0331,1.0422,1.0338,1.0368,1.0459,1.0649,1.0838,1.1057,1.1238,1.1312,1.1366,1.1518,1.1708,1.1806,1.1806,1.1806,1.2573,1.3246,1.3079,1.3241,1.4507,1.5244,1.5592,1.6355,1.696,1.7186,1.7067,1.704,1.7133,1.7265,1.7345,1.7397,1.7437,1.749,1.7529,1.7556,1.7608,1.7608,0.2507,0.2505,0.2436,0.2839,0.3664,0.4504,0.4844,0.5124,0.6481,0.6804,0.6474,0.6827,0.7112,0.71,0.7276,0.6576,0.5861,0.5092,0.5357,0.562,0.4509,0.3934,0.467,0.3254,0.2549,0.2669,0.3206,0.3204,0.2478,0.2414,0.2577,0.2423,0.2424,0.2416,0.2408,0.2412,0.2483,0.2718,0.3269,0.3888,0.4187,0.7075,0.8549,0.9208,1.012,1.0886,1.0958,1.1315,1.1858,1.1882,1.1749,1.1754,1.1721,1.1399,1.0737,1.0025,1.0388,1.0721,1.0585,1.0574,1.0495,1.0329,1.0308,1.0399,1.0543,1.0694,1.0914,1.0997,1.1057,1.1057,1.1027,1.0853,1.0762,1.0604,1.0573,1.0543,1.0543,1.0573,1.0641,1.0762,1.0853,1.0936,1.1027,1.1155,1.126,1.1335,1.1379,1.1441,1.1518,1.1647,1.1806,1.204,1.216,1.2994,1.3795,1.4025,1.4362,1.5547,1.6156,1.6487,1.6829,1.7462,1.7556,1.7424,1.7463,1.7437,1.7477,1.7503,1.7556,1.7608,1.7582,1.7556,1.7582,1.7608,1.7608,0.3519,0.3517,0.3444,0.3619,0.4112,0.531,0.5995,0.6225,0.7741,0.8262,0.7895,0.8146,0.8354,0.8408,0.8831,0.9076,0.8894,0.7478,0.7314,0.7331,0.6182,0.5506,0.5396,0.4394,0.3795,0.4444,0.4984,0.4642,0.3541,0.3661,0.3547,0.3708,0.3435,0.3345,0.3723,0.3814,0.3347,0.3736,0.4134,0.5112,0.7154,0.9118,1.082,1.1214,1.2329,1.2682,1.2407,1.2456,1.2544,1.2467,1.2385,1.2355,1.2394,1.2259,1.1914,1.1505,1.1436,1.1314,1.1234,1.1165,1.1058,1.0841,1.0875,1.0898,1.1042,1.1119,1.1111,1.1012,1.0967,1.1065,1.1216,1.1216,1.1156,1.1095,1.0936,1.0883,1.0883,1.0914,1.1065,1.1186,1.1337,1.1398,1.1428,1.1458,1.1525,1.1555,1.1607,1.1607,1.1677,1.1708,1.1897,1.2281,1.2694,1.3465,1.4262,1.5009,1.5745,1.7033,1.7297,1.7433,1.7664,1.7955,1.7862,1.7702,1.7569,1.7556,1.7582,1.7622,1.7608,1.7608,1.7608,1.7608,1.7608,1.7608,1.7608,0.6917,0.6874,0.6863,0.7752,0.8741,0.8961,0.9211,0.9421,1.0698,1.0738,0.9682,1.0814,1.1313,1.1108,1.0085,0.9069,0.8178,0.8113,0.8538,0.9067,0.7933,0.7762,0.8582,0.7595,0.6705,0.6789,0.7397,0.6505,0.5624,0.6231,0.665,0.6453,0.5703,0.5778,0.6559,0.5945,0.6623,0.7805,0.9036,1.0393,1.1475,1.1311,1.1868,1.2644,1.3133,1.3191,1.3077,1.3075,1.3072,1.312,1.2728,1.271,1.2882,1.2812,1.2727,1.2444,1.2111,1.1682,1.1622,1.1611,1.1535,1.1337,1.1208,1.1293,1.1518,1.1712,1.1732,1.1686,1.1444,1.1277,1.1285,1.1057,1.0936,1.1005,1.1126,1.1178,1.1216,1.1156,1.1307,1.1496,1.1587,1.1647,1.1708,1.1746,1.1806,1.1806,1.1806,1.1806,1.1957,1.204,1.2311,1.2754,1.3555,1.4351,1.5192,1.5884,1.678,1.8243,1.8342,1.8259,1.8269,1.8288,1.8089,1.7956,1.7809,1.7742,1.7809,1.7782,1.7675,1.7635,1.7675,1.7648,1.7608,1.7608,1.7622,0.9386,0.7517,0.7566,0.795,0.8677,0.948,0.9954,1.0363,1.1868,1.23,1.19,1.2471,1.2742,1.2274,1.183,1.1183,1.0303,1.0205,1.0617,1.076,0.9916,0.9573,0.967,0.889,0.8331,0.8837,0.9297,0.9622,0.8712,0.8135,0.8167,0.8205,0.7699,0.7558,0.8707,0.7985,0.8075,0.8932,1.0237,1.1611,1.2343,1.2804,1.3282,1.4017,1.3976,1.3853,1.3774,1.3694,1.3712,1.3738,1.346,1.3365,1.3467,1.3383,1.3237,1.3221,1.2946,1.261,1.2366,1.2223,1.2057,1.1917,1.1799,1.1878,1.2059,1.2113,1.2109,1.1908,1.1792,1.166,1.1589,1.1436,1.1405,1.1375,1.133,1.1405,1.1496,1.1428,1.1458,1.1647,1.1806,1.1806,1.1806,1.1806,1.1806,1.1806,1.1806,1.1806,1.2191,1.2694,1.3015,1.3435,1.4381,1.5391,1.6267,1.7043,1.7582,1.8638,1.8968,1.8856,1.8685,1.8596,1.8409,1.8289,1.8223,1.8143,1.809,1.7956,1.7862,1.7796,1.7729,1.7756,1.7782,1.7635,1.7622,1.1414,0.8928,0.8932,0.8855,0.8842,1.0125,1.0668,1.0862,1.2217,1.2919,1.3014,1.3106,1.2953,1.2762,1.2792,1.2429,1.2114,1.2626,1.2668,1.2188,1.1734,1.1341,1.1252,1.0452,1.0175,1.0064,1.1463,1.1895,1.1695,1.1154,1.0529,0.9948,0.9754,0.9943,1.0025,0.9987,1.0081,1.0925,1.2015,1.2706,1.3013,1.3921,1.4404,1.4654,1.4651,1.4508,1.4452,1.4371,1.4326,1.4168,1.403,1.3897,1.3909,1.3736,1.3612,1.3563,1.341,1.3225,1.2983,1.279,1.2653,1.254,1.2426,1.233,1.2241,1.232,1.2296,1.2086,1.207,1.1997,1.1955,1.19,1.1814,1.1707,1.1636,1.1696,1.1724,1.1633,1.1595,1.1708,1.1806,1.1806,1.1806,1.1806,1.1806,1.1806,1.1806,1.1806,1.2251,1.2814,1.3584,1.3993,1.4857,1.6101,1.7513,1.8244,1.8765,1.8939,1.9272,1.9334,1.9078,1.8905,1.8703,1.8651,1.8584,1.8437,1.8277,1.8156,1.8076,1.809,1.8076,1.8009,1.7956,1.7796,1.7662,1.299,1.2595,1.239,1.2142,1.2005,1.2269,1.2308,1.2224,1.2501,1.2695,1.2849,1.2674,1.2839,1.2678,1.2842,1.2811,1.2531,1.252,1.2776,1.2968,1.2958,1.2965,1.2958,1.2997,1.319,1.3498,1.3737,1.3999,1.4422,1.3799,1.3529,1.3344,1.2095,1.2719,1.2874,1.2404,1.2667,1.3368,1.4137,1.4337,1.4452,1.4772,1.4903,1.4958,1.4949,1.4862,1.4708,1.4635,1.4554,1.4416,1.4221,1.4156,1.4115,1.3977,1.3896,1.3852,1.3731,1.3601,1.3498,1.323,1.3059,1.2986,1.2865,1.2621,1.241,1.2491,1.2442,1.232,1.2288,1.2264,1.2247,1.2247,1.2094,1.1999,1.1903,1.1839,1.1859,1.1833,1.1787,1.1815,1.1806,1.1806,1.1806,1.1806,1.1806,1.1806,1.1806,1.1806,1.1949,1.2543,1.3764,1.453,1.5302,1.6662,1.8677,1.9272,1.9185,1.9156,1.933,1.9401,1.9321,1.9174,1.8985,1.8918,1.8824,1.8651,1.8544,1.8557,1.8544,1.8477,1.8424,1.8343,1.8237,1.8103,1.7916,1.4045,1.3901,1.3836,1.3504,1.3035,1.3301,1.336,1.3327,1.3544,1.3814,1.3968,1.4045,1.3891,1.3744,1.3929,1.3698,1.3351,1.359,1.3551,1.3583,1.3744,1.3975,1.4168,1.4353,1.4584,1.4745,1.4784,1.4814,1.4891,1.5006,1.4891,1.4307,1.3845,1.4153,1.4345,1.4191,1.4499,1.4691,1.5006,1.5006,1.5006,1.5006,1.5006,1.5006,1.5006,1.4982,1.4892,1.4757,1.4676,1.4554,1.4335,1.4294,1.4294,1.4156,1.4123,1.4156,1.399,1.3961,1.3863,1.3547,1.323,1.31,1.3011,1.2889,1.2621,1.2702,1.2637,1.254,1.2467,1.245,1.232,1.2304,1.2255,1.2215,1.2135,1.2062,1.202,1.1955,1.1906,1.1929,1.1855,1.1806,1.1806,1.1806,1.1806,1.1806,1.1806,1.1897,1.216,1.2724,1.4093,1.5243,1.6013,1.7056,1.8981,1.933,1.9401,1.9401,1.9401,1.9401,1.9401,1.9374,1.9241,1.9174,1.9105,1.904,1.9,1.904,1.896,1.8759,1.8664,1.8651,1.8544,1.841,1.8223,1.4448,1.4393,1.4672,1.4293,1.3612,1.3858,1.3886,1.3759,1.3975,1.4322,1.4622,1.4622,1.4468,1.4322,1.4399,1.4276,1.3783,1.3898,1.3975,1.4053,1.4168,1.4438,1.463,1.4776,1.4891,1.5006,1.5006,1.5006,1.5006,1.5006,1.4968,1.4968,1.5006,1.493,1.493,1.5006,1.5006,1.5006,1.5006,1.5006,1.5006,1.5006,1.5006,1.5006,1.5006,1.4998,1.4966,1.4854,1.4814,1.47,1.4562,1.444,1.4416,1.4383,1.4343,1.4335,1.4294,1.4241,1.4107,1.3782,1.3384,1.323,1.3223,1.3108,1.2994,1.2913,1.284,1.28,1.2727,1.2596,1.2467,1.2475,1.2458,1.2426,1.2385,1.2312,1.2199,1.2117,1.206,1.202,1.1939,1.1896,1.2189,1.2249,1.2281,1.2371,1.2573,1.2694,1.2904,1.3674,1.4917,1.5954,1.6838,1.7964,1.9127,1.9272,1.9401,1.9401,1.9401,1.9401,1.9401,1.9401,1.9401,1.9308,1.9308,1.9374,1.9334,1.9254,1.908,1.8893,1.8891,1.8945,1.8771,1.8637,1.8544,1.4183,1.4232,1.5043,1.4835,1.4106,1.4022,1.3932,1.389,1.386,1.3929,1.4014,1.3968,1.3929,1.3937,1.4122,1.4045,1.3968,1.3937,1.4053,1.4361,1.4476,1.4669,1.483,1.4984,1.5063,1.5015,1.5039,1.5055,1.5031,1.5006,1.5006,1.5006,1.5006,1.5006,1.5006,1.5006,1.5006,1.5006,1.5006,1.5006,1.5006,1.5006,1.5006,1.5006,1.5006,1.5006,1.499,1.4982,1.4949,1.4901,1.4724,1.4643,1.4667,1.4484,1.4427,1.4473,1.4318,1.4294,1.4314,1.3868,1.3601,1.3433,1.3435,1.3327,1.3303,1.3206,1.3084,1.3044,1.2946,1.2865,1.2791,1.2775,1.271,1.2645,1.2613,1.2499,1.2377,1.2296,1.2247,1.2134,1.203,1.2065,1.2459,1.2756,1.281,1.2985,1.3255,1.3525,1.3794,1.4381,1.554,1.6426,1.7308,1.811,1.8981,1.9272,1.9401,1.9401,1.9401,1.9401,1.9401,1.9401,1.9401,1.9401,1.9401,1.9401,1.9401,1.9374,1.9227,1.912,1.9227,1.9241,1.9038,1.8905,1.8838,1.5347,1.5389,1.5677,1.5544,1.5185,1.5066,1.4885,1.4719,1.4608,1.4545,1.4584,1.4584,1.4545,1.4545,1.4507,1.4507,1.4507,1.4545,1.4737,1.4737,1.4776,1.4853,1.4984,1.5057,1.513,1.5147,1.5147,1.513,1.5155,1.5074,1.5023,1.5006,1.5055,1.5006,1.5006,1.5006,1.5006,1.5006,1.5006,1.5006,1.5006,1.5006,1.5006,1.5006,1.5006,1.5006,1.5006,1.5006,1.5006,1.499,1.4806,1.4773,1.4814,1.47,1.4667,1.47,1.4619,1.4489,1.4419,1.4168,1.3998,1.3815,1.3628,1.353,1.3427,1.3362,1.3321,1.3305,1.3197,1.3149,1.3189,1.3059,1.2962,1.2913,1.2848,1.267,1.2548,1.2499,1.2426,1.2255,1.215,1.2803,1.3277,1.4198,1.442,1.456,1.4948,1.4897,1.5065,1.5184,1.5895,1.675,1.7572,1.8256,1.8852,1.9214,1.9401,1.9401,1.9401,1.9401,1.9401,1.9401,1.9401,1.9401,1.9401,1.9401,1.9401,1.9401,1.9401,1.9388,1.9401,1.9401,1.9254,1.9201,1.9227,1.5801,1.5801,1.5917,1.5983,1.5845,1.5675,1.5432,1.5197,1.5049,1.5006,1.5006,1.5006,1.4968,1.5006,1.5006,1.5006,1.5006,1.5006,1.5006,1.5006,1.5006,1.5006,1.5055,1.5098,1.5139,1.5173,1.5213,1.5213,1.5294,1.522,1.5226,1.5187,1.5147,1.5139,1.5098,1.5025,1.5047,1.5063,1.5033,1.5006,1.5006,1.5006,1.5006,1.5006,1.5006,1.5006,1.5006,1.5006,1.5006,1.4966,1.4925,1.4884,1.4933,1.4933,1.4892,1.4895,1.4909,1.47,1.4578,1.4484,1.433,1.4221,1.3969,1.379,1.3671,1.3555,1.349,1.3457,1.3425,1.3384,1.336,1.3222,1.3189,1.3149,1.3127,1.2988,1.3528,1.3509,1.3858,1.3534,1.3694,1.4142,1.4489,1.5493,1.628,1.648,1.6701,1.6519,1.6408,1.6573,1.6721,1.7467,1.8081,1.8677,1.9098,1.9272,1.9401,1.9401,1.9401,1.9401,1.9401,1.9401,1.9401,1.9401,1.9401,1.9401,1.9401,1.9401,1.9401,1.9401,1.9401,1.9401,1.9401,1.9401,1.9401,1.5422,1.5463,1.5842,1.5991,1.5958,1.578,1.5528,1.5189,1.5049,1.5006,1.5006,1.5006,1.5006,1.5006,1.5006,1.5006,1.5031,1.5023,1.5047,1.5055,1.5104,1.508,1.5096,1.5137,1.5252,1.5237,1.5278,1.5431,1.5472,1.5431,1.5431,1.548,1.5431,1.5407,1.5301,1.5195,1.513,1.509,1.5025,1.5015,1.5006,1.5006,1.5006,1.5006,1.5006,1.5006,1.5006,1.5006,1.5006,1.4998,1.499,1.4998,1.5006,1.5006,1.5006,1.4998,1.499,1.4846,1.4749,1.4716,1.4708,1.4578,1.4359,1.4274,1.4075,1.3863,1.3758,1.366,1.3604,1.3498,1.3409,1.3401,1.3384,1.3397,1.3468,1.3939,1.4778,1.5205,1.5668,1.5877,1.6234,1.6471,1.6427,1.7138,1.7811,1.7958,1.8032,1.7951,1.7914,1.824,1.8386,1.8532,1.9039,1.9185,1.9401,1.9401,1.9401,1.9401,1.9401,1.9401,1.9401,1.9401,1.9401,1.9401,1.9401,1.9401,1.9401,1.9401,1.9401,1.9401,1.9401,1.9401,1.9401,1.9401,1.943,1.5842,1.5842,1.5917,1.5934,1.5813,1.5528,1.5286,1.5181,1.5049,1.5006,1.5006,1.5006,1.5006,1.5006,1.5006,1.5006,1.5055,1.5082,1.5147,1.5187,1.5252,1.5325,1.5374,1.5462,1.5545,1.5577,1.561,1.561,1.565,1.561,1.5618,1.5666,1.561,1.5634,1.557,1.5464,1.5293,1.5122,1.5049,1.5055,1.5031,1.5031,1.5023,1.5015,1.5023,1.5023,1.5006,1.5023,1.5023,1.5006,1.5006,1.5006,1.5006,1.5006,1.5006,1.5006,1.4998,1.4974,1.4941,1.4925,1.4917,1.4876,1.4772,1.4497,1.4343,1.4326,1.4198,1.4181,1.44,1.4552,1.4501,1.4397,1.4371,1.4397,1.4627,1.5325,1.6124,1.6703,1.7161,1.765,1.8027,1.8183,1.8173,1.8588,1.9197,1.933,1.9292,1.9161,1.906,1.9253,1.933,1.9401,1.9401,1.9401,1.9401,1.9401,1.9401,1.9401,1.9401,1.9401,1.9401,1.9401,1.9401,1.9401,1.9401,1.9401,1.9401,1.9401,1.9401,1.9401,1.9401,1.9401,1.9401,1.9401,1.9735,1.6007,1.6007,1.6007,1.5942,1.5829,1.5464,1.531,1.5301,1.5082,1.5006,1.5006,1.5006,1.5006,1.5006,1.5006,1.5047,1.5098,1.5132,1.5213,1.5382,1.548,1.5472,1.5561,1.5634,1.5666,1.578,1.5829,1.578,1.5813,1.5804,1.5804,1.5861,1.5756,1.5813,1.5813,1.5675,1.548,1.5309,1.5187,1.5139,1.5098,1.5065,1.508,1.5047,1.5063,1.508,1.5039,1.5017,1.5041,1.5023,1.5006,1.5006,1.5006,1.5006,1.5006,1.5006,1.5006,1.5006,1.499,1.499,1.4998,1.5174,1.5434,1.5748,1.5641,1.5643,1.5421,1.5299,1.5677,1.5942,1.5778,1.5625,1.5623,1.5612,1.6225,1.6831,1.7453,1.8061,1.8612,1.9117,1.9406,1.9581,1.9855,2.0244,2.0344,2.0119,1.9903,1.9691,1.9479,1.9394,1.9399,1.9401,1.9401,1.9401,1.9401,1.9401,1.9401,1.9401,1.9401,1.9401,1.9401,1.9401,1.9401,1.9401,1.9401,1.9401,1.9401,1.9401,1.9401,1.9401,1.9415,1.9428,1.9415,1.9401,1.9938,1.6007,1.5999,1.5991,1.5966,1.5926,1.5602,1.5512,1.5496,1.5187,1.4992,1.5015,1.5006,1.5006,1.5006,1.5006,1.5041,1.5139,1.5197,1.5327,1.5528,1.5578,1.5602,1.5634,1.5585,1.5756,1.5788,1.5821,1.5902,1.5958,1.5942,1.5918,1.6007,1.5975,1.5934,1.5869,1.5837,1.5707,1.5601,1.552,1.548,1.527,1.5197,1.5187,1.5098,1.5147,1.5164,1.5114,1.5114,1.5124,1.5049,1.5006,1.5006,1.5047,1.5055,1.5047,1.5055,1.5072,1.5031,1.5023,1.5006,1.5275,1.5727,1.6492,1.7084,1.718,1.7195,1.7021,1.6979,1.7352,1.7566,1.7465,1.7308,1.7238,1.7413,1.7882,1.8454,1.9016,1.961,2.0195,2.0606,2.0682,2.083,2.0652,2.0922,2.0708,2.0615,2.0428,2.016,1.992,1.9666,1.9548,1.9481,1.9508,1.9508,1.9401,1.9401,1.9401,1.9401,1.9415,1.9401,1.9401,1.9401,1.9401,1.9401,1.9401,1.9401,1.9401,1.9455,1.9481,1.9415,1.9428,1.9455,1.9484,1.9656,2.0486,1.6007,1.5991,1.5894,1.5837,1.5813,1.561,1.5593,1.5691,1.548,1.522,1.5047,1.5015,1.5015,1.5031,1.5015,1.5063,1.5106,1.5286,1.5455,1.5618,1.5707,1.5796,1.5853,1.5813,1.5885,1.5918,1.595,1.5942,1.5991,1.6007,1.6007,1.6007,1.6007,1.5958,1.5959,1.5959,1.5951,1.5935,1.5959,1.5836,1.5632,1.5503,1.5415,1.5382,1.5383,1.5423,1.5342,1.5268,1.5213,1.5171,1.5025,1.5049,1.5124,1.5124,1.5171,1.5171,1.5171,1.5192,1.535,1.547,1.5846,1.6624,1.7493,1.8196,1.8662,1.8783,1.8922,1.8937,1.9086,1.9221,1.9269,1.9102,1.9027,1.9327,1.954,2.0086,2.0602,2.1141,2.1758,2.1833,2.1911,2.1756,2.1542,2.1328,2.1114,2.0927,2.0726,2.0512,2.0281,2.004,1.9786,1.9706,1.9722,1.9682,1.9548,1.9508,1.9562,1.9522,1.9522,1.9468,1.9428,1.9455,1.9495,1.9428,1.9401,1.9455,1.9535,1.9642,1.9642,1.9589,1.9615,1.9679,2.0223,2.0501,2.1437,1.5885,1.5926,1.591,1.5845,1.5804,1.5666,1.5691,1.5772,1.5585,1.5407,1.5212,1.513,1.509,1.5057,1.5047,1.5137,1.5234,1.5415,1.5553,1.5707,1.5829,1.5942,1.6007,1.6007,1.5983,1.5999,1.6007,1.5999,1.6007,1.6007,1.6007,1.6007,1.6007,1.6007,1.6048,1.6172,1.6287,1.632,1.646,1.6457,1.6158,1.5964,1.5625,1.5561,1.5577,1.5625,1.5536,1.5455,1.5447,1.5382,1.5277,1.5195,1.5229,1.527,1.531,1.5327,1.5428,1.5623,1.6091,1.6478,1.7038,1.8201,1.9363,2.0447,2.1061,2.1219,2.1149,2.1227,2.1728,2.1933,2.1784,2.1624,2.16,2.1763,2.167,2.1821,2.197,2.2107,2.2277,2.2145,2.2138,2.2064,2.1844,2.1724,2.1542,2.136,2.1114,2.0846,2.0615,2.0424,2.0157,2.0,2.0027,1.9987,1.9907,1.9826,1.9786,1.9749,1.9655,1.9682,1.9709,1.9642,1.9589,1.9548,1.9548,1.9615,1.9679,1.9826,1.992,1.992,1.9947,1.9957,2.0601,2.1344,2.2448,1.5788,1.578,1.5918,1.5861,1.5764,1.5837,1.5837,1.5796,1.5642,1.5521,1.548,1.5318,1.5262,1.514,1.5139,1.5285,1.5423,1.5536,1.565,1.5772,1.5951,1.5983,1.6007,1.6007,1.6007,1.6007,1.6007,1.6007,1.6007,1.6007,1.6007,1.6007,1.6007,1.6007,1.6213,1.6451,1.6657,1.6821,1.6985,1.7281,1.6949,1.6554,1.6168,1.5941,1.5868,1.5917,1.5844,1.5891,1.5948,1.5865,1.5885,1.5945,1.6055,1.6233,1.6585,1.6722,1.703,1.7548,1.8015,1.8232,1.9292,2.056,2.1746,2.2492,2.3003,2.3167,2.3114,2.3294,2.3765,2.3892,2.373,2.362,2.3571,2.3492,2.3324,2.3121,2.3004,2.2899,2.2686,2.2485,2.2418,2.2325,2.2178,2.2058,2.1911,2.1729,2.1489,2.1234,2.1007,2.0842,2.0624,2.0508,2.0468,2.0401,2.021,2.0147,2.004,1.9987,1.992,1.9947,1.9947,1.988,1.98,1.9679,1.9693,1.9813,1.9947,2.0107,2.0174,2.0197,2.0267,2.0355,2.0918,2.1778,2.3318,1.5601,1.5327,1.5691,1.5723,1.5626,1.5829,1.591,1.5813,1.5853,1.5756,1.561,1.5626,1.5536,1.5213,1.539,1.5447,1.539,1.5569,1.5699,1.5837,1.5959,1.5983,1.6007,1.6007,1.6007,1.6007,1.6007,1.6007,1.6007,1.6007,1.6007,1.6007,1.6007,1.6163,1.6534,1.6772,1.6944,1.7191,1.7437,1.7609,1.7568,1.727,1.7188,1.7071,1.7071,1.708,1.7077,1.7239,1.7297,1.7168,1.696,1.7181,1.7517,1.7852,1.8297,1.8816,1.9095,1.9581,2.0001,2.0121,2.114,2.2435,2.33,2.3417,2.3844,2.4164,2.4129,2.4077,2.4379,2.4379,2.4233,2.4073,2.4007,2.3834,2.3656,2.3417,2.3252,2.3086,2.292,2.2806,2.2766,2.2605,2.2405,2.2298,2.2205,2.2024,2.177,2.1515,2.1341,2.1234,2.1051,2.1002,2.0895,2.0557,2.0304,2.0317,2.025,2.0197,2.0187,2.0201,2.0201,2.0144,2.0037,1.9933,1.997,2.0104,2.0237,2.0388,2.0414,2.0454,2.0548,2.0773,2.1251,2.2291,2.3852]},{"header":{"parameterUnit":"m.s-1","parameterCategory":1,"la1":31.0,"la2":29.5877,"lo1":-88.7671,"lo2":-86.6584,"dy":0.0162,"dx":0.0185,"nx":115,"ny":88,"refTime":"2023-09-29T12:00:00:Z","depth":0,"parameterNumber":3,"parameterNumberName":"V-component_of_WINDS"},"data":[0.0,0.0,0.0,0.0,0.0,0.0,0.0,0.0,0.0,0.0,0.0,0.0,0.0,0.0,0.0,0.0,0.0,0.0,0.0,0.0,0.0,0.0,0.0,0.0,0.0,0.0,0.0,0.0,0.0,0.0,0.0,0.0,0.0,0.0,0.0,0.0,0.0,0.0,0.0,0.0,0.0,0.0,0.0,0.0,0.0,0.0,0.0,0.0,0.0,0.0,0.0,0.0,0.0,0.0,0.0,0.0,0.0,0.0,0.0,0.0,0.0,0.0,0.0,0.0,0.0,0.0,0.0,0.0,0.0,0.0,0.0,0.0,0.0,0.0,0.0,0.0,0.0,0.0,0.0,0.0,0.0,0.0,0.0,0.0,0.0,0.0,0.0,0.0,0.0,0.0,0.0,0.0,0.0,0.0,0.0,0.0,0.0,0.0,0.0,0.0,0.0,0.0,0.0,0.0,0.0,0.0,0.0,0.0,0.0,0.0,0.0,0.0,0.0,0.0,0.0,0.0,0.0,0.0,0.0,0.0,0.0,0.0,0.0,0.0,0.0,0.0,0.0,0.0,0.0,0.0,0.0,0.0,0.0,0.0,0.0,0.0,0.0,0.0,0.0,0.0,0.0,0.0,0.0,0.0,0.0,0.0,0.0,0.0,0.0,0.0,0.0,0.0,0.0,0.0,0.0,0.0,0.0,0.0,0.0,0.0,0.0,0.0,0.0,0.0,0.0,0.0,0.0,0.0,0.0,0.0,0.0,0.0,0.0,0.0,0.0,0.0,0.0,0.0,0.0,0.0,0.0,0.0,0.0,0.0,0.0,0.0,0.0,0.0,0.0,0.0,0.0,0.0,0.0,0.0,0.0,0.0,0.0,0.0,0.0,0.0,0.0,0.0,0.0,0.0,0.0,0.0,0.0,0.0,0.0,0.0,0.0,0.0,0.0,0.0,0.0,0.0,0.0,0.0,0.0,0.0,0.0,0.0,0.0,0.0,0.0,0.0,0.0,0.0,0.0,0.0,0.0,0.0,0.0,0.0,0.0,0.0,0.0,0.0,0.0,0.0,0.0,0.0,0.0,0.0,0.0,0.0,0.0,0.0,0.0,0.0,0.0,0.0,0.0,0.0,0.0,0.0,0.0,0.0,0.0,0.0,0.0,0.0,0.0,0.0,0.0,0.0,0.0,0.0,0.0,0.0,0.0,0.0,0.0,0.0,0.0,0.0,0.0,0.0,0.0,0.0,0.0,0.0,0.0,0.0,0.0,0.0,0.0,0.0,0.0,0.0,0.0,0.0,0.0,0.0,0.0,0.0,0.0,0.0,0.0,0.0,0.0,0.0,0.0,0.0,0.0,0.0,0.0,0.0,0.0,0.0,0.0,0.0,0.0,0.0,0.0,0.0,0.0,0.0,0.0,0.0,0.0,0.0,0.0,0.0,0.0,0.0,0.0,0.0,0.0,0.0,0.0,0.0,0.0,0.0,0.0,0.0,0.0,0.0,0.0,0.0,0.0,0.0,0.0,0.0,0.0,0.0,0.0,0.0,0.0,0.0,0.0,0.0,0.0,0.0,0.0,0.0,0.0,0.0,0.0,0.0,0.0,0.0,0.0,0.0,0.0,0.0,0.0,0.0,0.0,0.0,0.0,0.0,0.0,0.0,0.0,0.0,0.0,0.0,0.0,0.0,0.0,0.0,0.0,0.0,0.0,0.0,0.0,0.0,0.0,0.0,0.0,0.0,0.0,0.0,0.0,0.0,0.0,0.0,0.0,0.0,0.0,0.0,0.0,0.0,0.0,0.0,0.0,0.0,0.0,0.0,0.0,0.0,0.0,0.0,0.0,0.0,0.0,0.0,0.0,0.0,0.0,0.0,0.0,0.0,0.0,0.0,0.0,0.0,0.0,0.0,0.0,0.0,0.0,0.0,0.0,0.0,0.0,0.0,0.0,0.0,0.0,0.0,0.0,0.0,0.0,0.0,0.0,0.0,0.0,0.0,0.0,0.0,0.0,0.0,0.0,0.0,0.0,0.0,0.0,0.0,0.0,0.0,0.0,0.0,0.0,0.0,0.0,0.0,0.0,0.0,0.0,0.0,0.0,0.0,0.0,0.0,0.0,0.0,0.0,0.0,0.0,0.0,0.0,0.0,0.0,0.0,0.0,0.0,0.0,0.0,0.0,0.0,0.0,0.0,0.0,0.0,0.0,0.0,0.0,0.0,0.0,0.0,0.0,0.0,0.0,0.0,0.0,0.0,0.0,0.0,0.0,0.0,0.0,0.0,0.0,0.0,0.0,0.0,0.0,0.0,0.0,0.0,0.0,0.0,0.0,0.0,0.0,0.0,0.0,0.0,0.0,0.0,0.0,0.0,0.0,0.0,0.0,0.0,0.0,0.0,0.0,0.0,0.0,0.0,0.0,0.0,0.0,0.0,0.0,0.0,0.0,0.0,0.0,0.0,0.0,0.0,0.0,0.0,0.0,0.0,0.0,0.0,0.0,0.0,0.0,0.0,0.0,0.0,0.0,0.0,0.0,0.0,0.0,0.0,0.0,0.0,0.0,0.0,0.0,0.0,0.0,0.0,0.0,0.0,0.0,0.0,0.0,0.0,0.0,0.0,0.0,0.0,0.0,0.0,0.0,0.0,0.0,0.0,0.0,0.0,0.0,0.0,0.0,0.0,0.0,0.0,0.0,0.0,0.0,0.0,0.0,0.0,0.0,0.0,0.0,0.0,0.0,0.0,0.0,0.0,0.0,0.0,0.0,0.0,0.0,0.0,0.0,0.0,0.0,0.0,0.0,0.0,0.0,0.0,0.0,0.0,0.0,0.0,0.0,0.0,0.0,0.0,0.0,0.0,0.0,0.0,0.0,0.0,0.0,0.0,0.0,0.0,0.0,0.0,0.0,0.0,0.0,0.0,0.0,0.0,0.0,0.0,0.0,0.0,0.0,0.0,0.0,0.0,0.0,0.0,0.0,0.0,0.0,0.0,0.0,0.0,0.0,0.0,0.0,0.0,0.0,0.0,0.0,0.0,0.0,0.0,0.0,0.0,0.0,0.0,0.0,0.0,0.0,0.0,0.0,0.0,0.0,0.0,0.0,0.0,0.0,0.0,0.0,0.0,0.0,0.0,0.0,0.0,0.0,0.0,0.0,0.0,0.0,0.0,0.0,0.0,0.0,0.0,0.0,0.0,0.0,0.0,0.0,0.0,0.0,0.0,0.0,0.0,0.0,0.0,0.0,0.0,0.0,0.0,0.0,0.0,0.0,0.0,0.0,0.0,0.0,0.0,0.0,0.0,0.0,0.0,0.0,0.0,0.0,0.0,0.0,0.0,0.0,0.0,0.0,0.0,0.0,0.0,0.0,0.0,0.0,0.0,0.0,0.0,0.0,0.0,0.0,0.0,0.0,0.0,0.0,0.0,0.0,0.0,0.0,0.0,0.0,0.0,0.0,0.0,0.0,0.0,0.0,0.0,0.0,0.0,0.0,0.0,0.0,0.0,0.0,0.0,0.0,0.0,0.0,0.0,0.0,0.0,0.0,0.0,0.0,0.0,0.0,0.0,0.0,0.0,0.0,0.0,0.0,0.0,0.0,0.0,0.0,0.0,0.0,0.0,0.0,0.0,0.0,0.0,0.0,0.0,0.0,0.0,0.0,0.0,0.0,0.0,0.0,0.0,0.0,0.0,0.0,0.0,0.0,0.0,0.0,0.0,0.0,0.0,0.0,0.0,0.0,0.0,0.0,0.0,0.0,0.0,0.0,0.0,0.0,0.0,0.0,0.0,0.0,0.0,0.0,0.0,0.0,0.0,0.0,0.0,0.0,0.0,0.0,0.0,0.0,0.0,0.0,0.0,0.0,0.0,0.0,0.0,0.0,0.0,0.0,0.0,0.0,0.0,0.0,0.0,0.0,0.0,0.0,0.0,0.0,0.0,0.0,0.0,0.0,0.0,0.0,0.0,0.0,0.0,0.0,0.0,0.0,0.0,0.0,0.0,0.0,0.0,0.0,0.0,0.0,0.0,0.0,0.0,0.0,0.0,0.0,0.0,0.0,0.0,0.0,0.0,0.0,0.0,0.0,0.0,0.0,0.0,0.0,0.0,0.0,0.0,0.0,0.0,0.0,0.0,0.0,0.0,0.0,0.0,0.0,0.0,0.0,0.0,0.0,0.0,0.0,0.0,0.0,0.0,0.0,0.0,0.0,0.0,0.0,0.0,0.0,0.0,0.0,0.0,0.0,0.0,0.0,0.0,0.0,0.0,0.0,0.0,0.0,0.0,2.3232,0.0,0.0,0.0,0.0,0.0,0.0,0.0,0.0,0.0,0.0,0.0,0.0,0.0,0.0,0.0,0.0,0.0,0.0,0.0,0.0,0.0,0.0,0.0,0.0,0.0,0.0,0.0,0.0,0.0,0.0,0.0,0.0,0.0,0.0,0.0,0.0,0.0,0.0,0.0,0.0,0.0,0.0,0.0,0.0,0.0,0.0,0.0,0.0,0.0,0.0,0.0,0.0,0.0,0.0,0.0,0.0,0.0,0.0,0.0,0.0,0.0,0.0,0.0,0.0,0.0,0.0,0.0,0.0,0.0,0.0,0.0,0.0,0.0,0.0,0.0,0.0,0.0,0.0,0.0,0.0,0.0,0.0,0.0,0.0,0.0,0.0,0.0,0.0,0.0,0.0,0.0,0.0,0.0,0.0,0.0,0.0,0.0,0.0,0.0,0.0,0.0,0.0,0.0,0.0,0.0,0.0,0.0,0.0,0.0,0.0,2.6174,2.5382,2.6948,2.665,2.4257,0.0,0.0,0.0,0.0,0.0,0.0,0.0,0.0,0.0,0.0,0.0,0.0,0.0,0.0,0.0,0.0,0.0,0.0,0.0,0.0,0.0,0.0,0.0,0.0,0.0,0.0,0.0,0.0,0.0,0.0,0.0,0.0,0.0,0.0,0.0,0.0,0.0,0.0,0.0,0.0,0.0,0.0,0.0,0.0,0.0,0.0,0.0,0.0,0.0,0.0,0.0,0.0,0.0,0.0,0.0,0.0,0.0,0.0,0.0,0.0,0.0,0.0,0.0,0.0,0.0,0.0,0.0,0.0,0.0,0.0,0.0,0.0,0.0,0.0,0.0,0.0,0.0,0.0,0.0,0.0,0.0,0.0,0.0,0.0,0.0,0.0,0.0,0.0,0.0,0.0,0.0,0.0,0.0,0.0,0.0,0.0,0.0,0.0,0.0,0.0,0.0,0.0,0.0,0.0,0.0,0.0,0.0,0.0,0.0,0.0,0.0,0.0,2.8124,2.8058,2.6538,0.0,0.0,0.0,0.0,0.0,0.0,0.0,0.0,0.0,0.0,0.0,0.0,0.0,0.0,0.0,0.0,0.0,0.0,0.0,0.0,0.0,0.0,0.0,0.0,0.0,0.0,0.0,0.0,0.0,0.0,0.0,0.0,0.0,0.0,0.0,0.0,0.0,0.0,0.0,0.0,0.0,0.0,0.0,0.0,0.0,0.0,0.0,0.0,0.0,0.0,0.0,0.0,0.0,0.0,0.0,0.0,0.0,0.0,0.0,0.0,0.0,0.0,0.0,0.0,0.0,0.0,0.0,0.0,0.0,0.0,0.0,0.0,0.0,0.0,0.0,0.0,0.0,0.0,0.0,0.0,0.0,0.0,0.0,0.0,0.0,0.0,0.0,0.0,0.0,0.0,0.0,0.0,0.0,0.0,0.0,0.0,0.0,0.0,0.0,0.0,0.0,0.0,0.0,0.0,0.0,0.0,0.0,0.0,0.0,0.0,2.737,3.1186,3.1399,0.0,2.9837,0.0,0.0,0.0,0.0,0.0,0.0,0.0,0.0,0.0,0.0,0.0,0.0,0.0,0.0,0.0,0.0,0.0,0.0,0.0,0.0,0.0,0.0,0.0,0.0,0.0,0.0,0.0,0.0,0.0,0.0,0.0,0.0,0.0,0.0,0.0,0.0,0.0,0.0,0.0,0.0,0.0,0.0,0.0,0.0,0.0,0.0,0.0,0.0,0.0,0.0,0.0,0.0,0.0,0.0,0.0,0.0,0.0,0.0,0.0,0.0,0.0,0.0,0.0,0.0,0.0,0.0,0.0,0.0,0.0,0.0,0.0,0.0,0.0,0.0,0.0,0.0,0.0,0.0,0.0,0.0,0.0,0.0,0.0,0.0,0.0,0.0,0.0,0.0,0.0,0.0,0.0,0.0,0.0,0.0,0.0,0.0,0.0,0.0,0.0,0.0,0.0,0.0,0.0,0.0,0.0,0.0,0.0,0.0,0.0,0.0,2.8145,3.1941,3.1474,2.9523,0.0,0.0,0.0,0.0,0.0,0.0,0.0,0.0,0.0,0.0,0.0,0.0,0.0,0.0,0.0,0.0,0.0,0.0,0.0,0.0,0.0,0.0,0.0,0.0,0.0,0.0,0.0,0.0,0.0,0.0,0.0,0.0,0.0,0.0,0.0,0.0,0.0,0.0,0.0,0.0,0.0,0.0,0.0,0.0,0.0,0.0,0.0,0.0,0.0,0.0,0.0,0.0,0.0,0.0,0.0,0.0,0.0,0.0,0.0,0.0,0.0,0.0,0.0,0.0,0.0,0.0,0.0,0.0,0.0,0.0,0.0,0.0,0.0,0.0,0.0,0.0,0.0,0.0,0.0,0.0,0.0,0.0,0.0,0.0,0.0,0.0,0.0,0.0,0.0,0.0,0.0,0.0,0.0,0.0,0.0,0.0,0.0,0.0,0.0,0.0,0.0,0.0,0.0,0.0,0.0,0.0,0.0,0.0,0.0,0.0,2.8359,2.9805,3.3125,3.0732,2.7761,2.4717,0.0,0.0,0.0,0.0,0.0,0.0,0.0,0.0,0.0,0.0,0.0,0.0,0.0,0.0,0.0,0.0,0.0,0.0,0.0,0.0,0.0,0.0,0.0,0.0,0.0,0.0,0.0,0.0,0.0,0.0,0.0,0.0,0.0,0.0,0.0,0.0,0.0,0.0,0.0,0.0,0.0,0.0,0.0,0.0,0.0,0.0,0.0,0.0,0.0,0.0,0.0,0.0,0.0,0.0,0.0,0.0,0.0,0.0,0.0,0.0,0.0,0.0,0.0,0.0,0.0,0.0,0.0,0.0,0.0,0.0,0.0,0.0,0.0,0.0,0.0,0.0,0.0,0.0,0.0,0.0,0.0,0.0,0.0,0.0,0.0,0.0,0.0,0.0,0.0,0.0,0.0,0.0,0.0,0.0,0.0,0.0,0.0,0.0,0.0,0.0,0.0,0.0,0.0,0.0,0.0,0.0,0.0,0.0,3.602,3.2634,3.2688,3.6601,2.9648,2.6716,0.0,0.0,0.0,0.0,0.0,0.0,0.0,0.0,0.0,0.0,0.0,0.0,0.0,0.0,0.0,0.0,0.0,0.0,0.0,0.0,0.0,0.0,0.0,0.0,0.0,0.0,0.0,0.0,0.0,0.0,0.0,0.0,0.0,0.0,0.0,0.0,0.0,0.0,0.0,0.0,0.0,0.0,0.0,0.0,0.0,0.0,0.0,0.0,0.0,0.0,0.0,0.0,0.0,0.0,0.0,0.0,0.0,0.0,0.0,0.0,0.0,0.0,0.0,0.0,0.0,0.0,0.0,0.0,0.0,0.0,0.0,0.0,0.0,0.0,0.0,0.0,0.0,0.0,0.0,0.0,0.0,0.0,0.0,0.0,0.0,0.0,0.0,0.0,0.0,0.0,0.0,0.0,0.0,0.0,0.0,0.0,0.0,0.0,0.0,0.0,0.0,0.0,0.0,0.0,0.0,0.0,0.0,0.0,0.0,2.9674,3.1434,3.2624,3.3038,3.0843,2.9092,0.0,0.0,0.0,0.0,0.0,0.0,0.0,0.0,0.0,0.0,0.0,0.0,0.0,0.0,0.0,0.0,0.0,0.0,0.0,0.0,0.0,0.0,0.0,0.0,0.0,0.0,0.0,0.0,0.0,0.0,0.0,0.0,0.0,0.0,0.0,0.0,0.0,0.0,0.0,0.0,0.0,0.0,0.0,0.0,0.0,0.0,0.0,0.0,0.0,0.0,0.0,0.0,0.0,0.0,0.0,0.0,0.0,0.0,0.0,0.0,0.0,0.0,0.0,0.0,0.0,0.0,0.0,0.0,0.0,0.0,0.0,0.0,0.0,0.0,0.0,0.0,0.0,0.0,0.0,0.0,0.0,0.0,0.0,0.0,0.0,0.0,0.0,0.0,0.0,0.0,0.0,0.0,0.0,0.0,0.0,0.0,0.0,0.0,0.0,0.0,0.0,0.0,0.0,0.0,0.0,0.0,0.0,0.0,0.0,2.8548,0.0,3.4092,3.2509,3.1619,2.9673,0.0,0.0,0.0,0.0,0.0,0.0,0.0,0.0,0.0,0.0,0.0,0.0,0.0,0.0,0.0,0.0,0.0,0.0,0.0,0.0,0.0,0.0,0.0,0.0,0.0,0.0,0.0,0.0,0.0,0.0,0.0,0.0,0.0,0.0,0.0,0.0,0.0,0.0,0.0,0.0,0.0,0.0,0.0,0.0,0.0,0.0,0.0,0.0,0.0,0.0,0.0,0.0,0.0,0.0,0.0,0.0,0.0,0.0,0.0,0.0,0.0,0.0,0.0,0.0,0.0,0.0,0.0,0.0,0.0,0.0,0.0,0.0,0.0,0.0,0.0,0.0,0.0,0.0,0.0,0.0,0.0,0.0,0.0,0.0,0.0,0.0,0.0,0.0,0.0,0.0,0.0,0.0,0.0,0.0,0.0,0.0,0.0,0.0,0.0,0.0,0.0,0.0,0.0,0.0,0.0,0.0,0.0,0.0,2.8546,3.4165,3.6697,3.7168,3.5847,3.1659,2.8276,0.0,0.0,0.0,0.0,0.0,0.0,0.0,0.0,0.0,0.0,0.0,0.0,0.0,0.0,0.0,0.0,0.0,0.0,0.0,0.0,0.0,0.0,0.0,0.0,0.0,0.0,0.0,0.0,0.0,0.0,0.0,0.0,0.0,0.0,0.0,0.0,0.0,0.0,0.0,0.0,0.0,0.0,0.0,0.0,0.0,0.0,0.0,0.0,0.0,0.0,0.0,0.0,0.0,0.0,0.0,0.0,0.0,0.0,0.0,0.0,0.0,0.0,0.0,0.0,0.0,0.0,0.0,0.0,0.0,0.0,0.0,0.0,0.0,0.0,0.0,0.0,0.0,0.0,0.0,0.0,0.0,0.0,0.0,0.0,0.0,0.0,0.0,0.0,0.0,0.0,0.0,0.0,0.0,0.0,0.0,0.0,0.0,0.0,0.0,0.0,0.0,0.0,0.0,0.0,0.0,0.0,0.0,0.0,0.0,3.0197,3.373,3.6272,3.7356,3.227,3.0135,0.0,0.0,0.0,0.0,0.0,0.0,0.0,0.0,0.0,0.0,0.0,0.0,0.0,0.0,0.0,0.0,0.0,0.0,0.0,0.0,0.0,0.0,0.0,0.0,0.0,0.0,0.0,0.0,0.0,0.0,0.0,0.0,0.0,0.0,0.0,0.0,0.0,0.0,0.0,0.0,0.0,0.0,0.0,0.0,0.0,0.0,0.0,0.0,0.0,0.0,0.0,0.0,0.0,0.0,0.0,0.0,0.0,0.0,0.0,0.0,0.0,0.0,0.0,0.0,0.0,0.0,0.0,0.0,0.0,0.0,0.0,0.0,0.0,0.0,0.0,0.0,0.0,0.0,0.0,0.0,0.0,0.0,0.0,0.0,0.0,0.0,0.0,0.0,0.0,0.0,0.0,0.0,0.0,0.0,0.0,0.0,0.0,0.0,0.0,0.0,0.0,0.0,0.0,0.0,0.0,0.0,0.0,0.0,0.0,3.2014,3.6023,3.844,3.8828,3.452,3.2206,3.2121,0.0,0.0,0.0,0.0,0.0,0.0,0.0,0.0,0.0,0.0,0.0,0.0,0.0,0.0,0.0,0.0,0.0,0.0,0.0,0.0,0.0,0.0,0.0,0.0,0.0,0.0,0.0,0.0,0.0,0.0,0.0,0.0,0.0,0.0,0.0,0.0,0.0,0.0,0.0,0.0,0.0,0.0,0.0,0.0,0.0,0.0,0.0,0.0,0.0,0.0,0.0,0.0,0.0,0.0,0.0,0.0,0.0,0.0,0.0,0.0,0.0,0.0,0.0,0.0,0.0,0.0,0.0,0.0,0.0,0.0,0.0,0.0,0.0,0.0,0.0,0.0,0.0,0.0,0.0,0.0,0.0,0.0,0.0,0.0,0.0,0.0,0.0,0.0,0.0,0.0,0.0,0.0,0.0,0.0,0.0,0.0,0.0,0.0,0.0,0.0,0.0,0.0,0.0,0.0,0.0,0.0,0.0,0.0,3.8207,4.2637,4.3427,4.0181,3.7982,3.4342,0.0,0.0,0.0,0.0,0.0,0.0,0.0,0.0,0.0,0.0,0.0,0.0,0.0,0.0,0.0,0.0,0.0,0.0,0.0,0.0,0.0,0.0,0.0,0.0,0.0,0.0,0.0,0.0,0.0,0.0,0.0,0.0,0.0,0.0,0.0,0.0,0.0,0.0,0.0,0.0,0.0,0.0,0.0,0.0,0.0,0.0,0.0,0.0,0.0,0.0,0.0,0.0,0.0,0.0,0.0,0.0,0.0,0.0,0.0,0.0,0.0,0.0,0.0,0.0,0.0,0.0,0.0,0.0,0.0,0.0,0.0,0.0,0.0,0.0,0.0,0.0,0.0,0.0,0.0,0.0,0.0,0.0,0.0,0.0,0.0,0.0,0.0,0.0,0.0,0.0,0.0,0.0,0.0,0.0,0.0,0.0,0.0,0.0,0.0,0.0,0.0,0.0,0.0,0.0,0.0,0.0,0.0,0.0,0.0,4.1643,4.7213,4.8618,4.524,3.931,3.5688,0.0,0.0,0.0,0.0,0.0,0.0,0.0,0.0,0.0,0.0,0.0,0.0,0.0,0.0,0.0,0.0,0.0,0.0,0.0,0.0,0.0,0.0,0.0,0.0,0.0,0.0,0.0,0.0,0.0,0.0,0.0,0.0,0.0,0.0,0.0,0.0,0.0,0.0,0.0,0.0,0.0,0.0,0.0,0.0,0.0,0.0,0.0,0.0,0.0,0.0,0.0,0.0,0.0,0.0,0.0,0.0,0.0,0.0,0.0,0.0,0.0,0.0,0.0,0.0,0.0,0.0,0.0,0.0,0.0,0.0,0.0,0.0,0.0,0.0,0.0,0.0,0.0,0.0,0.0,0.0,0.0,0.0,0.0,0.0,0.0,0.0,0.0,0.0,0.0,0.0,0.0,0.0,0.0,0.0,0.0,0.0,0.0,0.0,0.0,0.0,0.0,0.0,0.0,0.0,0.0,0.0,0.0,0.0,4.1134,4.4524,5.0945,5.2858,4.9838,4.3479,3.8576,0.0,0.0,0.0,0.0,0.0,0.0,0.0,0.0,0.0,0.0,0.0,0.0,0.0,0.0,0.0,0.0,0.0,0.0,0.0,0.0,0.0,0.0,0.0,0.0,0.0,0.0,0.0,0.0,0.0,0.0,0.0,0.0,0.0,0.0,0.0,0.0,0.0,0.0,0.0,0.0,0.0,0.0,0.0,0.0,0.0,0.0,0.0,0.0,0.0,0.0,0.0,0.0,0.0,0.0,0.0,0.0,0.0,0.0,0.0,0.0,0.0,0.0,0.0,0.0,0.0,0.0,0.0,0.0,0.0,0.0,0.0,0.0,0.0,0.0,0.0,0.0,0.0,0.0,0.0,0.0,0.0,0.0,0.0,0.0,0.0,0.0,0.0,0.0,0.0,0.0,0.0,0.0,0.0,0.0,0.0,0.0,0.0,0.0,0.0,0.0,0.0,0.0,0.0,0.0,0.0,0.0,0.0,0.0,4.4281,4.7043,5.3585,5.5832,5.3272,4.8336,4.1925,0.0,0.0,0.0,0.0,0.0,0.0,0.0,0.0,0.0,0.0,0.0,0.0,0.0,0.0,0.0,0.0,0.0,0.0,0.0,0.0,0.0,0.0,0.0,0.0,0.0,0.0,0.0,0.0,0.0,0.0,0.0,0.0,0.0,0.0,0.0,0.0,0.0,0.0,0.0,0.0,0.0,0.0,0.0,0.0,0.0,0.0,0.0,0.0,0.0,0.0,0.0,0.0,0.0,0.0,0.0,0.0,0.0,0.0,0.0,0.0,0.0,0.0,0.0,0.0,0.0,0.0,0.0,0.0,0.0,0.0,0.0,0.0,0.0,0.0,0.0,0.0,0.0,0.0,0.0,0.0,0.0,0.0,0.0,0.0,0.0,0.0,0.0,0.0,0.0,0.0,0.0,0.0,0.0,0.0,0.0,0.0,0.0,0.0,0.0,0.0,0.0,0.0,0.0,0.0,0.0,0.0,0.0,0.0,4.4141,4.8702,5.3552,5.5205,5.3302,4.7097,4.1734,0.0,0.0,0.0,0.0,0.0,0.0,0.0,0.0,0.0,0.0,0.0,0.0,0.0,0.0,0.0,0.0,0.0,0.0,0.0,0.0,0.0,0.0,0.0,0.0,0.0,0.0,0.0,0.0,0.0,0.0,0.0,0.0,0.0,0.0,0.0,0.0,0.0,0.0,0.0,0.0,0.0,0.0,0.0,0.0,0.0,0.0,0.0,0.0,3.1058,0.0,0.0,0.0,0.0,0.0,0.0,0.0,0.0,0.0,0.0,0.0,0.0,0.0,0.0,0.0,0.0,0.0,0.0,0.0,0.0,0.0,0.0,0.0,0.0,0.0,0.0,0.0,0.0,0.0,0.0,0.0,0.0,0.0,0.0,0.0,0.0,0.0,0.0,0.0,0.0,0.0,0.0,0.0,0.0,0.0,0.0,0.0,0.0,0.0,0.0,0.0,0.0,0.0,0.0,0.0,0.0,0.0,0.0,0.0,4.4483,4.9302,5.2806,5.4202,5.3099,4.7477,4.2438,0.0,0.0,0.0,0.0,0.0,0.0,0.0,0.0,0.0,0.0,0.0,0.0,0.0,0.0,0.0,0.0,0.0,0.0,0.0,0.0,0.0,0.0,0.0,0.0,0.0,0.0,0.0,0.0,0.0,0.0,0.0,0.0,0.0,0.0,0.0,0.0,0.0,0.0,0.0,0.0,0.0,0.0,0.0,0.0,0.0,0.0,0.0,0.0,0.0,0.0,0.0,0.0,0.0,0.0,0.0,0.0,0.0,0.0,0.0,0.0,0.0,0.0,0.0,0.0,0.0,0.0,0.0,0.0,0.0,0.0,0.0,0.0,0.0,0.0,0.0,0.0,0.0,0.0,0.0,0.0,0.0,0.0,0.0,0.0,0.0,0.0,0.0,0.0,0.0,0.0,0.0,0.0,0.0,0.0,0.0,0.0,0.0,0.0,0.0,0.0,0.0,0.0,0.0,0.0,0.0,0.0,0.0,4.0363,4.4926,4.971,5.2107,5.3123,5.2726,4.812,4.3208,3.819,0.0,0.0,0.0,0.0,0.0,0.0,0.0,0.0,0.0,0.0,0.0,0.0,0.0,0.0,0.0,0.0,0.0,0.0,0.0,0.0,0.0,0.0,0.0,0.0,0.0,0.0,0.0,0.0,0.0,0.0,0.0,0.0,0.0,0.0,0.0,0.0,0.0,0.0,2.6872,2.832,0.0,0.0,0.0,0.0,0.0,0.0,0.0,0.0,3.1478,0.0,0.0,0.0,0.0,0.0,0.0,0.0,0.0,0.0,0.0,0.0,0.0,0.0,0.0,0.0,0.0,0.0,0.0,0.0,0.0,0.0,0.0,0.0,0.0,0.0,0.0,0.0,0.0,0.0,0.0,0.0,0.0,0.0,0.0,0.0,0.0,0.0,0.0,0.0,0.0,0.0,0.0,0.0,0.0,0.0,0.0,0.0,0.0,0.0,0.0,0.0,0.0,0.0,0.0,0.0,0.0,3.9561,4.1029,4.4892,5.1385,5.2572,5.2443,5.1017,4.7458,4.2861,3.73,0.0,0.0,0.0,0.0,0.0,0.0,0.0,0.0,0.0,0.0,0.0,0.0,0.0,0.0,0.0,0.0,0.0,0.0,0.0,0.0,0.0,0.0,0.0,0.0,0.0,0.0,0.0,0.0,0.0,0.0,0.0,0.0,0.0,0.0,0.0,0.0,0.0,0.0,0.0,3.3926,3.4413,0.0,0.0,0.0,0.0,0.0,0.0,0.0,0.0,3.2723,0.0,0.0,0.0,0.0,0.0,0.0,0.0,0.0,0.0,0.0,0.0,0.0,0.0,0.0,0.0,0.0,0.0,0.0,0.0,0.0,0.0,0.0,0.0,0.0,0.0,0.0,0.0,0.0,0.0,0.0,0.0,0.0,0.0,0.0,0.0,0.0,0.0,0.0,0.0,0.0,0.0,0.0,0.0,0.0,0.0,0.0,0.0,0.0,0.0,0.0,0.0,0.0,0.0,0.0,0.0,3.8167,4.0856,4.4724,4.9769,5.0298,5.0129,4.9312,4.5586,4.1475,0.0,0.0,0.0,0.0,0.0,0.0,0.0,0.0,0.0,0.0,0.0,0.0,0.0,0.0,0.0,0.0,0.0,0.0,0.0,0.0,0.0,0.0,0.0,0.0,0.0,0.0,0.0,0.0,0.0,0.0,0.0,0.0,0.0,0.0,0.0,0.0,0.0,0.0,0.0,0.0,3.5673,3.6823,3.7687,0.0,0.0,0.0,0.0,0.0,0.0,3.3705,3.2344,0.0,0.0,0.0,0.0,0.0,0.0,0.0,0.0,0.0,0.0,0.0,0.0,0.0,0.0,0.0,0.0,0.0,0.0,0.0,0.0,0.0,0.0,0.0,0.0,0.0,0.0,0.0,0.0,0.0,0.0,0.0,0.0,0.0,0.0,0.0,0.0,0.0,0.0,0.0,0.0,0.0,0.0,0.0,0.0,0.0,0.0,0.0,0.0,0.0,0.0,0.0,0.0,0.0,0.0,0.0,3.6375,4.0507,4.4416,4.7951,4.8148,4.8016,4.7675,4.3551,3.9812,0.0,0.0,0.0,0.0,0.0,0.0,0.0,0.0,0.0,0.0,0.0,0.0,0.0,0.0,0.0,0.0,0.0,0.0,0.0,0.0,0.0,0.0,0.0,0.0,0.0,0.0,0.0,0.0,0.0,0.0,0.0,0.0,0.0,0.0,0.0,0.0,0.0,0.0,0.0,0.0,0.0,3.912,4.0228,3.9101,0.0,0.0,0.0,0.0,3.3983,3.4413,0.0,0.0,0.0,0.0,0.0,0.0,0.0,0.0,0.0,0.0,0.0,0.0,0.0,0.0,0.0,0.0,0.0,0.0,0.0,0.0,0.0,0.0,0.0,0.0,0.0,0.0,0.0,0.0,0.0,0.0,0.0,0.0,0.0,0.0,0.0,0.0,0.0,0.0,0.0,0.0,0.0,0.0,0.0,0.0,0.0,0.0,0.0,0.0,0.0,0.0,0.0,0.0,0.0,0.0,0.0,0.0,3.6362,4.0112,4.4033,4.8009,4.8279,4.7567,4.6067,4.1914,3.8147,0.0,0.0,0.0,0.0,0.0,0.0,0.0,0.0,0.0,0.0,0.0,0.0,0.0,0.0,0.0,0.0,0.0,0.0,0.0,0.0,0.0,0.0,0.0,0.0,0.0,0.0,0.0,0.0,0.0,0.0,0.0,0.0,0.0,0.0,0.0,0.0,0.0,0.0,0.0,0.0,0.0,4.2766,3.9179,4.0468,4.0312,0.0,0.0,4.026,4.0914,4.2932,0.0,0.0,0.0,0.0,0.0,0.0,0.0,0.0,0.0,0.0,0.0,0.0,0.0,0.0,0.0,0.0,0.0,0.0,0.0,0.0,0.0,0.0,0.0,0.0,0.0,0.0,0.0,0.0,0.0,0.0,0.0,0.0,0.0,0.0,0.0,0.0,0.0,0.0,0.0,0.0,0.0,0.0,0.0,0.0,0.0,0.0,0.0,0.0,0.0,0.0,0.0,0.0,0.0,0.0,0.0,3.2243,3.5023,3.9557,4.3053,4.5287,4.5403,4.5086,4.4376,4.0204,3.6898,0.0,0.0,0.0,0.0,0.0,0.0,0.0,0.0,0.0,0.0,0.0,0.0,0.0,0.0,0.0,0.0,0.0,0.0,0.0,0.0,0.0,0.0,0.0,0.0,0.0,0.0,0.0,0.0,0.0,0.0,0.0,0.0,0.0,0.0,0.0,0.0,0.0,0.0,0.0,0.0,0.0,0.0,4.289,4.414,0.0,0.0,0.0,4.1551,4.0838,0.0,0.0,0.0,0.0,0.0,0.0,0.0,0.0,0.0,0.0,0.0,0.0,0.0,0.0,0.0,0.0,0.0,0.0,0.0,0.0,0.0,0.0,0.0,0.0,0.0,0.0,0.0,0.0,0.0,0.0,0.0,0.0,0.0,0.0,0.0,0.0,0.0,0.0,0.0,0.0,0.0,0.0,0.0,0.0,0.0,0.0,0.0,0.0,0.0,0.0,0.0,0.0,0.0,0.0,0.0,0.0,0.0,3.3957,3.9198,4.2353,4.3209,4.3213,4.3171,4.297,3.9483,0.0,0.0,0.0,0.0,0.0,0.0,0.0,0.0,0.0,0.0,0.0,0.0,0.0,0.0,0.0,0.0,0.0,0.0,0.0,0.0,0.0,0.0,0.0,0.0,0.0,0.0,0.0,2.6484,0.0,0.0,0.0,0.0,0.0,0.0,0.0,0.0,0.0,0.0,0.0,0.0,0.0,0.0,4.4687,4.5038,4.6444,4.7333,0.0,0.0,4.2521,4.1381,4.3164,4.2636,0.0,0.0,0.0,0.0,0.0,0.0,0.0,0.0,0.0,0.0,0.0,0.0,0.0,0.0,0.0,0.0,0.0,0.0,0.0,0.0,0.0,0.0,0.0,0.0,0.0,0.0,0.0,0.0,0.0,0.0,0.0,0.0,0.0,0.0,0.0,0.0,0.0,0.0,0.0,0.0,0.0,0.0,0.0,0.0,0.0,0.0,0.0,0.0,0.0,0.0,0.0,0.0,0.0,0.0,3.2311,3.4017,3.9231,4.2402,4.3247,4.3289,4.2971,4.2255,4.0426,3.7503,0.0,0.0,0.0,0.0,0.0,0.0,0.0,0.0,0.0,0.0,0.0,0.0,0.0,0.0,0.0,0.0,0.0,0.0,0.0,0.0,0.0,0.0,0.0,0.0,0.0,0.0,0.0,0.0,0.0,0.0,0.0,0.0,0.0,0.0,0.0,0.0,0.0,0.0,0.0,0.0,0.0,4.3437,4.2645,4.539,4.8072,0.0,0.0,4.4911,4.5472,4.8956,4.8846,4.0498,0.0,0.0,0.0,0.0,0.0,0.0,0.0,0.0,0.0,0.0,0.0,0.0,0.0,0.0,0.0,0.0,0.0,0.0,0.0,0.0,0.0,0.0,0.0,0.0,0.0,0.0,0.0,0.0,0.0,0.0,0.0,0.0,0.0,0.0,0.0,0.0,0.0,0.0,0.0,0.0,0.0,0.0,0.0,0.0,0.0,0.0,0.0,0.0,0.0,0.0,0.0,0.0,0.0,3.2053,3.3231,3.8514,4.1444,4.1743,4.1785,4.1659,4.1409,3.976,3.7102,0.0,0.0,0.0,0.0,0.0,0.0,0.0,0.0,0.0,0.0,0.0,0.0,0.0,0.0,0.0,0.0,0.0,0.0,0.0,0.0,0.0,0.0,0.0,0.0,0.0,0.0,0.0,0.0,3.1235,3.1159,2.9526,0.0,0.0,0.0,0.0,0.0,0.0,0.0,0.0,0.0,0.0,4.5061,4.6792,4.9113,0.0,0.0,4.8788,4.6956,4.6179,4.6948,4.5644,3.9727,3.8181,0.0,0.0,0.0,0.0,0.0,0.0,0.0,0.0,0.0,0.0,0.0,0.0,0.0,0.0,0.0,0.0,0.0,0.0,0.0,0.0,0.0,0.0,0.0,0.0,0.0,0.0,0.0,0.0,0.0,0.0,0.0,0.0,0.0,0.0,0.0,0.0,0.0,0.0,0.0,0.0,0.0,0.0,0.0,0.0,0.0,0.0,0.0,0.0,0.0,0.0,0.0,0.0,3.1824,3.236,3.791,4.0802,4.0792,4.0569,4.0493,4.0528,3.9383,3.73,0.0,0.0,0.0,0.0,0.0,0.0,0.0,0.0,0.0,0.0,0.0,0.0,0.0,0.0,0.0,0.0,0.0,0.0,0.0,0.0,0.0,0.0,0.0,0.0,0.0,0.0,0.0,0.0,3.1605,3.1106,2.957,0.0,0.0,0.0,0.0,0.0,0.0,0.0,0.0,0.0,0.0,4.6054,4.8187,4.9947,5.0847,5.0241,4.8445,4.6878,4.6156,4.5298,4.3503,3.9999,0.0,0.0,0.0,0.0,0.0,0.0,0.0,0.0,0.0,0.0,0.0,0.0,0.0,0.0,0.0,0.0,0.0,0.0,0.0,0.0,0.0,0.0,0.0,0.0,0.0,0.0,0.0,0.0,0.0,0.0,2.8106,0.0,0.0,0.0,0.0,0.0,0.0,0.0,0.0,0.0,0.0,0.0,0.0,0.0,0.0,0.0,0.0,0.0,0.0,0.0,0.0,0.0,0.0,3.1631,3.1606,3.7661,4.0792,4.0746,4.0038,3.9678,3.9728,3.9689,3.8447,3.5894,0.0,0.0,0.0,0.0,0.0,0.0,0.0,0.0,0.0,0.0,0.0,0.0,0.0,0.0,0.0,0.0,0.0,0.0,0.0,0.0,0.0,0.0,0.0,0.0,0.0,0.0,2.7422,2.7788,2.8628,0.0,0.0,0.0,0.0,0.0,0.0,0.0,0.0,0.0,0.0,4.2395,4.5838,4.5156,4.6532,4.7698,4.7625,4.5363,4.4164,4.5672,4.5204,4.4084,0.0,0.0,0.0,0.0,0.0,0.0,0.0,0.0,0.0,0.0,0.0,0.0,0.0,0.0,0.0,0.0,0.0,0.0,0.0,0.0,0.0,0.0,0.0,0.0,0.0,0.0,0.0,3.325,3.3862,0.0,0.0,0.0,0.0,0.0,0.0,0.0,0.0,0.0,0.0,0.0,3.5643,3.6312,0.0,0.0,0.0,0.0,0.0,0.0,0.0,0.0,0.0,0.0,0.0,0.0,3.152,3.1718,3.7604,4.0534,3.9943,3.9683,3.9323,3.8849,3.8853,3.7935,3.6016,0.0,0.0,0.0,0.0,0.0,0.0,0.0,0.0,0.0,0.0,0.0,0.0,0.0,0.0,0.0,0.0,0.0,0.0,0.0,0.0,0.0,0.0,0.0,0.0,0.0,2.9909,0.0,0.0,0.0,0.0,0.0,0.0,0.0,0.0,0.0,0.0,0.0,3.5976,3.8574,4.1159,4.3096,4.3898,4.5518,4.6641,0.0,0.0,0.0,0.0,0.0,0.0,0.0,0.0,0.0,0.0,0.0,0.0,0.0,0.0,4.0306,3.8794,3.9435,4.0334,4.0732,0.0,0.0,0.0,0.0,0.0,0.0,0.0,0.0,0.0,0.0,0.0,0.0,0.0,0.0,3.6447,0.0,3.5645,0.0,0.0,0.0,0.0,0.0,0.0,0.0,0.0,3.6994,3.9001,3.9647,4.0339,4.0198,0.0,3.8016,3.5355,0.0,0.0,0.0,0.0,0.0,0.0,0.0,0.0,3.1402,3.1296,3.6921,3.9795,3.9503,3.8968,3.8576,3.8398,3.843,3.7959,3.6914,3.5508,3.3828,0.0,0.0,0.0,0.0,0.0,0.0,0.0,0.0,0.0,0.0,0.0,0.0,0.0,0.0,0.0,0.0,0.0,0.0,0.0,0.0,0.0,0.0,0.0,3.1224,0.0,0.0,0.0,0.0,0.0,0.0,0.0,0.0,0.0,3.2926,3.5234,3.7533,3.9536,4.1337,4.2406,4.229,0.0,0.0,0.0,0.0,0.0,0.0,0.0,4.0367,3.947,4.012,4.0786,4.0943,4.1669,4.2254,4.2254,0.0,0.0,4.246,4.302,4.3915,4.4308,4.4606,4.4893,4.5162,4.5378,4.5398,0.0,0.0,0.0,0.0,0.0,0.0,0.0,0.0,3.937,3.9168,0.0,3.8223,0.0,0.0,0.0,0.0,0.0,3.5732,0.0,0.0,4.2785,4.4514,4.3308,4.331,4.2864,4.1983,4.1205,3.9889,3.8083,3.4935,0.0,0.0,0.0,0.0,0.0,0.0,3.1342,3.0772,3.5737,3.8698,3.9356,3.792,3.7501,3.8259,3.8469,3.8593,3.8553,3.7808,3.6989,3.6015,3.2067,0.0,0.0,0.0,0.0,0.0,0.0,0.0,0.0,0.0,0.0,0.0,0.0,0.0,0.0,0.0,0.0,0.0,0.0,0.0,0.0,3.1595,0.0,0.0,0.0,0.0,0.0,0.0,0.0,0.0,0.0,0.0,3.4843,3.6948,3.8807,3.9636,0.0,0.0,0.0,0.0,4.2395,3.9184,3.9313,4.0146,4.0982,4.1774,4.2519,4.3237,0.0,0.0,4.3808,4.3004,4.2598,4.2559,4.5244,4.6909,4.5269,4.5029,4.5309,4.6046,4.5778,4.5416,4.6007,4.6154,4.5755,4.7951,0.0,0.0,0.0,0.0,4.3032,4.5066,4.7985,4.6664,4.6184,4.6167,4.3546,0.0,0.0,0.0,0.0,0.0,0.0,4.0029,4.1474,4.4206,4.5883,4.6697,4.7287,4.716,4.6313,4.4311,4.2809,4.1689,3.9605,3.6024,3.1105,0.0,0.0,0.0,0.0,3.154,3.3184,3.6526,3.8423,3.8615,3.762,3.6951,3.6646,3.7923,3.8592,3.8592,3.9488,3.9057,3.7028,3.5702,0.0,0.0,0.0,0.0,0.0,0.0,0.0,0.0,0.0,0.0,0.0,0.0,0.0,0.0,0.0,0.0,0.0,0.0,0.0,3.3222,3.4195,3.3703,0.0,0.0,0.0,0.0,0.0,0.0,0.0,0.0,0.0,3.7312,3.803,3.8574,0.0,0.0,3.9054,3.8081,3.9641,4.077,4.0336,4.0979,0.0,4.2708,4.2545,4.2379,4.2606,4.3856,4.4945,4.5317,4.5643,4.6092,4.6639,4.7572,4.8269,4.8494,4.8937,4.9339,4.9692,4.9974,5.0335,5.0571,5.0889,5.0983,5.5608,5.0898,4.7798,4.6979,4.7782,4.8193,5.0101,5.2936,5.1749,5.1093,5.077,4.8417,4.5722,4.2765,4.0364,0.0,0.0,0.0,4.2899,4.501,4.6454,4.7841,4.919,4.9686,4.9357,4.8159,4.6336,4.4866,4.3659,4.1377,3.8453,3.485,0.0,0.0,2.9695,3.1524,3.3057,3.4334,3.6922,3.8307,3.8342,3.7899,3.7447,3.7018,3.8039,3.8744,3.9135,4.0381,4.0379,3.8858,3.7811,3.578,0.0,0.0,0.0,0.0,0.0,0.0,0.0,0.0,0.0,0.0,0.0,2.8923,2.8226,0.0,0.0,0.0,3.1915,3.3082,3.5258,3.5051,0.0,0.0,0.0,0.0,0.0,0.0,0.0,3.4316,3.5988,3.7451,3.8354,3.8781,3.9029,3.9015,3.8847,3.8488,3.7824,0.0,4.0862,4.1004,4.1771,4.2618,4.3428,4.3457,4.3561,4.4241,4.5157,4.611,4.6914,4.752,4.7978,4.8486,4.8874,4.9263,4.9809,5.0612,5.1214,5.1216,5.1605,5.1955,5.1994,5.2422,5.2555,6.214,6.1587,5.3991,5.1266,5.1957,5.2211,5.364,5.5638,5.5083,5.4318,5.3467,5.2428,5.0236,4.7005,4.3817,0.0,4.3829,4.4452,4.6102,4.8523,4.9256,5.0045,5.0782,5.0821,4.9972,4.8398,4.7534,4.624,4.4506,4.1335,3.9652,3.9462,3.782,3.6145,3.4519,3.503,3.5126,3.4682,3.69,3.8185,3.8411,3.8488,3.8526,3.8591,3.8663,3.9088,3.9867,4.0683,4.1111,4.1039,3.8851,3.7495,3.7068,0.0,0.0,0.0,0.0,0.0,0.0,0.0,0.0,0.0,0.0,0.0,0.0,0.0,0.0,0.0,3.4561,0.0,3.7088,3.5116,0.0,0.0,0.0,3.4333,3.5933,3.6211,3.6293,3.6233,0.0,0.0,3.8624,3.9478,4.006,4.0207,4.0709,4.0545,3.9022,4.0936,4.2219,4.1489,4.2148,4.2997,4.3872,4.457,4.557,4.7006,4.7488,4.7774,4.8608,4.8835,4.8832,4.9182,4.9648,5.0114,5.0114,5.0808,5.119,5.1193,5.1196,5.1241,5.1241,5.1316,5.1307,6.3965,6.3145,6.0353,5.9102,5.8998,5.8737,5.8954,5.9365,5.7989,5.689,5.5967,5.3851,5.1765,4.9767,4.9661,4.9722,4.998,5.0116,5.0549,5.1112,5.0696,5.0628,5.0821,5.0821,5.0259,4.9245,4.7778,4.6526,4.5399,4.2714,4.0749,3.9504,3.8416,3.6743,3.4559,3.4018,3.4692,3.6442,3.6477,3.7138,3.8495,3.8578,3.8584,3.8627,3.9247,3.9673,3.9906,4.0683,4.1109,4.1111,4.0529,3.9289,3.7265,3.5468,0.0,0.0,0.0,0.0,0.0,0.0,0.0,0.0,0.0,3.1002,2.9169,0.0,3.3962,0.0,3.5532,3.8135,3.9848,3.8302,0.0,0.0,3.6587,3.6517,3.6887,3.8676,3.9597,3.8888,4.0133,4.1156,4.1362,4.1567,4.2213,4.3535,4.2233,4.12,4.1432,4.2527,4.3302,4.321,4.4297,4.5336,4.5501,4.6257,4.7136,4.8149,4.8295,4.8824,5.0314,5.0581,5.0969,5.2138,5.2074,5.1865,5.1745,5.1493,5.1124,5.1127,5.1166,5.1193,5.1133,5.1127,5.1118,6.4331,6.3493,6.2515,6.1747,6.1153,6.0881,6.0781,6.0666,5.9396,5.8369,5.7429,5.5337,5.3677,5.2482,5.2968,5.2789,5.2133,5.2112,5.1927,5.1541,5.1057,5.0837,5.0833,5.0833,5.0232,4.9015,4.7735,4.6471,4.522,4.3459,4.2099,4.1253,4.0739,3.9488,3.7436,3.541,3.5071,3.6531,3.6564,3.7561,3.9603,3.9326,3.8973,3.8624,3.8696,3.8537,3.8185,3.8611,3.9,3.9391,3.9394,3.8737,3.7301,3.5737,3.359,0.0,0.0,0.0,0.0,0.0,0.0,0.0,0.0,0.0,0.0,0.0,3.5482,3.4919,3.6988,3.8632,3.9221,3.844,3.7991,3.8341,3.8726,3.928,3.9999,4.1366,4.2181,4.2083,4.2903,4.3808,4.4484,4.4647,4.5162,4.6502,4.548,4.446,4.4269,4.4856,4.5438,4.5428,4.6518,4.7331,4.7308,4.7712,4.8306,4.9013,4.9219,4.9653,5.0921,5.1181,5.1486,5.2292,5.2153,5.1826,5.1787,5.1463,5.1101,5.1101,5.1117,5.1131,5.1092,5.1092,5.1082,6.418,6.3391,6.2486,6.1645,6.0952,6.0881,6.0689,6.0408,5.9452,5.8594,5.7757,5.6464,5.549,5.48,5.4771,5.3926,5.2459,5.234,5.1854,5.1086,5.0963,5.0898,5.0898,5.0898,5.009,4.8585,4.7811,4.6623,4.5089,4.4121,4.3573,4.342,4.3196,4.2378,4.0872,3.7635,3.5948,3.5944,3.7052,3.874,4.1008,4.0139,3.9315,3.8618,3.7754,3.6852,3.5876,3.5953,3.6305,3.6932,3.7088,3.7248,3.7411,3.5187,3.3548,0.0,3.0584,0.0,0.0,0.0,0.0,0.0,0.0,0.0,0.0,3.6948,3.773,3.8669,3.8744,3.8512,3.7973,3.7977,3.8614,4.0116,4.1047,4.2236,4.3789,4.4136,4.4531,4.5404,4.5517,4.6103,4.7356,4.7717,4.8029,4.8686,4.8767,4.8266,4.7336,4.7374,4.7604,4.7758,4.8342,4.8645,4.883,4.893,4.925,4.9952,5.0144,5.0402,5.1172,5.1312,5.1341,5.146,5.1524,5.1323,5.1242,5.1196,5.1073,5.1058,5.1001,5.0998,5.103,5.1073,5.1076,6.5154,6.4211,6.2719,6.2011,6.1824,6.1208,6.0123,5.8699,5.7238,5.6102,5.5345,5.5784,5.5884,5.5734,5.5736,5.5213,5.425,5.3563,5.2754,5.1942,5.1207,5.0898,5.0898,5.0898,5.0399,4.9471,4.9281,4.8727,4.7719,4.6177,4.4766,4.3447,4.211,4.097,3.9983,0.0,0.0,0.0,3.8235,3.9952,4.1003,3.9591,3.8767,3.8574,3.7752,0.0,3.5057,3.5602,3.5722,3.526,3.5884,0.0,0.0,0.0,0.0,0.0,0.0,0.0,0.0,0.0,0.0,0.0,3.7733,3.7574,3.7959,3.8171,3.8886,4.0351,4.0548,4.1098,4.2274,4.2387,4.25,4.2848,4.3705,4.4661,4.5674,4.6427,4.7174,4.8068,4.8145,4.822,4.8528,4.8567,4.8922,4.9706,4.9865,5.0025,5.0343,4.932,4.8609,4.8606,4.8837,4.9099,4.9749,4.9849,5.009,5.0774,5.0984,5.1255,5.1871,5.2078,5.2382,5.2813,5.2556,5.2016,5.1943,5.1409,5.0913,5.0876,5.0825,5.088,5.091,5.0941,5.0909,6.4523,0.0,6.2507,6.1687,0.0,6.055,5.9634,5.8335,5.7481,5.6454,5.532,5.5796,5.6011,5.5973,5.5574,5.4967,5.4116,5.3227,5.2651,5.2148,5.1289,5.1134,5.1525,5.1095,5.048,4.9782,4.974,4.9311,4.8532,4.7669,4.6627,4.5455,4.461,4.3808,4.3004,4.1757,3.9844,3.7304,3.902,4.0697,4.222,4.1158,4.0255,3.9826,3.9002,0.0,0.0,0.0,0.0,0.0,0.0,0.0,0.0,3.8824,0.0,3.7966,3.7538,3.7656,3.8437,3.8515,3.9452,4.1559,4.2183,4.1673,3.9944,4.0947,4.187,4.2281,4.2359,4.2712,4.3533,4.3994,4.4418,4.4848,4.5687,4.6597,4.7417,4.7937,4.8532,4.9314,4.9473,4.9631,5.0061,5.0062,5.0217,5.0647,5.0725,5.088,5.1228,5.0684,5.01,5.0061,5.0094,5.0243,5.0625,5.0712,5.0752,5.1137,5.1206,5.1336,5.1684,5.1714,5.1798,5.2152,5.1842,5.1535,5.1472,5.1138,5.0842,5.0821,5.0742,5.072,5.0769,5.0791,5.0846,6.3663,6.2353,6.2072,6.1173,5.9943,5.9993,5.9476,5.8505,0.0,0.0,0.0,5.5913,5.6008,5.5969,5.5311,5.4542,5.3695,5.2999,5.2573,5.2418,5.1679,5.1657,5.2191,5.1645,5.0913,5.0067,5.0189,4.9858,4.9088,4.8934,4.8457,4.7792,4.7599,4.7023,4.6094,4.5508,4.3437,3.9961,4.0272,4.1559,4.3592,4.2844,4.1902,4.0927,4.0061,3.8733,3.6943,3.7686,3.8469,3.9176,3.9371,3.9723,4.027,4.035,4.0155,3.9765,3.9726,4.0351,4.1678,4.1795,4.277,4.507,4.5889,4.5025,4.2004,4.3877,4.4844,4.4003,4.4036,4.4189,4.4384,4.4968,4.563,4.6371,4.7353,4.8215,4.8722,4.9125,4.957,5.0202,5.0325,5.0567,5.1196,5.1313,5.1391,5.1386,5.1304,5.1378,5.1403,5.1338,5.1231,5.1231,5.1143,5.1299,5.1372,5.1301,5.1294,5.1211,5.118,5.1098,5.1055,5.0983,5.0925,5.1004,5.0838,5.0821,5.0807,5.0794,5.0751,5.0785,5.0668,5.0606,5.061,5.0668,5.072,6.3527,6.3186,6.1778,6.1031,6.0843,6.0891,6.0026,5.8556,5.7808,5.6532,5.4998,5.5694,5.6008,5.6008,5.5892,5.5393,5.4619,5.4503,5.4043,5.3308,5.3192,5.284,5.234,5.2932,5.245,5.1142,5.1732,5.1698,5.0933,5.0155,4.9433,4.8709,4.7968,4.6797,4.5391,4.582,4.5469,4.4141,4.3476,4.3358,4.367,4.2848,4.1635,4.0151,3.929,3.7572,3.5191,3.6011,3.6403,3.6561,3.7264,3.8983,4.1836,4.2109,4.2656,4.3945,4.4101,4.4218,4.4412,4.4451,4.4918,4.5963,4.6231,4.5758,4.463,4.5398,4.5695,4.4859,4.5421,4.6146,4.6847,4.7044,4.7122,4.7395,4.8746,4.9504,4.8995,5.0108,5.0976,5.1127,5.1207,5.1207,5.1326,5.1397,5.1394,5.1399,5.1395,5.1382,5.1379,5.1382,5.1386,5.1386,5.1336,5.132,5.131,5.1322,5.1236,5.1122,5.1097,5.1069,5.0948,5.0906,5.0862,5.0799,5.0812,5.0751,5.0715,5.0678,5.064,5.0639,5.054,5.0532,5.0527,5.0542,5.0553,6.4629,6.4172,6.3462,6.2593,6.1703,6.1297,6.0151,5.8608,5.8178,5.7018,5.5543,5.5853,5.6008,5.5969,5.5543,5.5135,5.4772,5.4347,5.4219,5.4278,5.3815,5.3649,5.371,5.3251,5.2627,5.1975,5.1861,5.1686,5.1359,5.097,5.0348,4.9609,4.875,4.7891,4.7187,4.75,4.75,4.7109,4.625,4.582,4.582,4.4959,4.4138,4.3396,4.2534,4.1558,4.0349,4.113,4.1795,4.2265,4.2695,4.3789,4.5781,4.5937,4.6289,4.707,4.7109,4.6912,4.6437,4.6395,4.6586,4.6969,4.7435,4.7509,4.7116,4.6946,4.6733,4.6398,4.7122,4.7774,4.8165,4.8202,4.8397,4.8826,4.9623,5.0061,5.0219,5.0785,5.1339,5.1325,5.133,5.1372,5.1361,5.1362,5.1364,5.1372,5.1359,5.1344,5.1335,5.1322,5.1289,5.1353,5.134,5.1318,5.1302,5.122,5.1172,5.1086,5.1021,5.0988,5.0902,5.0854,5.0778,5.0715,5.0721,5.0673,5.0624,5.0561,5.053,5.0548,5.0489,5.0451,5.0412,5.0356,5.0327,6.5499,6.493,6.4778,6.3831,6.2351,6.1466,6.026,5.8957,5.8922,5.7939,5.6458,5.6145,5.6044,5.597,5.5401,5.5114,5.5024,5.4488,5.4585,5.5178,5.4601,5.457,5.4905,5.3857,5.3214,5.2883,5.222,5.1834,5.1719,5.1679,5.1406,5.0703,4.9531,4.8984,4.918,4.918,4.918,4.918,4.8711,4.8281,4.7891,4.7421,4.6991,4.6561,4.5934,4.5505,4.535,4.5936,4.6718,4.75,4.7422,4.7812,4.8789,4.8711,4.8593,4.8631,4.8591,4.8237,4.7445,4.7671,4.7781,4.7625,4.8329,4.8792,4.8738,4.8376,4.801,4.7903,4.8323,4.8826,4.9021,4.9062,4.9333,4.9956,5.019,5.0463,5.0926,5.1174,5.129,5.1273,5.1281,5.1287,5.1279,5.1285,5.129,5.1289,5.1277,5.1297,5.1275,5.1211,5.122,5.1248,5.1245,5.1264,5.1259,5.1161,5.1101,5.1043,5.0949,5.0906,5.085,5.0756,5.0673,5.0625,5.0566,5.0568,5.0516,5.0495,5.0478,5.0462,5.0407,5.035,5.0286,5.0195,5.0107,6.5097,6.487,6.4256,6.3289,6.2361,6.1471,6.0626,5.9853,5.9863,5.8974,5.7344,5.6542,5.6167,5.6167,5.6077,5.6014,5.6017,5.5981,5.6003,5.6122,5.6085,5.5728,5.5221,5.5692,5.5271,5.402,5.3707,5.32,5.2616,5.2577,5.2538,5.2187,5.0078,4.9414,5.0,5.0117,5.0117,5.0117,5.0742,5.0312,4.8945,4.9453,4.9101,4.7539,4.7383,4.6992,4.6289,4.625,4.6719,4.7461,4.6914,4.7226,4.8632,4.8202,4.7771,4.7806,4.7767,4.7335,4.6664,4.7867,4.8407,4.7742,4.8407,4.8905,4.892,4.9463,4.9496,4.8969,4.8796,4.9218,4.9761,4.9878,4.9954,5.0108,5.0694,5.0922,5.0438,5.0826,5.1284,5.122,5.1225,5.1227,5.1282,5.1236,5.1223,5.1225,5.122,5.1206,5.1216,5.115,5.1122,5.1122,5.1119,5.1133,5.1127,5.1118,5.1051,5.0948,5.0914,5.0846,5.0756,5.0682,5.0615,5.0584,5.0548,5.0505,5.0478,5.0457,5.039,5.0344,5.0253,5.0188,5.0158,5.0082,5.0025,6.6185,6.5682,6.5334,6.4414,6.3126,6.1807,6.0511,5.9382,5.9345,5.8425,5.6959,5.6476,5.6285,5.6267,5.6275,5.6285,5.6336,5.6338,5.6344,5.643,5.6432,5.6247,5.6011,5.5776,5.5382,5.4751,5.4243,5.382,5.3513,5.3476,5.3476,5.3398,5.2383,5.2109,5.2422,5.2461,5.2422,5.2461,5.2773,5.2578,5.1875,5.0781,4.9609,4.8516,4.8359,4.8242,4.7891,4.7812,4.8242,4.9023,4.8789,4.914,5.0311,5.0036,4.9837,4.9793,4.9358,4.8924,4.8569,4.919,4.9419,4.91,4.9843,5.0301,5.0272,5.062,5.0652,5.0361,5.0272,5.0424,5.0696,5.0772,5.0768,5.0797,5.1107,5.1137,5.0801,5.1033,5.1215,5.1193,5.1227,5.1222,5.1222,5.1224,5.1177,5.1167,5.1159,5.1145,5.1136,5.1111,5.1089,5.1058,5.1009,5.1013,5.1023,5.0992,5.0929,5.0913,5.0799,5.071,5.0673,5.0586,5.0553,5.0489,5.0462,5.0412,5.0306,5.0289,5.0248,5.022,5.0114,5.0057,4.9986,4.9951,4.991,6.7019,6.6258,6.5812,6.4916,6.3708,6.2024,6.0696,5.9714,5.964,5.8691,5.7226,5.7148,5.6834,5.6423,5.6371,5.6409,5.6416,5.6416,5.6476,5.6522,5.6521,5.6552,5.6529,5.5981,5.5673,5.5523,5.4785,5.4364,5.4333,5.4101,5.4219,5.457,5.4258,5.4101,5.4297,5.4141,5.3984,5.3984,5.3984,5.3984,5.3711,5.2187,5.082,5.0039,4.9961,4.9844,4.957,4.9609,4.9883,5.0469,5.0311,5.0466,5.0972,5.0812,5.069,5.0645,5.0129,4.9773,4.9734,4.9965,5.0116,5.0188,5.089,5.1347,5.132,5.1312,5.1301,5.1236,5.1306,5.1224,5.131,5.1306,5.1256,5.128,5.1278,5.1269,5.1203,5.1201,5.1229,5.1203,5.1189,5.1175,5.1187,5.1193,5.116,5.1139,5.1094,5.1069,5.1048,5.1027,5.1012,5.0968,5.089,5.0929,5.096,5.0941,5.0854,5.0786,5.0696,5.0601,5.0591,5.0499,5.0462,5.0418,5.0384,5.0294,5.0212,5.0169,5.0132,5.005,4.9979,4.9913,4.9838,4.98,4.9721,6.7144,6.622,6.4766,6.4148,6.3848,6.2177,6.1403,6.1208,6.1364,6.0468,5.8882,5.8838,5.8056,5.662,5.6522,5.6484,5.6484,5.6484,5.6521,5.6576,5.6611,5.6608,5.6605,5.6527,5.6527,5.6374,5.5642,5.5224,5.5194,5.4492,5.4844,5.6289,5.4922,5.4492,5.5039,5.4531,5.4062,5.418,5.418,5.4062,5.4062,5.3906,5.3359,5.2578,5.2461,5.1992,5.1406,5.1289,5.1289,5.1327,5.0662,5.023,5.0181,4.9476,4.916,4.9074,4.9032,4.8954,4.911,4.9765,5.0186,5.0263,5.0925,5.1346,5.1312,5.1305,5.1289,5.1295,5.1266,5.1223,5.128,5.1232,5.1218,5.1213,5.1211,5.1201,5.1214,5.1208,5.1197,5.1205,5.1139,5.1114,5.1114,5.1104,5.1111,5.1107,5.1101,5.1037,5.0968,5.0906,5.0913,5.0941,5.0911,5.0838,5.091,5.0851,5.0747,5.0678,5.063,5.0547,5.0504,5.0457,5.0396,5.0333,5.0248,5.0188,5.012,5.0063,5.0012,4.994,4.9845,4.9807,4.975,4.9663,4.9582,6.7694,6.6374,6.5299,6.4561,6.3924,6.2838,6.1796,6.0849,6.0809,5.9865,5.8444,5.8285,5.766,5.6606,5.6581,5.6587,5.6548,5.6548,5.658,5.6605,5.6605,5.6605,5.6605,5.6605,5.6605,5.6568,5.6304,5.6121,5.6091,5.5781,5.5976,5.6406,5.6015,5.582,5.6015,5.582,5.5664,5.5664,5.5664,5.5664,5.5624,5.5663,5.5233,5.4372,5.3241,5.2812,5.3046,5.199,5.1637,5.2221,5.1438,5.0965,5.0921,5.0642,5.0481,5.0478,5.0477,5.0477,5.0515,5.0741,5.0924,5.0953,5.1167,5.1383,5.1279,5.1261,5.1243,5.1261,5.1183,5.1167,5.1175,5.1193,5.1203,5.1227,5.1222,5.1167,5.1127,5.1113,5.1139,5.1105,5.1124,5.1075,5.1101,5.1097,5.108,5.0994,5.0944,5.0948,5.0888,5.0825,5.1035,5.1445,5.1577,5.1751,5.2299,5.1255,5.0654,5.0586,5.0525,5.0505,5.0429,5.0323,5.0253,5.0256,5.0163,5.0095,5.0031,4.9964,4.9879,4.9831,4.9771,4.9707,4.9641,4.9559,4.9475,6.7639,6.656,6.5726,6.5075,6.4453,6.3396,6.2292,6.1253,6.0939,6.0002,5.8831,5.8636,5.8168,5.7503,5.7386,5.723,5.6956,5.6761,5.6605,5.6605,5.6605,5.6605,5.6605,5.6605,5.6605,5.6607,5.6616,5.6629,5.6599,5.6601,5.6601,5.6601,5.6601,5.6601,5.6601,5.6601,5.6601,5.6601,5.6601,5.6601,5.6598,5.6598,5.6323,5.5617,5.429,5.3667,5.398,5.2845,5.2491,5.2958,5.2564,5.2247,5.2244,5.2238,5.2234,5.2234,5.2234,5.2234,5.2232,5.2219,5.2204,5.2225,5.2196,5.2124,5.2088,5.2025,5.2005,5.1942,5.1633,5.148,5.1447,5.1325,5.1186,5.1169,5.1166,5.1149,5.1105,5.1098,5.1082,5.1055,5.1083,5.1073,5.1051,5.104,5.0971,5.087,5.0862,5.091,5.112,5.1214,5.1466,5.2189,5.2372,5.2525,5.2777,5.2118,5.1401,5.1256,5.0949,5.0763,5.0421,5.0312,5.0169,5.0132,5.0082,5.0012,4.992,4.9848,4.9785,4.9743,4.9692,4.9626,4.9544,4.9452,4.9366,6.6796,6.6679,6.5917,6.5594,6.5242,6.3796,6.305,6.2696,6.1953,6.1016,6.0119,6.0237,5.9651,5.9064,5.8791,5.8519,5.7816,5.719,5.6761,5.6605,5.6605,5.6605,5.6605,5.6605,5.6606,5.6607,5.6616,5.6628,5.6599,5.6599,5.66,5.6601,5.6601,5.6601,5.6601,5.6601,5.6601,5.66,5.6599,5.6597,5.6593,5.6593,5.6592,5.6434,5.5649,5.4868,5.4169,5.3974,5.3815,5.3967,5.3888,5.3962,5.3759,5.3756,5.3873,5.3756,5.3873,5.3912,5.387,5.3735,5.3636,5.3607,5.3744,5.3536,5.3386,5.3405,5.3339,5.3052,5.2591,5.2183,5.1989,5.1485,5.1104,5.1101,5.1117,5.1111,5.1101,5.1094,5.108,5.1047,5.1075,5.101,5.0951,5.0897,5.0919,5.0954,5.0979,5.1266,5.1871,5.2011,5.2372,5.2948,5.3231,5.3359,5.3229,5.3026,5.251,5.2037,5.1632,5.1323,5.0712,5.0404,5.0133,5.0044,4.9959,4.9893,4.9824,4.975,4.967,4.9626,4.9582,4.9521,4.9421,4.9327,4.9246,6.6781,6.6777,6.653,6.6094,6.5507,6.4375,6.3556,6.293,6.207,6.1211,6.051,6.0393,5.9924,5.9259,5.9103,5.8947,5.8674,5.8401,5.7737,5.68,5.6644,5.6644,5.6644,5.6644,5.661,5.6616,5.6619,5.6626,5.6672,5.6634,5.6596,5.6597,5.6636,5.6597,5.6637,5.6597,5.6596,5.6595,5.6595,5.6592,5.6626,5.6624,5.6622,5.6577,5.63,5.6027,5.5756,5.4663,5.431,5.4855,5.4308,5.3993,5.399,5.399,5.399,5.399,5.399,5.399,5.3989,5.4015,5.3984,5.389,5.384,5.3718,5.3564,5.3564,5.3309,5.2849,5.2314,5.1985,5.1401,5.1106,5.0987,5.1087,5.1097,5.108,5.1093,5.1436,5.1478,5.1114,5.1395,5.1477,5.1001,5.0838,5.1091,5.1509,5.1577,5.1862,5.2589,5.2805,5.3126,5.3848,5.3947,5.4145,5.4193,5.414,5.3799,5.2974,5.2364,5.1684,5.1039,5.0374,5.0101,4.9926,4.9838,4.9762,4.9728,4.9648,4.9559,4.9461,4.9407,4.9366,4.9271,4.9197,4.9177,6.6796,6.6796,6.6796,6.6523,6.5975,6.5118,6.4298,6.3438,6.2579,6.1719,6.1017,6.0899,6.0587,6.0157,6.004,5.9884,5.9611,5.9572,5.883,5.7698,5.7542,5.7503,5.7542,5.7503,5.7545,5.7551,5.7513,5.7518,5.7526,5.7526,5.7527,5.7529,5.7256,5.7101,5.7022,5.6748,5.6709,5.698,5.7057,5.7054,5.7047,5.7045,5.6924,5.6684,5.6605,5.6605,5.6527,5.5512,5.5201,5.5591,5.524,5.5004,5.4966,5.5004,5.4966,5.4966,5.4966,5.4965,5.4965,5.5033,5.4879,5.4755,5.4694,5.4595,5.4444,5.4323,5.404,5.3666,5.3301,5.2704,5.1975,5.1451,5.1258,5.096,5.0971,5.0968,5.1014,5.1318,5.1404,5.1125,5.1567,5.154,5.1064,5.1137,5.1384,5.1881,5.1982,5.2478,5.3241,5.3643,5.4111,5.454,5.4748,5.496,5.526,5.5179,5.5077,5.4104,5.3048,5.2183,5.137,5.0494,4.9971,4.9797,4.9683,4.9603,4.9529,4.9438,4.939,4.9305,4.9273,4.9254,4.9181,4.9168,4.9101,6.6874,6.6796,6.6796,6.6796,6.664,6.5858,6.5077,6.4298,6.3321,6.254,6.1992,6.168,6.168,6.1719,6.1485,6.1055,6.0588,6.0471,6.0079,5.9455,5.922,5.9142,5.8869,5.8791,5.8792,5.887,5.8909,5.8954,5.8806,5.8845,5.9083,5.8854,5.823,5.7959,5.784,5.7177,5.7251,5.7793,5.787,5.7865,5.7857,5.7856,5.7582,5.6917,5.6917,5.6956,5.6956,5.6683,5.6527,5.6566,5.641,5.6332,5.6527,5.6605,5.641,5.6371,5.6567,5.6449,5.6525,5.6234,5.615,5.6005,5.5976,5.6163,5.5659,5.5518,5.5427,5.5239,5.4728,5.4077,5.319,5.2564,5.184,5.1155,5.1147,5.1074,5.1018,5.1163,5.1468,5.1391,5.1652,5.1942,5.1279,5.1698,5.2021,5.2261,5.2356,5.3126,5.4028,5.4578,5.4853,5.5082,5.5228,5.529,5.5402,5.5383,5.5199,5.4638,5.3531,5.2443,5.1496,5.0602,4.9828,4.9647,4.9529,4.9438,4.9368,4.9297,4.9271,4.923,4.9189,4.9185,4.9135,4.9068,4.9008,6.7381,6.6835,6.6796,6.6796,6.6679,6.5936,6.5507,6.5077,6.3633,6.3282,6.3243,6.2226,6.2148,6.2579,6.1992,6.1563,6.1407,6.1328,6.1289,6.1055,6.1016,6.0196,5.9338,5.9142,5.922,5.9259,5.9455,5.9106,5.9108,5.9382,5.9305,5.9073,5.9036,5.8801,5.8721,5.8566,5.8525,5.8718,5.8795,5.8795,5.8792,5.8791,5.8674,5.8479,5.8401,5.8401,5.8362,5.7816,5.7151,5.6644,5.6605,5.6605,5.6605,5.6605,5.6605,5.6605,5.6605,5.6604,5.6558,5.6447,5.6292,5.6173,5.6104,5.5935,5.5763,5.5771,5.5458,5.5058,5.459,5.4211,5.3435,5.3012,5.2704,5.256,5.215,5.1999,5.2496,5.3162,5.3335,5.2873,5.3311,5.3209,5.2733,5.2684,5.3064,5.351,5.3731,5.399,5.4798,5.5154,5.5268,5.527,5.5369,5.537,5.5409,5.539,5.5237,5.4911,5.3872,5.2554,5.1582,5.0595,4.9935,4.9461,4.939,4.9295,4.9279,4.9238,4.9181,4.9098,4.9118,4.9084,4.897,4.891,4.8866,6.8122,6.7342,6.7342,6.7146,6.6757,6.6289,6.5897,6.5468,6.4609,6.4101,6.4064,6.3282,6.3086,6.3399,6.2657,6.2265,6.2187,6.1836,6.168,6.168,6.1641,6.1289,6.0821,6.0743,6.09,6.1291,6.1252,6.133,6.1369,6.1291,6.1291,6.1213,6.0548,6.0235,6.0198,5.9806,5.9884,6.0196,6.047,6.0587,6.0235,6.0196,5.965,5.9338,5.9103,5.9103,5.9025,5.8597,5.7816,5.6917,5.6605,5.6605,5.6605,5.6605,5.6605,5.6605,5.6605,5.6559,5.6493,5.6373,5.6205,5.6044,5.5938,5.5845,5.5728,5.5708,5.5439,5.517,5.5011,5.4587,5.3895,5.3433,5.3395,5.3598,5.3373,5.3172,5.3287,5.3566,5.371,5.3589,5.3916,5.4164,5.3356,5.3505,5.3918,5.4248,5.4276,5.4743,5.5318,5.5443,5.5485,5.5413,5.5396,5.5403,5.539,5.5371,5.509,5.4757,5.3501,5.2309,5.1272,5.0305,4.9874,4.9337,4.9238,4.914,4.9131,4.9098,4.903,4.897,4.8999,4.8919,4.884,4.8787,4.8742,6.8903,6.8082,6.8005,6.7498,6.6874,6.6796,6.6367,6.5819,6.5507,6.5155,6.4688,6.4415,6.4181,6.4376,6.3555,6.3125,6.3086,6.254,6.2226,6.2187,6.2265,6.2423,6.3086,6.2618,6.3008,6.3634,6.422,6.4025,6.3712,6.3907,6.4103,6.3556,6.2501,6.2031,6.1876,6.1291,6.133,6.1954,6.254,6.2501,6.2071,6.1953,6.1408,6.0468,5.9986,5.9672,5.9396,5.912,5.849,5.6896,5.6749,5.6714,5.6676,5.6602,5.6552,5.6546,5.6499,5.6432,5.6308,5.623,5.6152,5.5966,5.5883,5.5836,5.5751,5.5698,5.5648,5.5533,5.5692,5.5215,5.4725,5.3956,5.4005,5.4472,5.4554,5.4208,5.3703,5.3467,5.3472,5.3472,5.4246,5.4126,5.3933,5.4005,5.4495,5.4748,5.4726,5.4798,5.5207,5.5429,5.5425,5.5408,5.5403,5.5403,5.5396,5.5396,5.4988,5.4482,5.2911,5.157,5.0507,4.9732,4.9518,4.9225,4.9098,4.8996,4.897,4.8927,4.8866,4.884,4.8822,4.876,4.8651,4.8661,4.8624,6.8903,6.8043,6.7381,6.6992,6.6835,6.6796,6.6679,6.6484,6.5858,6.5858,6.5859,6.4924,6.4766,6.5274,6.445,6.4025,6.3984,6.3712,6.3751,6.3751,6.3751,6.4258,6.4531,6.3789,6.3595,6.422,6.4337,6.4337,6.4376,6.4493,6.4337,6.4259,6.4025,6.3712,6.3634,6.3439,6.3517,6.3751,6.3946,6.3985,6.3751,6.3672,6.3437,6.2807,6.2256,6.1209,6.0174,5.9877,5.9284,5.841,5.7731,5.7283,5.6844,5.6464,5.6395,5.6427,5.6308,5.6214,5.6131,5.605,5.5943,5.5892,5.5798,5.5717,5.5724,5.5665,5.5643,5.5626,5.5593,5.5494,5.5286,5.5176,5.5083,5.5225,5.5352,5.5318,5.517,5.5088,5.5016,5.5093,5.5203,5.5357,5.5088,5.4577,5.4836,5.5176,5.5094,5.4852,5.5057,5.5369,5.5408,5.5403,5.5384,5.5396,5.539,5.5218,5.463,5.4013,5.2521,5.0996,4.9926,4.936,4.9184,4.9073,4.8927,4.8866,4.884,4.8741,4.8696,4.8669,4.8642,4.8605,4.8569,4.856,4.8522,6.9489,6.863,6.7771,6.7187,6.6835,6.6796,6.6796,6.6718,6.6367,6.6406,6.6562,6.5781,6.5742,6.6051,6.5206,6.4811,6.4763,6.4454,6.4298,6.4259,6.4298,6.4766,6.5351,6.4882,6.4648,6.5352,6.5508,6.5469,6.5469,6.5469,6.5586,6.5391,6.5118,6.4883,6.4922,6.4961,6.4843,6.5001,6.5274,6.5313,6.4961,6.4922,6.4551,6.4205,6.3538,6.2609,6.143,6.1263,6.0487,5.9548,5.8859,5.8339,5.7607,5.7025,5.6763,5.6747,5.6302,5.6093,5.5989,5.5946,5.5895,5.5803,5.5728,5.573,5.5703,5.5676,5.5665,5.5616,5.5638,5.5621,5.5615,5.5577,5.5638,5.5616,5.5665,5.5676,5.5698,5.5708,5.5708,5.5698,5.5605,5.5588,5.5429,5.5039,5.5066,5.529,5.5272,5.5066,5.5127,5.5409,5.5403,5.5377,5.5403,5.5396,5.5352,5.4994,5.4264,5.3452,5.2288,5.078,4.948,4.9172,4.8996,4.8875,4.8778,4.8714,4.8678,4.8615,4.8569,4.855,4.8569,4.8513,4.8476,4.842,4.8428,7.027,6.9528,6.8669,6.7844,6.7212,6.7055,6.713,6.7208,6.681,6.6759,6.6894,6.6814,6.6471,6.6477,6.5892,6.5638,6.5532,6.5194,6.4959,6.4899,6.4956,6.5301,6.5765,6.5966,6.6249,6.6951,6.6912,6.6912,6.6952,6.7109,6.7226,6.707,6.66,6.6327,6.6092,6.617,6.6131,6.5936,6.6429,6.6473,6.5884,6.5679,6.5191,6.4421,6.4061,6.3511,6.2719,6.2408,6.1926,6.062,6.0265,5.9809,5.9145,5.8114,5.7561,5.7522,5.6946,5.6551,5.6304,5.6139,5.6035,5.5791,5.5708,5.5698,5.5692,5.5665,5.5643,5.5605,5.5621,5.5615,5.5604,5.561,5.5621,5.5594,5.5632,5.5643,5.5676,5.5687,5.5671,5.5682,5.5654,5.5632,5.5483,5.5186,5.5314,5.5369,5.5312,5.5326,5.5358,5.5396,5.5403,5.5403,5.5396,5.524,5.5168,5.4271,5.3629,5.2877,5.184,5.0546,4.9205,4.8879,4.8705,4.8742,4.867,4.8596,4.856,4.8504,4.8467,4.8476,4.8466,4.842,4.8373,4.8306,4.8306,7.0619,7.0426,6.9528,6.899,6.8615,6.8025,6.8069,6.8356,6.7115,6.6927,6.7543,6.6798,6.6488,6.6416,6.6457,6.6449,6.633,6.6182,6.6207,6.6178,6.6248,6.6535,6.6652,6.7244,6.769,6.7848,6.7922,6.7958,6.8083,6.8553,6.863,6.8826,6.863,6.8279,6.7927,6.8239,6.7771,6.6985,6.7305,6.7223,6.6718,6.6187,6.5803,6.4993,6.4765,6.4174,6.3584,6.3267,6.2985,6.2637,6.2071,6.1653,6.0988,5.9402,5.8496,5.819,5.7892,5.7374,5.6788,5.6729,5.6367,5.5945,5.5698,5.5671,5.5594,5.5554,5.5526,5.5479,5.5467,5.5461,5.5502,5.557,5.5632,5.5616,5.5599,5.5577,5.5577,5.5571,5.5554,5.561,5.5604,5.5587,5.5431,5.5275,5.5272,5.5235,5.514,5.5249,5.5377,5.5377,5.5396,5.5396,5.5396,5.5147,5.4909,5.3704,5.2738,5.2201,5.1258,5.0213,4.9147,4.8652,4.8448,4.8532,4.8541,4.8467,4.842,4.8392,4.8373,4.84,4.8381,4.8325,4.8316,4.8296,4.8296,7.0698,7.0619,6.9762,6.9356,6.92,6.872,6.8736,6.895,6.809,6.7941,6.8013,6.7429,6.6967,6.685,6.6439,6.6394,6.6578,6.7033,6.713,6.7187,6.7662,6.7972,6.7847,6.8516,6.8703,6.8893,6.9105,6.9066,6.8822,6.9137,6.9444,6.9372,6.9411,6.9176,6.8942,6.9059,6.894,6.8227,6.8046,6.7818,6.7252,6.6617,6.605,6.6041,6.5512,6.4834,6.4188,6.3968,6.3591,6.3149,6.2817,6.2657,6.2107,6.1134,5.9746,5.9117,5.8538,5.7843,5.7113,5.6877,5.6454,5.573,5.5615,5.5598,5.5531,5.5502,5.5499,5.5443,5.5431,5.5431,5.5437,5.5511,5.5529,5.552,5.5526,5.5531,5.5531,5.5526,5.5552,5.5529,5.5511,5.5455,5.5437,5.5292,5.5191,5.5096,5.5007,5.5154,5.5377,5.539,5.5396,5.5306,5.528,5.505,5.4693,5.3747,5.2565,5.186,5.1142,5.0091,4.9399,4.9055,4.8648,4.8446,4.839,4.84,4.8344,4.8335,4.8316,4.8296,4.8306,4.8316,4.8306,4.8296,4.8296,7.085,7.0811,7.0111,6.9789,6.9722,6.9406,6.939,6.9409,6.8942,6.8842,6.8963,6.8187,6.7729,6.7565,6.7077,6.669,6.6714,6.7595,6.781,6.7965,6.8511,6.8999,6.9047,6.9353,6.9506,6.9545,7.0175,7.0237,6.9754,6.9865,6.9871,7.0019,6.9916,6.9646,6.9588,6.9857,6.9685,6.9118,6.8821,6.8285,6.7709,6.6999,6.6667,6.7235,6.6523,6.582,6.5157,6.5029,6.4534,6.3952,6.353,6.3377,6.321,6.252,6.1473,6.0239,5.9178,5.8207,5.7626,5.744,5.7222,5.6429,5.5945,5.5901,5.5992,5.6056,5.5699,5.552,5.5449,5.547,5.5439,5.5439,5.5451,5.5463,5.5455,5.5505,5.5505,5.5499,5.547,5.5445,5.5415,5.5402,5.5396,5.539,5.5256,5.525,5.5199,5.5199,5.5384,5.5377,5.5377,5.5253,5.512,5.4896,5.4533,5.4008,5.2943,5.2132,5.1509,5.072,5.0144,4.9667,4.9243,4.8802,4.8352,4.8316,4.8306,4.8333,4.8296,4.8296,4.8296,4.8296,4.8296,4.8296,4.8296,7.1424,7.1388,7.1272,7.1141,7.0869,7.0133,7.0258,7.0664,6.9257,6.9013,6.9721,6.8764,6.8288,6.8203,6.8243,6.8307,6.8458,6.8545,6.8611,6.8583,6.8959,6.9136,6.896,6.9704,7.0031,7.0102,7.0747,7.0795,7.0479,7.0781,7.1096,7.1075,7.0982,7.0937,7.0123,7.0609,7.0392,6.917,6.9217,6.9026,6.834,6.8051,6.7956,6.8014,6.7762,6.7273,6.65,6.6301,6.5903,6.5217,6.4538,6.4263,6.4029,6.3326,6.2905,6.2205,6.1236,5.9926,5.9102,5.8706,5.8323,5.7486,5.6994,5.7097,5.7092,5.6773,5.625,5.5422,5.5472,5.5427,5.5465,5.5431,5.5455,5.5482,5.5457,5.5407,5.5439,5.5451,5.5421,5.5422,5.5403,5.539,5.5377,5.5409,5.5396,5.5396,5.5396,5.5396,5.5364,5.5306,5.5246,5.5106,5.4874,5.4631,5.4322,5.3838,5.332,5.2424,5.1976,5.1383,5.0882,5.0418,4.9867,4.9417,4.893,4.8663,4.8847,4.8773,4.848,4.837,4.848,4.8406,4.8296,4.8296,4.8333,7.2205,7.152,7.1986,7.1866,7.131,7.0813,7.0827,7.0926,7.0215,6.9982,7.017,6.9396,6.8751,6.8518,6.8398,6.8428,6.8684,6.9055,6.923,6.9405,6.9728,7.0052,7.0196,7.0496,7.0722,7.07,7.0916,7.0991,7.0951,7.1059,7.1331,7.1326,7.1383,7.1162,7.0598,7.1115,7.0869,7.0215,6.98,6.9387,6.8903,6.8461,6.833,6.8702,6.8311,6.7898,6.7515,6.6934,6.6651,6.6047,6.5427,6.4967,6.4747,6.4166,6.3638,6.3561,6.2581,6.1294,6.0108,5.9579,5.8935,5.8246,5.7672,5.7577,5.7818,5.7607,5.6969,5.6173,5.6078,5.5906,5.5562,5.5434,5.544,5.5447,5.5536,5.544,5.5422,5.5396,5.539,5.539,5.5396,5.5396,5.5396,5.5396,5.5396,5.5396,5.5396,5.5396,5.5273,5.512,5.5004,5.4903,5.4623,5.4347,5.405,5.3647,5.3514,5.2907,5.2831,5.2248,5.1687,5.1179,5.0665,5.0335,5.0068,4.9848,4.9618,4.9334,4.9077,4.8893,4.871,4.8783,4.8773,4.837,4.8416,7.3098,7.2066,7.242,7.2115,7.1368,7.1198,7.1118,7.1089,7.0869,7.0784,7.0647,7.0074,6.9467,6.9065,6.902,6.9165,6.9142,6.9606,6.9837,7.0239,7.0594,7.0856,7.0791,7.0992,7.0993,7.1048,7.0876,7.0844,7.0838,7.0925,7.0981,7.1065,7.1092,7.1026,7.1054,7.1059,7.0888,7.0724,7.015,6.983,6.9575,6.9,6.9061,6.9128,6.8929,6.844,6.8172,6.779,6.74,6.6835,6.6185,6.5734,6.5612,6.497,6.4557,6.4328,6.3601,6.2722,6.1576,6.0658,5.9529,5.8994,5.8459,5.848,5.79,5.7963,5.7848,5.7014,5.6938,5.6594,5.6243,5.6135,5.6034,5.5976,5.5791,5.5619,5.5454,5.5473,5.5441,5.5377,5.5396,5.5396,5.5396,5.5396,5.5396,5.5396,5.5396,5.5396,5.526,5.5092,5.4867,5.4723,5.4495,5.4141,5.3701,5.3457,5.3359,5.3297,5.322,5.3031,5.2417,5.194,5.1473,5.1242,5.1059,5.0655,5.0215,4.9968,4.9747,4.9701,4.9664,4.9481,4.9334,4.8893,4.8526,7.4144,7.3301,7.2583,7.1833,7.1024,7.0939,7.0932,7.0907,7.0898,7.0864,7.0836,7.0749,7.056,7.0549,7.0361,7.0406,7.0615,7.0776,7.0651,7.0616,7.0777,7.0815,7.0777,7.0769,7.0734,7.0676,7.0669,7.0578,7.0493,7.0578,7.063,7.0705,7.085,7.078,7.0752,7.0796,7.071,7.0621,7.0272,7.0271,7.0247,7.0061,7.0113,7.0181,7.0143,6.9922,6.9196,6.8852,6.847,6.7821,6.6904,6.6598,6.6407,6.5757,6.5375,6.5345,6.4771,6.416,6.3503,6.2242,6.144,6.1096,6.0523,5.9536,5.8543,5.8765,5.8536,5.7963,5.781,5.7695,5.7619,5.7619,5.7052,5.6753,5.6454,5.6148,5.5944,5.567,5.56,5.5435,5.5396,5.5396,5.5396,5.5396,5.5396,5.5396,5.5396,5.5396,5.5326,5.5154,5.4822,5.4583,5.4372,5.3971,5.339,5.322,5.3251,5.3261,5.3198,5.3214,5.2994,5.259,5.216,5.1977,5.172,5.1242,5.0949,5.0986,5.0949,5.0765,5.0618,5.0398,5.0105,4.9738,4.9224,7.4866,7.4098,7.3752,7.2861,7.1636,7.1547,7.1218,7.0827,7.0707,7.0654,7.0624,7.0609,7.0639,7.0708,7.0632,7.0677,7.0743,7.0737,7.0745,7.0699,7.0708,7.0662,7.0624,7.0547,7.0499,7.0506,7.0498,7.0451,7.0435,7.0411,7.0435,7.0516,7.0608,7.0547,7.0508,7.054,7.0477,7.0437,7.0411,7.0411,7.0411,7.0411,7.0411,7.0411,7.0411,7.0296,6.9876,6.9425,6.9043,6.847,6.7439,6.7247,6.7247,6.6598,6.6445,6.6598,6.5994,6.5681,6.5222,6.3732,6.2242,6.1631,6.1211,6.0637,5.9536,5.9759,5.9453,5.8994,5.8651,5.8574,5.7963,5.7886,5.7657,5.7466,5.7243,5.6899,5.6549,5.6243,5.6014,5.5969,5.5626,5.5396,5.5396,5.5396,5.5396,5.5396,5.5396,5.5377,5.528,5.5113,5.4738,5.4389,5.4167,5.3889,5.3324,5.3198,5.3214,5.3214,5.3214,5.3214,5.3214,5.3141,5.2774,5.259,5.2491,5.2223,5.2113,5.2223,5.2003,5.1453,5.1279,5.1242,5.0949,5.0582,5.0068,7.5425,7.4919,7.4825,7.3745,7.2125,7.1919,7.1436,7.0784,7.0662,7.0593,7.0491,7.0491,7.0523,7.0593,7.0577,7.0562,7.07,7.0678,7.0662,7.0647,7.0624,7.0569,7.053,7.0459,7.0435,7.0411,7.0411,7.0411,7.0411,7.0411,7.0419,7.0419,7.0411,7.0427,7.0427,7.0411,7.0411,7.0411,7.0411,7.0411,7.0411,7.0411,7.0411,7.0411,7.0411,7.0372,7.022,6.9884,6.9693,6.9158,6.8508,6.7935,6.7821,6.7668,6.7477,6.7439,6.7247,6.6819,6.6369,6.484,6.2968,6.2242,6.2044,6.1669,6.1294,6.0912,6.0408,6.0057,5.9713,5.9262,5.8651,5.8848,5.8612,5.8459,5.8268,5.7925,5.739,5.7008,5.674,5.6549,5.6167,5.5817,5.5553,5.554,5.5253,5.5233,5.5147,5.512,5.5071,5.4844,5.4479,5.4184,5.3916,5.3593,5.3272,5.322,5.3214,5.3214,5.3214,5.3214,5.3214,5.3214,5.3214,5.2957,5.2957,5.3141,5.3031,5.281,5.2333,5.182,5.1903,5.205,5.1573,5.1206,5.0949,7.5833,7.5864,7.5628,7.4156,7.2149,7.1927,7.1467,7.0838,7.0685,7.0632,7.0655,7.0624,7.0632,7.067,7.0593,7.0609,7.0624,7.067,7.0647,7.0585,7.0561,7.0522,7.0528,7.0495,7.0678,7.0449,7.0563,7.064,7.0525,7.0411,7.0411,7.0411,7.0411,7.0411,7.0411,7.0411,7.0411,7.0411,7.0411,7.0411,7.0411,7.0411,7.0411,7.0411,7.0411,7.0411,7.0334,7.0296,7.0143,6.9914,6.9273,6.889,6.9005,6.8325,6.8058,6.8088,6.7362,6.7247,6.7523,6.5421,6.416,6.3197,6.3037,6.2701,6.2586,6.2128,6.1554,6.1203,6.0905,6.0523,6.0339,6.0262,5.9797,5.9491,5.9338,5.8803,5.823,5.7848,5.7619,5.7084,5.6747,5.6459,5.6054,5.5666,5.5213,5.5012,5.4947,5.4881,5.4814,5.4623,5.4305,5.4043,5.3767,5.3543,5.3324,5.322,5.3214,5.3214,5.3214,5.3214,5.3214,5.3214,5.3214,5.3214,5.3214,5.3214,5.3214,5.3141,5.2737,5.2443,5.2737,5.2774,5.2307,5.194,5.1756,7.5646,7.5638,7.5578,7.4729,7.3407,7.2833,7.2152,7.1349,7.0813,7.0507,7.0499,7.0499,7.0507,7.0507,7.0515,7.0515,7.0515,7.0507,7.0467,7.0467,7.0459,7.0443,7.0495,7.0839,7.1183,7.1259,7.1259,7.1183,7.1298,7.0916,7.0487,7.0411,7.064,7.0411,7.0411,7.0411,7.0411,7.0411,7.0411,7.0411,7.0411,7.0411,7.0411,7.0411,7.0411,7.0411,7.0411,7.0411,7.0411,7.0334,6.9655,6.9502,6.9693,6.9158,6.9005,6.9158,6.8776,6.8165,6.802,6.6835,6.6032,6.4993,6.4114,6.3656,6.2999,6.2693,6.2502,6.2426,6.2089,6.186,6.2051,6.144,6.0981,6.0752,6.0446,5.9606,5.9033,5.8803,5.8459,5.7657,5.716,5.6297,5.5705,5.5397,5.5016,5.4697,5.4592,5.4525,5.4438,5.4405,5.4202,5.3944,5.3682,5.3494,5.3328,5.3241,5.3214,5.3214,5.3214,5.3214,5.3214,5.3214,5.3214,5.3214,5.3214,5.3214,5.3214,5.3214,5.3214,5.3177,5.3214,5.3214,5.281,5.2664,5.2737,7.5553,7.5553,7.5489,7.5195,7.4545,7.3743,7.2796,7.1688,7.0801,7.0411,7.0411,7.0411,7.0419,7.0411,7.0411,7.0411,7.0411,7.0411,7.0411,7.0411,7.0411,7.0411,7.064,7.103,7.1221,7.1573,7.1764,7.1764,7.2147,7.1603,7.1442,7.145,7.1259,7.1221,7.103,7.0686,7.0602,7.0678,7.0724,7.0411,7.0411,7.0411,7.0411,7.0411,7.0411,7.0411,7.0411,7.0411,7.0411,7.022,7.0029,6.9838,7.0067,7.0067,6.9876,7.0075,6.9952,6.9158,6.8585,6.8325,6.7599,6.6904,6.5719,6.4879,6.4145,6.377,6.3465,6.3312,6.3159,6.2968,6.2853,6.2204,6.2051,6.186,6.1266,6.0456,5.9937,5.9701,5.914,5.8333,5.7453,5.6459,5.5523,5.5049,5.474,5.4435,5.4204,5.4137,5.4089,5.3998,5.3953,5.3757,5.3553,5.339,5.3282,5.322,5.3214,5.3214,5.3214,5.3214,5.3214,5.3214,5.3214,5.3214,5.3214,5.3214,5.3214,5.3214,5.3214,5.3214,5.3214,5.3214,5.3214,5.3214,5.3214,7.5591,7.5583,7.5544,7.5433,7.528,7.424,7.3055,7.165,7.0801,7.0411,7.0411,7.0411,7.0411,7.0411,7.0411,7.0411,7.0525,7.0487,7.0602,7.064,7.0869,7.0754,7.0831,7.1022,7.1756,7.1879,7.207,7.2597,7.2987,7.2597,7.2597,7.2826,7.2597,7.2482,7.1985,7.1489,7.1183,7.0992,7.0686,7.0449,7.0411,7.0411,7.0411,7.0411,7.0411,7.0411,7.0411,7.0411,7.0411,7.0372,7.0334,7.0372,7.0411,7.0411,7.0411,7.0372,7.0334,6.9846,6.9387,6.9234,6.9196,6.8585,6.7553,6.6972,6.6216,6.5222,6.4726,6.4267,6.4,6.3503,6.3083,6.3045,6.2968,6.2526,6.2031,6.1446,6.0969,6.0421,5.9777,5.8995,5.8168,5.7207,5.6244,5.5623,5.4918,5.4459,5.4188,5.3844,5.3733,5.3541,5.3491,5.344,5.3303,5.3251,5.3214,5.3214,5.3214,5.3214,5.3214,5.3214,5.3214,5.3214,5.3214,5.3214,5.3214,5.3214,5.3214,5.3214,5.3214,5.3214,5.3214,5.3214,5.3214,5.3214,5.3203,7.5544,7.5544,7.5489,7.5165,7.4393,7.3055,7.2108,7.1612,7.0801,7.0411,7.0411,7.0411,7.0411,7.0411,7.0411,7.0411,7.064,7.0954,7.1259,7.145,7.1756,7.21,7.2329,7.255,7.3132,7.3284,7.3437,7.3437,7.3628,7.3437,7.3476,7.3705,7.3437,7.3552,7.3446,7.2949,7.1947,7.1145,7.0801,7.064,7.0525,7.0525,7.0487,7.0449,7.0487,7.0487,7.0411,7.0487,7.0487,7.0411,7.0411,7.0411,7.0411,7.0411,7.0411,7.0411,7.0372,7.0258,7.0105,7.0029,6.999,6.9799,6.8943,6.8203,6.7477,6.6681,6.591,6.5314,6.4786,6.4311,6.3923,6.3786,6.3672,6.3305,6.2731,6.2041,6.1516,6.0875,6.022,5.9467,5.8619,5.767,5.6772,5.6061,5.536,5.4775,5.4291,5.3923,5.3545,5.3351,5.3198,5.3214,5.3214,5.3214,5.3214,5.3214,5.3214,5.3214,5.3214,5.3214,5.3214,5.3214,5.3214,5.3214,5.3214,5.3214,5.3214,5.3214,5.3214,5.3214,5.3214,5.3214,5.3214,5.3214,5.3049,7.5509,7.5509,7.5509,7.5204,7.4469,7.2949,7.2223,7.1985,7.0954,7.0411,7.0411,7.0411,7.0411,7.0411,7.0411,7.0602,7.103,7.1382,7.1764,7.2367,7.2826,7.2788,7.3208,7.3552,7.3705,7.404,7.4269,7.424,7.4393,7.4354,7.4354,7.4622,7.4125,7.4393,7.4393,7.3743,7.2826,7.2024,7.145,7.1221,7.103,7.0877,7.0754,7.0602,7.0678,7.0754,7.0563,7.0648,7.0763,7.0487,7.0411,7.0411,7.0411,7.0411,7.0411,7.0411,7.0411,7.0411,7.0334,7.0334,7.0372,7.0255,6.9798,6.9247,6.843,6.7588,6.6797,6.6104,6.5614,6.5148,6.4786,6.4461,6.4301,6.4103,6.3305,6.254,6.1883,6.1219,6.0523,5.9833,5.8959,5.7994,5.7157,5.6481,5.5989,5.5655,5.5151,5.4563,5.3975,5.3466,5.3298,5.3214,5.3214,5.3214,5.3214,5.3214,5.3214,5.3214,5.3214,5.3214,5.3214,5.3214,5.3214,5.3214,5.3214,5.3214,5.3214,5.3214,5.3214,5.3214,5.3251,5.3287,5.3251,5.3214,5.2974,7.5509,7.5471,7.5433,7.5318,7.5127,7.3599,7.2979,7.2902,7.145,7.0533,7.0449,7.0411,7.0411,7.0411,7.0411,7.0763,7.1221,7.1688,7.2299,7.3055,7.3484,7.3599,7.3552,7.3323,7.4125,7.4278,7.4431,7.4813,7.528,7.5204,7.5089,7.5509,7.5356,7.5165,7.466,7.4507,7.3896,7.3399,7.3017,7.2826,7.2032,7.1688,7.145,7.103,7.1259,7.1535,7.1107,7.1107,7.1344,7.0801,7.0411,7.0411,7.0602,7.064,7.0602,7.064,7.0716,7.0525,7.0487,7.0411,7.0353,7.0213,7.0038,6.9654,6.8906,6.8016,6.7174,6.6701,6.6201,6.57,6.5323,6.4879,6.4615,6.4285,6.3669,6.3058,6.2564,6.1725,6.0796,6.0163,5.9641,5.8719,5.8119,5.7483,5.6895,5.6638,5.6124,5.539,5.473,5.4032,5.3618,5.3434,5.3508,5.3508,5.3214,5.3214,5.3214,5.3214,5.3251,5.3214,5.3214,5.3214,5.3214,5.3214,5.3214,5.3214,5.3214,5.3361,5.3434,5.3251,5.3287,5.3361,5.335,5.337,5.2764,7.5509,7.5433,7.4775,7.4507,7.4393,7.3437,7.3361,7.3819,7.2826,7.1603,7.0602,7.0449,7.0449,7.0525,7.0449,7.0678,7.1068,7.2108,7.2711,7.3476,7.4095,7.4516,7.4783,7.4592,7.4936,7.5089,7.5242,7.5204,7.5433,7.5509,7.5509,7.5509,7.5509,7.528,7.508,7.508,7.4842,7.4566,7.4481,7.3908,7.2953,7.2741,7.252,7.2367,7.2567,7.2559,7.2176,7.1833,7.1764,7.1374,7.0686,7.0801,7.1344,7.1344,7.1374,7.1374,7.1374,7.109,7.0696,7.051,7.0387,7.0086,6.9835,6.9574,6.9046,6.8162,6.7516,6.7146,6.6698,6.6212,6.5709,6.527,6.4885,6.447,6.4038,6.3582,6.3171,6.2168,6.1126,6.0601,6.0199,5.9673,5.9086,5.8499,5.7912,5.7398,5.6847,5.626,5.5721,5.506,5.4363,5.4142,5.4095,5.3985,5.3618,5.3508,5.3654,5.3544,5.3544,5.3398,5.3287,5.3361,5.3471,5.3287,5.3214,5.3361,5.3581,5.3875,5.3875,5.3728,5.3801,5.4069,5.391,5.3846,5.2891,7.4936,7.4927,7.4851,7.4545,7.4155,7.3705,7.3819,7.4002,7.3323,7.2482,7.1565,7.1183,7.0992,7.0839,7.0602,7.1022,7.148,7.252,7.317,7.3896,7.4669,7.5204,7.5509,7.5509,7.5395,7.5471,7.5509,7.5471,7.5509,7.5509,7.5509,7.5509,7.5509,7.5509,7.5501,7.5474,7.5409,7.5362,7.5412,7.4813,7.3838,7.3721,7.3314,7.3208,7.3284,7.3314,7.3093,7.2711,7.2673,7.2367,7.1871,7.1489,7.1841,7.2032,7.2223,7.2299,7.2198,7.1956,7.1292,7.0843,7.063,7.038,6.938,6.9027,6.9292,6.8467,6.7589,6.7196,6.6748,6.6269,6.5701,6.5219,6.5145,6.4926,6.4298,6.371,6.3246,6.2536,6.1728,6.1153,6.0823,6.0517,6.0015,5.9685,5.9086,5.8487,5.7912,5.7178,5.6638,5.6209,5.5475,5.495,5.5023,5.4913,5.4693,5.4473,5.4363,5.4168,5.3911,5.3985,5.4058,5.3875,5.3728,5.3618,5.3618,5.3801,5.4069,5.4473,5.473,5.473,5.4803,5.4924,5.4644,5.4358,5.3615,7.4078,7.404,7.4889,7.4821,7.4163,7.4307,7.4307,7.4116,7.359,7.3217,7.2826,7.2261,7.1994,7.1421,7.1221,7.1909,7.2559,7.3093,7.3628,7.4201,7.5042,7.5395,7.5509,7.5509,7.5509,7.5509,7.5509,7.5509,7.5509,7.5509,7.5509,7.5509,7.5509,7.5509,7.5465,7.5374,7.5329,7.5292,7.5255,7.5228,7.4903,7.4671,7.4076,7.3806,7.3861,7.3891,7.3747,7.3577,7.3644,7.3263,7.2779,7.2485,7.2421,7.2662,7.2742,7.2791,7.268,7.2396,7.1919,7.1299,7.1222,7.0826,6.9366,6.884,6.9124,6.8616,6.7727,6.7293,6.6879,6.6544,6.598,6.5562,6.5538,6.5318,6.4631,6.3957,6.3418,6.2915,6.2328,6.1777,6.1594,6.1337,6.0933,6.0603,6.0199,5.96,5.8939,5.8242,5.7618,5.7262,5.676,5.6345,5.6235,5.6051,5.5622,5.5354,5.506,5.4913,5.473,5.4803,5.4803,5.462,5.4399,5.4069,5.4106,5.4436,5.4803,5.5244,5.5427,5.5585,5.5684,5.5735,5.5485,5.5111,5.452,7.3399,7.2299,7.3819,7.3972,7.3514,7.4669,7.4851,7.4393,7.4783,7.4325,7.3437,7.3514,7.3093,7.1764,7.2406,7.2673,7.2406,7.3246,7.3858,7.4307,7.508,7.5395,7.5509,7.5509,7.5509,7.5509,7.5509,7.5509,7.5509,7.5509,7.5509,7.5509,7.5509,7.5436,7.5356,7.5263,7.5264,7.5209,7.5152,7.5152,7.5161,7.499,7.5009,7.4875,7.4875,7.4913,7.4714,7.4115,7.3821,7.345,7.3097,7.2965,7.2966,7.3126,7.3217,7.3085,7.3013,7.2601,7.2122,7.1642,7.1511,7.1156,6.989,6.9109,6.9004,6.8355,6.7786,6.7639,6.7323,6.7323,6.6919,6.6479,6.6295,6.5817,6.5217,6.4556,6.3992,6.3429,6.2866,6.2658,6.2548,6.2108,6.1557,6.1263,6.1006,6.0407,5.971,5.9013,5.8535,5.8242,5.7935,5.7703,5.7409,5.6576,5.5879,5.5915,5.5732,5.5585,5.5464,5.55,5.55,5.5438,5.5144,5.4766,5.4961,5.5328,5.5695,5.6014,5.6088,5.6198,5.6455,5.6497,5.6277,5.5874,5.5268]}]]